<?xml version="1.0" encoding="UTF-8"?>
<gpx xmlns:xsi="http://www.w3.org/2001/XMLSchema-instance" xsi:schemaLocation="http://www.topografix.com/GPX/1/1 http://www.topografix.com/GPX/1/1/gpx.xsd" creator="StravaGPX" version="1.1" xmlns="http://www.topografix.com/GPX/1/1">
 <metadata>
  <time>2025-11-02T11:19:11Z</time>
 </metadata>
 <trk>
  <name>Trooperstown Annamoe DWC</name>
  <type>walking</type>
  <trkseg>
   <trkpt lat="53.0111830" lon="-6.2741030">
    <ele>148.7</ele>
    <time>2025-11-02T11:19:11Z</time>
   </trkpt>
   <trkpt lat="53.0112260" lon="-6.2740740">
    <ele>149.1</ele>
    <time>2025-11-02T11:19:48Z</time>
   </trkpt>
   <trkpt lat="53.0113150" lon="-6.2740420">
    <ele>149.8</ele>
    <time>2025-11-02T11:20:18Z</time>
   </trkpt>
   <trkpt lat="53.0113770" lon="-6.2740250">
    <ele>149.7</ele>
    <time>2025-11-02T11:20:24Z</time>
   </trkpt>
   <trkpt lat="53.0114330" lon="-6.2740700">
    <ele>149.8</ele>
    <time>2025-11-02T11:20:29Z</time>
   </trkpt>
   <trkpt lat="53.0114950" lon="-6.2741010">
    <ele>150.7</ele>
    <time>2025-11-02T11:20:34Z</time>
   </trkpt>
   <trkpt lat="53.0115750" lon="-6.2741210">
    <ele>150.9</ele>
    <time>2025-11-02T11:20:40Z</time>
   </trkpt>
   <trkpt lat="53.0116470" lon="-6.2741240">
    <ele>151.3</ele>
    <time>2025-11-02T11:20:45Z</time>
   </trkpt>
   <trkpt lat="53.0117150" lon="-6.2740950">
    <ele>151.8</ele>
    <time>2025-11-02T11:20:51Z</time>
   </trkpt>
   <trkpt lat="53.0117610" lon="-6.2740580">
    <ele>152.7</ele>
    <time>2025-11-02T11:21:53Z</time>
   </trkpt>
   <trkpt lat="53.0118040" lon="-6.2740980">
    <ele>152.8</ele>
    <time>2025-11-02T11:21:58Z</time>
   </trkpt>
   <trkpt lat="53.0118540" lon="-6.2740750">
    <ele>153.7</ele>
    <time>2025-11-02T11:25:21Z</time>
   </trkpt>
   <trkpt lat="53.0119050" lon="-6.2740310">
    <ele>153.7</ele>
    <time>2025-11-02T11:25:27Z</time>
   </trkpt>
   <trkpt lat="53.0119550" lon="-6.2740030">
    <ele>153.9</ele>
    <time>2025-11-02T11:25:33Z</time>
   </trkpt>
   <trkpt lat="53.0120070" lon="-6.2739570">
    <ele>154.0</ele>
    <time>2025-11-02T11:25:38Z</time>
   </trkpt>
   <trkpt lat="53.0120540" lon="-6.2739320">
    <ele>154.2</ele>
    <time>2025-11-02T11:25:43Z</time>
   </trkpt>
   <trkpt lat="53.0120970" lon="-6.2739060">
    <ele>154.4</ele>
    <time>2025-11-02T11:25:49Z</time>
   </trkpt>
   <trkpt lat="53.0121450" lon="-6.2738770">
    <ele>154.8</ele>
    <time>2025-11-02T11:25:55Z</time>
   </trkpt>
   <trkpt lat="53.0121940" lon="-6.2738590">
    <ele>155.0</ele>
    <time>2025-11-02T11:26:01Z</time>
   </trkpt>
   <trkpt lat="53.0122400" lon="-6.2738250">
    <ele>155.1</ele>
    <time>2025-11-02T11:26:06Z</time>
   </trkpt>
   <trkpt lat="53.0122920" lon="-6.2738070">
    <ele>155.7</ele>
    <time>2025-11-02T11:26:12Z</time>
   </trkpt>
   <trkpt lat="53.0123500" lon="-6.2737890">
    <ele>156.2</ele>
    <time>2025-11-02T11:26:17Z</time>
   </trkpt>
   <trkpt lat="53.0123980" lon="-6.2737790">
    <ele>156.5</ele>
    <time>2025-11-02T11:26:22Z</time>
   </trkpt>
   <trkpt lat="53.0124610" lon="-6.2737770">
    <ele>157.0</ele>
    <time>2025-11-02T11:26:28Z</time>
   </trkpt>
   <trkpt lat="53.0125220" lon="-6.2738050">
    <ele>157.6</ele>
    <time>2025-11-02T11:26:33Z</time>
   </trkpt>
   <trkpt lat="53.0125700" lon="-6.2738460">
    <ele>157.9</ele>
    <time>2025-11-02T11:26:39Z</time>
   </trkpt>
   <trkpt lat="53.0126130" lon="-6.2738780">
    <ele>158.2</ele>
    <time>2025-11-02T11:26:44Z</time>
   </trkpt>
   <trkpt lat="53.0126510" lon="-6.2739290">
    <ele>158.7</ele>
    <time>2025-11-02T11:26:49Z</time>
   </trkpt>
   <trkpt lat="53.0126850" lon="-6.2740000">
    <ele>159.2</ele>
    <time>2025-11-02T11:26:54Z</time>
   </trkpt>
   <trkpt lat="53.0127100" lon="-6.2740740">
    <ele>160.0</ele>
    <time>2025-11-02T11:26:59Z</time>
   </trkpt>
   <trkpt lat="53.0127420" lon="-6.2741330">
    <ele>160.6</ele>
    <time>2025-11-02T11:27:04Z</time>
   </trkpt>
   <trkpt lat="53.0127790" lon="-6.2742100">
    <ele>161.1</ele>
    <time>2025-11-02T11:27:09Z</time>
   </trkpt>
   <trkpt lat="53.0128130" lon="-6.2742870">
    <ele>161.5</ele>
    <time>2025-11-02T11:27:14Z</time>
   </trkpt>
   <trkpt lat="53.0128470" lon="-6.2743530">
    <ele>162.0</ele>
    <time>2025-11-02T11:27:20Z</time>
   </trkpt>
   <trkpt lat="53.0128790" lon="-6.2744450">
    <ele>162.3</ele>
    <time>2025-11-02T11:27:25Z</time>
   </trkpt>
   <trkpt lat="53.0129200" lon="-6.2745180">
    <ele>162.7</ele>
    <time>2025-11-02T11:27:31Z</time>
   </trkpt>
   <trkpt lat="53.0129440" lon="-6.2745840">
    <ele>163.1</ele>
    <time>2025-11-02T11:27:36Z</time>
   </trkpt>
   <trkpt lat="53.0129780" lon="-6.2746580">
    <ele>163.8</ele>
    <time>2025-11-02T11:27:41Z</time>
   </trkpt>
   <trkpt lat="53.0130180" lon="-6.2747160">
    <ele>164.5</ele>
    <time>2025-11-02T11:27:47Z</time>
   </trkpt>
   <trkpt lat="53.0130500" lon="-6.2747860">
    <ele>165.2</ele>
    <time>2025-11-02T11:27:52Z</time>
   </trkpt>
   <trkpt lat="53.0130840" lon="-6.2748640">
    <ele>165.9</ele>
    <time>2025-11-02T11:27:57Z</time>
   </trkpt>
   <trkpt lat="53.0131200" lon="-6.2749410">
    <ele>166.8</ele>
    <time>2025-11-02T11:28:02Z</time>
   </trkpt>
   <trkpt lat="53.0131500" lon="-6.2750110">
    <ele>167.4</ele>
    <time>2025-11-02T11:28:07Z</time>
   </trkpt>
   <trkpt lat="53.0131750" lon="-6.2750920">
    <ele>167.7</ele>
    <time>2025-11-02T11:28:12Z</time>
   </trkpt>
   <trkpt lat="53.0131930" lon="-6.2752080">
    <ele>168.4</ele>
    <time>2025-11-02T11:28:18Z</time>
   </trkpt>
   <trkpt lat="53.0132500" lon="-6.2752780">
    <ele>169.0</ele>
    <time>2025-11-02T11:28:24Z</time>
   </trkpt>
   <trkpt lat="53.0132700" lon="-6.2753660">
    <ele>169.4</ele>
    <time>2025-11-02T11:28:29Z</time>
   </trkpt>
   <trkpt lat="53.0133140" lon="-6.2754130">
    <ele>169.6</ele>
    <time>2025-11-02T11:28:34Z</time>
   </trkpt>
   <trkpt lat="53.0133580" lon="-6.2755050">
    <ele>169.8</ele>
    <time>2025-11-02T11:28:39Z</time>
   </trkpt>
   <trkpt lat="53.0134060" lon="-6.2755580">
    <ele>170.4</ele>
    <time>2025-11-02T11:28:45Z</time>
   </trkpt>
   <trkpt lat="53.0134500" lon="-6.2756060">
    <ele>171.3</ele>
    <time>2025-11-02T11:28:50Z</time>
   </trkpt>
   <trkpt lat="53.0134980" lon="-6.2756670">
    <ele>172.2</ele>
    <time>2025-11-02T11:28:55Z</time>
   </trkpt>
   <trkpt lat="53.0135340" lon="-6.2757370">
    <ele>173.5</ele>
    <time>2025-11-02T11:29:00Z</time>
   </trkpt>
   <trkpt lat="53.0135540" lon="-6.2758150">
    <ele>174.3</ele>
    <time>2025-11-02T11:29:05Z</time>
   </trkpt>
   <trkpt lat="53.0135650" lon="-6.2759090">
    <ele>174.6</ele>
    <time>2025-11-02T11:29:10Z</time>
   </trkpt>
   <trkpt lat="53.0135810" lon="-6.2760060">
    <ele>174.5</ele>
    <time>2025-11-02T11:29:16Z</time>
   </trkpt>
   <trkpt lat="53.0136000" lon="-6.2760960">
    <ele>174.1</ele>
    <time>2025-11-02T11:29:21Z</time>
   </trkpt>
   <trkpt lat="53.0136200" lon="-6.2761810">
    <ele>175.4</ele>
    <time>2025-11-02T11:29:26Z</time>
   </trkpt>
   <trkpt lat="53.0136340" lon="-6.2762660">
    <ele>176.0</ele>
    <time>2025-11-02T11:29:31Z</time>
   </trkpt>
   <trkpt lat="53.0136770" lon="-6.2763020">
    <ele>175.9</ele>
    <time>2025-11-02T11:29:37Z</time>
   </trkpt>
   <trkpt lat="53.0137230" lon="-6.2762780">
    <ele>177.1</ele>
    <time>2025-11-02T11:29:48Z</time>
   </trkpt>
   <trkpt lat="53.0137610" lon="-6.2762200">
    <ele>177.5</ele>
    <time>2025-11-02T11:29:54Z</time>
   </trkpt>
   <trkpt lat="53.0138100" lon="-6.2762330">
    <ele>177.4</ele>
    <time>2025-11-02T11:29:59Z</time>
   </trkpt>
   <trkpt lat="53.0138470" lon="-6.2761740">
    <ele>177.0</ele>
    <time>2025-11-02T11:30:11Z</time>
   </trkpt>
   <trkpt lat="53.0138830" lon="-6.2761240">
    <ele>176.8</ele>
    <time>2025-11-02T11:30:19Z</time>
   </trkpt>
   <trkpt lat="53.0139010" lon="-6.2760360">
    <ele>176.9</ele>
    <time>2025-11-02T11:30:50Z</time>
   </trkpt>
   <trkpt lat="53.0139310" lon="-6.2759290">
    <ele>176.3</ele>
    <time>2025-11-02T11:30:55Z</time>
   </trkpt>
   <trkpt lat="53.0139860" lon="-6.2758570">
    <ele>175.9</ele>
    <time>2025-11-02T11:31:01Z</time>
   </trkpt>
   <trkpt lat="53.0140560" lon="-6.2757850">
    <ele>175.6</ele>
    <time>2025-11-02T11:31:06Z</time>
   </trkpt>
   <trkpt lat="53.0140980" lon="-6.2757090">
    <ele>175.4</ele>
    <time>2025-11-02T11:31:11Z</time>
   </trkpt>
   <trkpt lat="53.0141390" lon="-6.2756460">
    <ele>175.5</ele>
    <time>2025-11-02T11:31:16Z</time>
   </trkpt>
   <trkpt lat="53.0141610" lon="-6.2755760">
    <ele>174.9</ele>
    <time>2025-11-02T11:31:21Z</time>
   </trkpt>
   <trkpt lat="53.0142120" lon="-6.2755620">
    <ele>174.7</ele>
    <time>2025-11-02T11:31:35Z</time>
   </trkpt>
   <trkpt lat="53.0142450" lon="-6.2756480">
    <ele>175.1</ele>
    <time>2025-11-02T11:31:41Z</time>
   </trkpt>
   <trkpt lat="53.0142930" lon="-6.2756560">
    <ele>174.7</ele>
    <time>2025-11-02T11:31:47Z</time>
   </trkpt>
   <trkpt lat="53.0143410" lon="-6.2756770">
    <ele>174.6</ele>
    <time>2025-11-02T11:31:53Z</time>
   </trkpt>
   <trkpt lat="53.0143890" lon="-6.2757110">
    <ele>174.8</ele>
    <time>2025-11-02T11:31:58Z</time>
   </trkpt>
   <trkpt lat="53.0144280" lon="-6.2757660">
    <ele>175.2</ele>
    <time>2025-11-02T11:32:04Z</time>
   </trkpt>
   <trkpt lat="53.0144560" lon="-6.2758380">
    <ele>175.7</ele>
    <time>2025-11-02T11:32:09Z</time>
   </trkpt>
   <trkpt lat="53.0144950" lon="-6.2758850">
    <ele>176.5</ele>
    <time>2025-11-02T11:32:14Z</time>
   </trkpt>
   <trkpt lat="53.0145310" lon="-6.2759520">
    <ele>177.2</ele>
    <time>2025-11-02T11:32:19Z</time>
   </trkpt>
   <trkpt lat="53.0145770" lon="-6.2759830">
    <ele>177.6</ele>
    <time>2025-11-02T11:32:24Z</time>
   </trkpt>
   <trkpt lat="53.0146300" lon="-6.2759980">
    <ele>177.9</ele>
    <time>2025-11-02T11:32:30Z</time>
   </trkpt>
   <trkpt lat="53.0146710" lon="-6.2760370">
    <ele>178.3</ele>
    <time>2025-11-02T11:32:36Z</time>
   </trkpt>
   <trkpt lat="53.0147160" lon="-6.2760670">
    <ele>178.6</ele>
    <time>2025-11-02T11:32:41Z</time>
   </trkpt>
   <trkpt lat="53.0147630" lon="-6.2760780">
    <ele>179.1</ele>
    <time>2025-11-02T11:32:47Z</time>
   </trkpt>
   <trkpt lat="53.0147830" lon="-6.2761470">
    <ele>179.7</ele>
    <time>2025-11-02T11:32:54Z</time>
   </trkpt>
   <trkpt lat="53.0148180" lon="-6.2762070">
    <ele>180.5</ele>
    <time>2025-11-02T11:33:02Z</time>
   </trkpt>
   <trkpt lat="53.0148190" lon="-6.2762830">
    <ele>180.7</ele>
    <time>2025-11-02T11:33:09Z</time>
   </trkpt>
   <trkpt lat="53.0148220" lon="-6.2763580">
    <ele>181.9</ele>
    <time>2025-11-02T11:33:18Z</time>
   </trkpt>
   <trkpt lat="53.0148450" lon="-6.2764540">
    <ele>182.3</ele>
    <time>2025-11-02T11:33:23Z</time>
   </trkpt>
   <trkpt lat="53.0148550" lon="-6.2765710">
    <ele>182.4</ele>
    <time>2025-11-02T11:33:29Z</time>
   </trkpt>
   <trkpt lat="53.0148390" lon="-6.2766470">
    <ele>182.8</ele>
    <time>2025-11-02T11:33:35Z</time>
   </trkpt>
   <trkpt lat="53.0148410" lon="-6.2767330">
    <ele>183.5</ele>
    <time>2025-11-02T11:33:40Z</time>
   </trkpt>
   <trkpt lat="53.0148310" lon="-6.2768060">
    <ele>185.3</ele>
    <time>2025-11-02T11:34:01Z</time>
   </trkpt>
   <trkpt lat="53.0148410" lon="-6.2768920">
    <ele>186.3</ele>
    <time>2025-11-02T11:34:35Z</time>
   </trkpt>
   <trkpt lat="53.0148480" lon="-6.2769780">
    <ele>186.4</ele>
    <time>2025-11-02T11:34:41Z</time>
   </trkpt>
   <trkpt lat="53.0148550" lon="-6.2770700">
    <ele>186.1</ele>
    <time>2025-11-02T11:35:04Z</time>
   </trkpt>
   <trkpt lat="53.0148450" lon="-6.2771440">
    <ele>186.5</ele>
    <time>2025-11-02T11:35:18Z</time>
   </trkpt>
   <trkpt lat="53.0148310" lon="-6.2772600">
    <ele>186.9</ele>
    <time>2025-11-02T11:35:24Z</time>
   </trkpt>
   <trkpt lat="53.0148360" lon="-6.2773480">
    <ele>187.5</ele>
    <time>2025-11-02T11:35:29Z</time>
   </trkpt>
   <trkpt lat="53.0148560" lon="-6.2774160">
    <ele>188.1</ele>
    <time>2025-11-02T11:35:39Z</time>
   </trkpt>
   <trkpt lat="53.0148400" lon="-6.2774920">
    <ele>189.2</ele>
    <time>2025-11-02T11:35:51Z</time>
   </trkpt>
   <trkpt lat="53.0148030" lon="-6.2775470">
    <ele>190.0</ele>
    <time>2025-11-02T11:35:57Z</time>
   </trkpt>
   <trkpt lat="53.0147930" lon="-6.2776820">
    <ele>191.1</ele>
    <time>2025-11-02T11:36:02Z</time>
   </trkpt>
   <trkpt lat="53.0147750" lon="-6.2777880">
    <ele>191.4</ele>
    <time>2025-11-02T11:36:08Z</time>
   </trkpt>
   <trkpt lat="53.0147450" lon="-6.2778460">
    <ele>192.0</ele>
    <time>2025-11-02T11:36:16Z</time>
   </trkpt>
   <trkpt lat="53.0147530" lon="-6.2779440">
    <ele>192.2</ele>
    <time>2025-11-02T11:36:21Z</time>
   </trkpt>
   <trkpt lat="53.0147300" lon="-6.2780500">
    <ele>192.6</ele>
    <time>2025-11-02T11:36:27Z</time>
   </trkpt>
   <trkpt lat="53.0147160" lon="-6.2781280">
    <ele>193.3</ele>
    <time>2025-11-02T11:36:32Z</time>
   </trkpt>
   <trkpt lat="53.0147020" lon="-6.2782130">
    <ele>193.7</ele>
    <time>2025-11-02T11:36:38Z</time>
   </trkpt>
   <trkpt lat="53.0146850" lon="-6.2782840">
    <ele>194.1</ele>
    <time>2025-11-02T11:36:44Z</time>
   </trkpt>
   <trkpt lat="53.0146680" lon="-6.2783650">
    <ele>194.6</ele>
    <time>2025-11-02T11:36:49Z</time>
   </trkpt>
   <trkpt lat="53.0146380" lon="-6.2784350">
    <ele>195.5</ele>
    <time>2025-11-02T11:36:55Z</time>
   </trkpt>
   <trkpt lat="53.0146320" lon="-6.2785170">
    <ele>196.5</ele>
    <time>2025-11-02T11:37:16Z</time>
   </trkpt>
   <trkpt lat="53.0145970" lon="-6.2786210">
    <ele>196.9</ele>
    <time>2025-11-02T11:37:21Z</time>
   </trkpt>
   <trkpt lat="53.0145810" lon="-6.2786920">
    <ele>197.5</ele>
    <time>2025-11-02T11:37:31Z</time>
   </trkpt>
   <trkpt lat="53.0145770" lon="-6.2787680">
    <ele>198.0</ele>
    <time>2025-11-02T11:37:40Z</time>
   </trkpt>
   <trkpt lat="53.0145560" lon="-6.2788370">
    <ele>198.2</ele>
    <time>2025-11-02T11:37:48Z</time>
   </trkpt>
   <trkpt lat="53.0145420" lon="-6.2789120">
    <ele>198.9</ele>
    <time>2025-11-02T11:37:55Z</time>
   </trkpt>
   <trkpt lat="53.0145290" lon="-6.2789910">
    <ele>199.4</ele>
    <time>2025-11-02T11:38:01Z</time>
   </trkpt>
   <trkpt lat="53.0145220" lon="-6.2790710">
    <ele>199.9</ele>
    <time>2025-11-02T11:38:07Z</time>
   </trkpt>
   <trkpt lat="53.0145220" lon="-6.2791520">
    <ele>200.7</ele>
    <time>2025-11-02T11:38:14Z</time>
   </trkpt>
   <trkpt lat="53.0145190" lon="-6.2792300">
    <ele>201.4</ele>
    <time>2025-11-02T11:38:21Z</time>
   </trkpt>
   <trkpt lat="53.0145410" lon="-6.2792990">
    <ele>202.0</ele>
    <time>2025-11-02T11:38:27Z</time>
   </trkpt>
   <trkpt lat="53.0145480" lon="-6.2793740">
    <ele>202.5</ele>
    <time>2025-11-02T11:38:33Z</time>
   </trkpt>
   <trkpt lat="53.0145410" lon="-6.2794510">
    <ele>202.8</ele>
    <time>2025-11-02T11:38:39Z</time>
   </trkpt>
   <trkpt lat="53.0145270" lon="-6.2795220">
    <ele>203.2</ele>
    <time>2025-11-02T11:38:44Z</time>
   </trkpt>
   <trkpt lat="53.0145170" lon="-6.2796090">
    <ele>203.8</ele>
    <time>2025-11-02T11:38:50Z</time>
   </trkpt>
   <trkpt lat="53.0145210" lon="-6.2796870">
    <ele>204.5</ele>
    <time>2025-11-02T11:38:57Z</time>
   </trkpt>
   <trkpt lat="53.0145210" lon="-6.2797650">
    <ele>205.2</ele>
    <time>2025-11-02T11:39:02Z</time>
   </trkpt>
   <trkpt lat="53.0144960" lon="-6.2798340">
    <ele>205.7</ele>
    <time>2025-11-02T11:39:08Z</time>
   </trkpt>
   <trkpt lat="53.0145340" lon="-6.2799450">
    <ele>206.3</ele>
    <time>2025-11-02T11:39:13Z</time>
   </trkpt>
   <trkpt lat="53.0145360" lon="-6.2800270">
    <ele>206.6</ele>
    <time>2025-11-02T11:39:18Z</time>
   </trkpt>
   <trkpt lat="53.0145260" lon="-6.2801080">
    <ele>206.9</ele>
    <time>2025-11-02T11:39:24Z</time>
   </trkpt>
   <trkpt lat="53.0145130" lon="-6.2801970">
    <ele>207.3</ele>
    <time>2025-11-02T11:39:29Z</time>
   </trkpt>
   <trkpt lat="53.0144940" lon="-6.2802770">
    <ele>207.7</ele>
    <time>2025-11-02T11:39:35Z</time>
   </trkpt>
   <trkpt lat="53.0144610" lon="-6.2803440">
    <ele>208.2</ele>
    <time>2025-11-02T11:39:41Z</time>
   </trkpt>
   <trkpt lat="53.0144160" lon="-6.2803990">
    <ele>208.7</ele>
    <time>2025-11-02T11:39:46Z</time>
   </trkpt>
   <trkpt lat="53.0143810" lon="-6.2804620">
    <ele>209.2</ele>
    <time>2025-11-02T11:39:51Z</time>
   </trkpt>
   <trkpt lat="53.0143480" lon="-6.2805130">
    <ele>209.7</ele>
    <time>2025-11-02T11:39:57Z</time>
   </trkpt>
   <trkpt lat="53.0143060" lon="-6.2805660">
    <ele>210.6</ele>
    <time>2025-11-02T11:40:03Z</time>
   </trkpt>
   <trkpt lat="53.0142770" lon="-6.2806270">
    <ele>211.3</ele>
    <time>2025-11-02T11:40:10Z</time>
   </trkpt>
   <trkpt lat="53.0142500" lon="-6.2806890">
    <ele>212.3</ele>
    <time>2025-11-02T11:40:16Z</time>
   </trkpt>
   <trkpt lat="53.0142150" lon="-6.2807650">
    <ele>212.7</ele>
    <time>2025-11-02T11:40:21Z</time>
   </trkpt>
   <trkpt lat="53.0141970" lon="-6.2808420">
    <ele>212.6</ele>
    <time>2025-11-02T11:40:27Z</time>
   </trkpt>
   <trkpt lat="53.0142100" lon="-6.2809160">
    <ele>212.9</ele>
    <time>2025-11-02T11:40:33Z</time>
   </trkpt>
   <trkpt lat="53.0142220" lon="-6.2809930">
    <ele>213.7</ele>
    <time>2025-11-02T11:40:40Z</time>
   </trkpt>
   <trkpt lat="53.0142550" lon="-6.2810530">
    <ele>214.8</ele>
    <time>2025-11-02T11:40:45Z</time>
   </trkpt>
   <trkpt lat="53.0143010" lon="-6.2810880">
    <ele>215.5</ele>
    <time>2025-11-02T11:40:51Z</time>
   </trkpt>
   <trkpt lat="53.0143580" lon="-6.2810940">
    <ele>216.0</ele>
    <time>2025-11-02T11:40:56Z</time>
   </trkpt>
   <trkpt lat="53.0144130" lon="-6.2810960">
    <ele>216.7</ele>
    <time>2025-11-02T11:41:01Z</time>
   </trkpt>
   <trkpt lat="53.0144590" lon="-6.2811040">
    <ele>217.7</ele>
    <time>2025-11-02T11:41:08Z</time>
   </trkpt>
   <trkpt lat="53.0145090" lon="-6.2810880">
    <ele>218.3</ele>
    <time>2025-11-02T11:41:14Z</time>
   </trkpt>
   <trkpt lat="53.0145570" lon="-6.2811060">
    <ele>219.1</ele>
    <time>2025-11-02T11:41:20Z</time>
   </trkpt>
   <trkpt lat="53.0146030" lon="-6.2811270">
    <ele>219.8</ele>
    <time>2025-11-02T11:41:26Z</time>
   </trkpt>
   <trkpt lat="53.0146470" lon="-6.2811540">
    <ele>220.4</ele>
    <time>2025-11-02T11:41:32Z</time>
   </trkpt>
   <trkpt lat="53.0146990" lon="-6.2811730">
    <ele>220.6</ele>
    <time>2025-11-02T11:41:37Z</time>
   </trkpt>
   <trkpt lat="53.0147450" lon="-6.2812070">
    <ele>221.0</ele>
    <time>2025-11-02T11:41:42Z</time>
   </trkpt>
   <trkpt lat="53.0147950" lon="-6.2812680">
    <ele>221.4</ele>
    <time>2025-11-02T11:41:48Z</time>
   </trkpt>
   <trkpt lat="53.0148370" lon="-6.2813370">
    <ele>221.6</ele>
    <time>2025-11-02T11:41:53Z</time>
   </trkpt>
   <trkpt lat="53.0148770" lon="-6.2814060">
    <ele>221.9</ele>
    <time>2025-11-02T11:41:58Z</time>
   </trkpt>
   <trkpt lat="53.0149060" lon="-6.2814640">
    <ele>222.4</ele>
    <time>2025-11-02T11:42:04Z</time>
   </trkpt>
   <trkpt lat="53.0149530" lon="-6.2814970">
    <ele>223.2</ele>
    <time>2025-11-02T11:42:10Z</time>
   </trkpt>
   <trkpt lat="53.0149870" lon="-6.2815520">
    <ele>224.0</ele>
    <time>2025-11-02T11:42:15Z</time>
   </trkpt>
   <trkpt lat="53.0150240" lon="-6.2815990">
    <ele>224.4</ele>
    <time>2025-11-02T11:42:20Z</time>
   </trkpt>
   <trkpt lat="53.0150820" lon="-6.2816010">
    <ele>224.6</ele>
    <time>2025-11-02T11:42:26Z</time>
   </trkpt>
   <trkpt lat="53.0151350" lon="-6.2816240">
    <ele>225.2</ele>
    <time>2025-11-02T11:42:32Z</time>
   </trkpt>
   <trkpt lat="53.0151870" lon="-6.2816360">
    <ele>225.9</ele>
    <time>2025-11-02T11:42:38Z</time>
   </trkpt>
   <trkpt lat="53.0152350" lon="-6.2816470">
    <ele>226.6</ele>
    <time>2025-11-02T11:42:44Z</time>
   </trkpt>
   <trkpt lat="53.0152800" lon="-6.2816750">
    <ele>226.9</ele>
    <time>2025-11-02T11:42:50Z</time>
   </trkpt>
   <trkpt lat="53.0153260" lon="-6.2816620">
    <ele>227.6</ele>
    <time>2025-11-02T11:42:55Z</time>
   </trkpt>
   <trkpt lat="53.0153770" lon="-6.2816440">
    <ele>228.3</ele>
    <time>2025-11-02T11:43:01Z</time>
   </trkpt>
   <trkpt lat="53.0154260" lon="-6.2816640">
    <ele>228.6</ele>
    <time>2025-11-02T11:43:06Z</time>
   </trkpt>
   <trkpt lat="53.0154710" lon="-6.2816740">
    <ele>228.8</ele>
    <time>2025-11-02T11:43:12Z</time>
   </trkpt>
   <trkpt lat="53.0155150" lon="-6.2816900">
    <ele>229.1</ele>
    <time>2025-11-02T11:43:18Z</time>
   </trkpt>
   <trkpt lat="53.0155630" lon="-6.2817180">
    <ele>230.1</ele>
    <time>2025-11-02T11:43:23Z</time>
   </trkpt>
   <trkpt lat="53.0156100" lon="-6.2817360">
    <ele>230.9</ele>
    <time>2025-11-02T11:43:29Z</time>
   </trkpt>
   <trkpt lat="53.0156570" lon="-6.2817590">
    <ele>231.7</ele>
    <time>2025-11-02T11:43:35Z</time>
   </trkpt>
   <trkpt lat="53.0157060" lon="-6.2817710">
    <ele>232.5</ele>
    <time>2025-11-02T11:43:41Z</time>
   </trkpt>
   <trkpt lat="53.0157490" lon="-6.2818150">
    <ele>233.2</ele>
    <time>2025-11-02T11:43:47Z</time>
   </trkpt>
   <trkpt lat="53.0157910" lon="-6.2818440">
    <ele>233.7</ele>
    <time>2025-11-02T11:43:52Z</time>
   </trkpt>
   <trkpt lat="53.0158410" lon="-6.2818720">
    <ele>234.3</ele>
    <time>2025-11-02T11:43:57Z</time>
   </trkpt>
   <trkpt lat="53.0158770" lon="-6.2819200">
    <ele>235.3</ele>
    <time>2025-11-02T11:46:45Z</time>
   </trkpt>
   <trkpt lat="53.0159230" lon="-6.2819600">
    <ele>235.7</ele>
    <time>2025-11-02T11:46:53Z</time>
   </trkpt>
   <trkpt lat="53.0159690" lon="-6.2820160">
    <ele>235.9</ele>
    <time>2025-11-02T11:46:59Z</time>
   </trkpt>
   <trkpt lat="53.0159960" lon="-6.2821000">
    <ele>236.5</ele>
    <time>2025-11-02T11:47:05Z</time>
   </trkpt>
   <trkpt lat="53.0160170" lon="-6.2821740">
    <ele>237.1</ele>
    <time>2025-11-02T11:47:11Z</time>
   </trkpt>
   <trkpt lat="53.0160300" lon="-6.2822530">
    <ele>237.5</ele>
    <time>2025-11-02T11:47:16Z</time>
   </trkpt>
   <trkpt lat="53.0160270" lon="-6.2823480">
    <ele>237.9</ele>
    <time>2025-11-02T11:47:22Z</time>
   </trkpt>
   <trkpt lat="53.0160210" lon="-6.2824260">
    <ele>238.5</ele>
    <time>2025-11-02T11:47:27Z</time>
   </trkpt>
   <trkpt lat="53.0160120" lon="-6.2825060">
    <ele>239.3</ele>
    <time>2025-11-02T11:47:32Z</time>
   </trkpt>
   <trkpt lat="53.0159970" lon="-6.2825910">
    <ele>240.1</ele>
    <time>2025-11-02T11:47:38Z</time>
   </trkpt>
   <trkpt lat="53.0159860" lon="-6.2826670">
    <ele>240.4</ele>
    <time>2025-11-02T11:47:44Z</time>
   </trkpt>
   <trkpt lat="53.0159850" lon="-6.2827420">
    <ele>240.5</ele>
    <time>2025-11-02T11:47:49Z</time>
   </trkpt>
   <trkpt lat="53.0159770" lon="-6.2828190">
    <ele>240.6</ele>
    <time>2025-11-02T11:47:54Z</time>
   </trkpt>
   <trkpt lat="53.0159500" lon="-6.2828820">
    <ele>241.3</ele>
    <time>2025-11-02T11:48:12Z</time>
   </trkpt>
   <trkpt lat="53.0159570" lon="-6.2829640">
    <ele>241.4</ele>
    <time>2025-11-02T11:48:17Z</time>
   </trkpt>
   <trkpt lat="53.0159690" lon="-6.2830470">
    <ele>241.4</ele>
    <time>2025-11-02T11:48:23Z</time>
   </trkpt>
   <trkpt lat="53.0159850" lon="-6.2831190">
    <ele>241.7</ele>
    <time>2025-11-02T11:48:29Z</time>
   </trkpt>
   <trkpt lat="53.0159950" lon="-6.2831930">
    <ele>242.3</ele>
    <time>2025-11-02T11:48:36Z</time>
   </trkpt>
   <trkpt lat="53.0159990" lon="-6.2832740">
    <ele>242.3</ele>
    <time>2025-11-02T11:48:41Z</time>
   </trkpt>
   <trkpt lat="53.0160090" lon="-6.2833600">
    <ele>242.8</ele>
    <time>2025-11-02T11:48:48Z</time>
   </trkpt>
   <trkpt lat="53.0160040" lon="-6.2834370">
    <ele>243.0</ele>
    <time>2025-11-02T11:48:53Z</time>
   </trkpt>
   <trkpt lat="53.0160340" lon="-6.2835030">
    <ele>243.7</ele>
    <time>2025-11-02T11:49:04Z</time>
   </trkpt>
   <trkpt lat="53.0160400" lon="-6.2835820">
    <ele>244.1</ele>
    <time>2025-11-02T11:49:12Z</time>
   </trkpt>
   <trkpt lat="53.0160800" lon="-6.2836270">
    <ele>244.6</ele>
    <time>2025-11-02T11:49:29Z</time>
   </trkpt>
   <trkpt lat="53.0161200" lon="-6.2836830">
    <ele>245.0</ele>
    <time>2025-11-02T11:49:34Z</time>
   </trkpt>
   <trkpt lat="53.0161630" lon="-6.2837310">
    <ele>245.4</ele>
    <time>2025-11-02T11:49:40Z</time>
   </trkpt>
   <trkpt lat="53.0162000" lon="-6.2837740">
    <ele>245.6</ele>
    <time>2025-11-02T11:49:46Z</time>
   </trkpt>
   <trkpt lat="53.0162390" lon="-6.2838160">
    <ele>245.7</ele>
    <time>2025-11-02T11:49:51Z</time>
   </trkpt>
   <trkpt lat="53.0162830" lon="-6.2838580">
    <ele>246.4</ele>
    <time>2025-11-02T11:49:57Z</time>
   </trkpt>
   <trkpt lat="53.0163250" lon="-6.2839010">
    <ele>246.9</ele>
    <time>2025-11-02T11:50:02Z</time>
   </trkpt>
   <trkpt lat="53.0163680" lon="-6.2839390">
    <ele>247.2</ele>
    <time>2025-11-02T11:50:08Z</time>
   </trkpt>
   <trkpt lat="53.0164050" lon="-6.2840190">
    <ele>247.3</ele>
    <time>2025-11-02T11:50:13Z</time>
   </trkpt>
   <trkpt lat="53.0164780" lon="-6.2840420">
    <ele>247.6</ele>
    <time>2025-11-02T11:50:19Z</time>
   </trkpt>
   <trkpt lat="53.0165220" lon="-6.2840930">
    <ele>248.1</ele>
    <time>2025-11-02T11:50:25Z</time>
   </trkpt>
   <trkpt lat="53.0165630" lon="-6.2841250">
    <ele>248.9</ele>
    <time>2025-11-02T11:50:30Z</time>
   </trkpt>
   <trkpt lat="53.0166020" lon="-6.2841770">
    <ele>249.4</ele>
    <time>2025-11-02T11:50:36Z</time>
   </trkpt>
   <trkpt lat="53.0166420" lon="-6.2842290">
    <ele>249.8</ele>
    <time>2025-11-02T11:50:42Z</time>
   </trkpt>
   <trkpt lat="53.0166800" lon="-6.2842730">
    <ele>250.3</ele>
    <time>2025-11-02T11:50:48Z</time>
   </trkpt>
   <trkpt lat="53.0167410" lon="-6.2843020">
    <ele>250.4</ele>
    <time>2025-11-02T11:50:54Z</time>
   </trkpt>
   <trkpt lat="53.0167900" lon="-6.2843280">
    <ele>250.8</ele>
    <time>2025-11-02T11:50:59Z</time>
   </trkpt>
   <trkpt lat="53.0168410" lon="-6.2843690">
    <ele>251.1</ele>
    <time>2025-11-02T11:51:04Z</time>
   </trkpt>
   <trkpt lat="53.0168920" lon="-6.2843970">
    <ele>251.5</ele>
    <time>2025-11-02T11:51:10Z</time>
   </trkpt>
   <trkpt lat="53.0169380" lon="-6.2844470">
    <ele>251.9</ele>
    <time>2025-11-02T11:51:15Z</time>
   </trkpt>
   <trkpt lat="53.0169870" lon="-6.2844890">
    <ele>252.4</ele>
    <time>2025-11-02T11:51:20Z</time>
   </trkpt>
   <trkpt lat="53.0170320" lon="-6.2845220">
    <ele>253.1</ele>
    <time>2025-11-02T11:51:25Z</time>
   </trkpt>
   <trkpt lat="53.0170770" lon="-6.2845520">
    <ele>253.7</ele>
    <time>2025-11-02T11:51:31Z</time>
   </trkpt>
   <trkpt lat="53.0171240" lon="-6.2845870">
    <ele>254.1</ele>
    <time>2025-11-02T11:51:36Z</time>
   </trkpt>
   <trkpt lat="53.0171820" lon="-6.2846140">
    <ele>255.1</ele>
    <time>2025-11-02T11:51:41Z</time>
   </trkpt>
   <trkpt lat="53.0172290" lon="-6.2846540">
    <ele>255.3</ele>
    <time>2025-11-02T11:51:47Z</time>
   </trkpt>
   <trkpt lat="53.0172730" lon="-6.2846920">
    <ele>255.6</ele>
    <time>2025-11-02T11:51:52Z</time>
   </trkpt>
   <trkpt lat="53.0173130" lon="-6.2847280">
    <ele>256.2</ele>
    <time>2025-11-02T11:51:59Z</time>
   </trkpt>
   <trkpt lat="53.0173630" lon="-6.2847500">
    <ele>256.8</ele>
    <time>2025-11-02T11:52:04Z</time>
   </trkpt>
   <trkpt lat="53.0174100" lon="-6.2847820">
    <ele>257.4</ele>
    <time>2025-11-02T11:52:10Z</time>
   </trkpt>
   <trkpt lat="53.0174530" lon="-6.2848120">
    <ele>257.7</ele>
    <time>2025-11-02T11:52:15Z</time>
   </trkpt>
   <trkpt lat="53.0175020" lon="-6.2848440">
    <ele>257.9</ele>
    <time>2025-11-02T11:52:21Z</time>
   </trkpt>
   <trkpt lat="53.0175510" lon="-6.2848700">
    <ele>258.4</ele>
    <time>2025-11-02T11:52:27Z</time>
   </trkpt>
   <trkpt lat="53.0176040" lon="-6.2849040">
    <ele>259.0</ele>
    <time>2025-11-02T11:52:32Z</time>
   </trkpt>
   <trkpt lat="53.0176480" lon="-6.2849450">
    <ele>260.0</ele>
    <time>2025-11-02T11:52:38Z</time>
   </trkpt>
   <trkpt lat="53.0176910" lon="-6.2849780">
    <ele>260.4</ele>
    <time>2025-11-02T11:52:43Z</time>
   </trkpt>
   <trkpt lat="53.0177400" lon="-6.2850170">
    <ele>260.4</ele>
    <time>2025-11-02T11:52:49Z</time>
   </trkpt>
   <trkpt lat="53.0177860" lon="-6.2850520">
    <ele>260.6</ele>
    <time>2025-11-02T11:52:55Z</time>
   </trkpt>
   <trkpt lat="53.0178330" lon="-6.2850750">
    <ele>260.9</ele>
    <time>2025-11-02T11:53:00Z</time>
   </trkpt>
   <trkpt lat="53.0178780" lon="-6.2851130">
    <ele>261.0</ele>
    <time>2025-11-02T11:53:06Z</time>
   </trkpt>
   <trkpt lat="53.0179210" lon="-6.2851480">
    <ele>261.6</ele>
    <time>2025-11-02T11:53:12Z</time>
   </trkpt>
   <trkpt lat="53.0179660" lon="-6.2851860">
    <ele>262.4</ele>
    <time>2025-11-02T11:53:17Z</time>
   </trkpt>
   <trkpt lat="53.0180130" lon="-6.2852150">
    <ele>262.8</ele>
    <time>2025-11-02T11:53:22Z</time>
   </trkpt>
   <trkpt lat="53.0180630" lon="-6.2852570">
    <ele>263.3</ele>
    <time>2025-11-02T11:53:28Z</time>
   </trkpt>
   <trkpt lat="53.0181080" lon="-6.2852900">
    <ele>264.0</ele>
    <time>2025-11-02T11:53:33Z</time>
   </trkpt>
   <trkpt lat="53.0181510" lon="-6.2853170">
    <ele>264.4</ele>
    <time>2025-11-02T11:53:38Z</time>
   </trkpt>
   <trkpt lat="53.0182010" lon="-6.2853500">
    <ele>264.8</ele>
    <time>2025-11-02T11:53:44Z</time>
   </trkpt>
   <trkpt lat="53.0182480" lon="-6.2853950">
    <ele>265.1</ele>
    <time>2025-11-02T11:53:49Z</time>
   </trkpt>
   <trkpt lat="53.0182980" lon="-6.2854360">
    <ele>265.7</ele>
    <time>2025-11-02T11:53:54Z</time>
   </trkpt>
   <trkpt lat="53.0183390" lon="-6.2854750">
    <ele>266.0</ele>
    <time>2025-11-02T11:53:59Z</time>
   </trkpt>
   <trkpt lat="53.0183830" lon="-6.2855110">
    <ele>266.1</ele>
    <time>2025-11-02T11:54:05Z</time>
   </trkpt>
   <trkpt lat="53.0184230" lon="-6.2855500">
    <ele>266.4</ele>
    <time>2025-11-02T11:54:10Z</time>
   </trkpt>
   <trkpt lat="53.0184690" lon="-6.2855800">
    <ele>266.7</ele>
    <time>2025-11-02T11:54:16Z</time>
   </trkpt>
   <trkpt lat="53.0185130" lon="-6.2856140">
    <ele>267.2</ele>
    <time>2025-11-02T11:54:21Z</time>
   </trkpt>
   <trkpt lat="53.0185570" lon="-6.2856540">
    <ele>267.6</ele>
    <time>2025-11-02T11:54:27Z</time>
   </trkpt>
   <trkpt lat="53.0186130" lon="-6.2856800">
    <ele>267.9</ele>
    <time>2025-11-02T11:54:32Z</time>
   </trkpt>
   <trkpt lat="53.0186570" lon="-6.2857100">
    <ele>268.2</ele>
    <time>2025-11-02T11:54:38Z</time>
   </trkpt>
   <trkpt lat="53.0187040" lon="-6.2857550">
    <ele>268.8</ele>
    <time>2025-11-02T11:54:43Z</time>
   </trkpt>
   <trkpt lat="53.0187570" lon="-6.2857780">
    <ele>269.2</ele>
    <time>2025-11-02T11:54:48Z</time>
   </trkpt>
   <trkpt lat="53.0187960" lon="-6.2858260">
    <ele>269.9</ele>
    <time>2025-11-02T11:54:54Z</time>
   </trkpt>
   <trkpt lat="53.0188370" lon="-6.2858590">
    <ele>270.5</ele>
    <time>2025-11-02T11:54:59Z</time>
   </trkpt>
   <trkpt lat="53.0188870" lon="-6.2858960">
    <ele>270.8</ele>
    <time>2025-11-02T11:55:04Z</time>
   </trkpt>
   <trkpt lat="53.0189370" lon="-6.2859120">
    <ele>271.2</ele>
    <time>2025-11-02T11:55:10Z</time>
   </trkpt>
   <trkpt lat="53.0189890" lon="-6.2859680">
    <ele>271.8</ele>
    <time>2025-11-02T11:55:15Z</time>
   </trkpt>
   <trkpt lat="53.0190300" lon="-6.2860130">
    <ele>272.4</ele>
    <time>2025-11-02T11:55:20Z</time>
   </trkpt>
   <trkpt lat="53.0190820" lon="-6.2860440">
    <ele>272.7</ele>
    <time>2025-11-02T11:55:25Z</time>
   </trkpt>
   <trkpt lat="53.0191190" lon="-6.2861010">
    <ele>272.7</ele>
    <time>2025-11-02T11:55:32Z</time>
   </trkpt>
   <trkpt lat="53.0191720" lon="-6.2861100">
    <ele>273.1</ele>
    <time>2025-11-02T11:55:37Z</time>
   </trkpt>
   <trkpt lat="53.0192150" lon="-6.2861590">
    <ele>273.5</ele>
    <time>2025-11-02T11:55:43Z</time>
   </trkpt>
   <trkpt lat="53.0192640" lon="-6.2862040">
    <ele>274.1</ele>
    <time>2025-11-02T11:55:48Z</time>
   </trkpt>
   <trkpt lat="53.0193070" lon="-6.2862500">
    <ele>274.8</ele>
    <time>2025-11-02T11:55:54Z</time>
   </trkpt>
   <trkpt lat="53.0193500" lon="-6.2862940">
    <ele>275.3</ele>
    <time>2025-11-02T11:55:59Z</time>
   </trkpt>
   <trkpt lat="53.0194020" lon="-6.2863250">
    <ele>275.7</ele>
    <time>2025-11-02T11:56:05Z</time>
   </trkpt>
   <trkpt lat="53.0194430" lon="-6.2863750">
    <ele>276.3</ele>
    <time>2025-11-02T11:56:12Z</time>
   </trkpt>
   <trkpt lat="53.0194920" lon="-6.2864140">
    <ele>276.9</ele>
    <time>2025-11-02T11:56:17Z</time>
   </trkpt>
   <trkpt lat="53.0195370" lon="-6.2864600">
    <ele>277.4</ele>
    <time>2025-11-02T11:56:22Z</time>
   </trkpt>
   <trkpt lat="53.0195800" lon="-6.2865040">
    <ele>277.8</ele>
    <time>2025-11-02T11:56:28Z</time>
   </trkpt>
   <trkpt lat="53.0196220" lon="-6.2865400">
    <ele>278.2</ele>
    <time>2025-11-02T11:56:33Z</time>
   </trkpt>
   <trkpt lat="53.0196640" lon="-6.2865720">
    <ele>278.6</ele>
    <time>2025-11-02T11:56:39Z</time>
   </trkpt>
   <trkpt lat="53.0197040" lon="-6.2866120">
    <ele>279.0</ele>
    <time>2025-11-02T11:56:45Z</time>
   </trkpt>
   <trkpt lat="53.0197400" lon="-6.2866630">
    <ele>279.4</ele>
    <time>2025-11-02T11:56:51Z</time>
   </trkpt>
   <trkpt lat="53.0197750" lon="-6.2867140">
    <ele>279.9</ele>
    <time>2025-11-02T11:56:56Z</time>
   </trkpt>
   <trkpt lat="53.0198150" lon="-6.2867740">
    <ele>280.6</ele>
    <time>2025-11-02T11:57:02Z</time>
   </trkpt>
   <trkpt lat="53.0198590" lon="-6.2868120">
    <ele>281.1</ele>
    <time>2025-11-02T11:57:07Z</time>
   </trkpt>
   <trkpt lat="53.0199020" lon="-6.2868520">
    <ele>282.2</ele>
    <time>2025-11-02T11:57:15Z</time>
   </trkpt>
   <trkpt lat="53.0199450" lon="-6.2868970">
    <ele>282.8</ele>
    <time>2025-11-02T11:57:20Z</time>
   </trkpt>
   <trkpt lat="53.0199950" lon="-6.2869150">
    <ele>283.4</ele>
    <time>2025-11-02T11:57:26Z</time>
   </trkpt>
   <trkpt lat="53.0200400" lon="-6.2869420">
    <ele>283.8</ele>
    <time>2025-11-02T11:57:32Z</time>
   </trkpt>
   <trkpt lat="53.0200820" lon="-6.2869770">
    <ele>284.5</ele>
    <time>2025-11-02T11:57:38Z</time>
   </trkpt>
   <trkpt lat="53.0201310" lon="-6.2869950">
    <ele>285.2</ele>
    <time>2025-11-02T11:57:44Z</time>
   </trkpt>
   <trkpt lat="53.0201790" lon="-6.2870000">
    <ele>285.7</ele>
    <time>2025-11-02T11:57:50Z</time>
   </trkpt>
   <trkpt lat="53.0202290" lon="-6.2870210">
    <ele>287.8</ele>
    <time>2025-11-02T12:00:05Z</time>
   </trkpt>
   <trkpt lat="53.0202940" lon="-6.2870020">
    <ele>288.5</ele>
    <time>2025-11-02T12:00:10Z</time>
   </trkpt>
   <trkpt lat="53.0203550" lon="-6.2869880">
    <ele>289.6</ele>
    <time>2025-11-02T12:00:16Z</time>
   </trkpt>
   <trkpt lat="53.0204030" lon="-6.2869720">
    <ele>289.8</ele>
    <time>2025-11-02T12:00:21Z</time>
   </trkpt>
   <trkpt lat="53.0204570" lon="-6.2869700">
    <ele>290.1</ele>
    <time>2025-11-02T12:00:26Z</time>
   </trkpt>
   <trkpt lat="53.0205110" lon="-6.2869580">
    <ele>290.8</ele>
    <time>2025-11-02T12:00:32Z</time>
   </trkpt>
   <trkpt lat="53.0205590" lon="-6.2869300">
    <ele>291.8</ele>
    <time>2025-11-02T12:00:37Z</time>
   </trkpt>
   <trkpt lat="53.0206090" lon="-6.2869010">
    <ele>293.2</ele>
    <time>2025-11-02T12:00:43Z</time>
   </trkpt>
   <trkpt lat="53.0206550" lon="-6.2869010">
    <ele>293.7</ele>
    <time>2025-11-02T12:00:48Z</time>
   </trkpt>
   <trkpt lat="53.0206990" lon="-6.2868690">
    <ele>293.5</ele>
    <time>2025-11-02T12:01:06Z</time>
   </trkpt>
   <trkpt lat="53.0207360" lon="-6.2869130">
    <ele>293.0</ele>
    <time>2025-11-02T12:07:22Z</time>
   </trkpt>
   <trkpt lat="53.0208030" lon="-6.2869570">
    <ele>293.9</ele>
    <time>2025-11-02T12:07:27Z</time>
   </trkpt>
   <trkpt lat="53.0208580" lon="-6.2869700">
    <ele>295.1</ele>
    <time>2025-11-02T12:07:33Z</time>
   </trkpt>
   <trkpt lat="53.0209090" lon="-6.2869830">
    <ele>295.9</ele>
    <time>2025-11-02T12:07:38Z</time>
   </trkpt>
   <trkpt lat="53.0209530" lon="-6.2870190">
    <ele>297.2</ele>
    <time>2025-11-02T12:07:46Z</time>
   </trkpt>
   <trkpt lat="53.0209960" lon="-6.2870410">
    <ele>298.9</ele>
    <time>2025-11-02T12:08:05Z</time>
   </trkpt>
   <trkpt lat="53.0210420" lon="-6.2870330">
    <ele>298.4</ele>
    <time>2025-11-02T12:08:27Z</time>
   </trkpt>
   <trkpt lat="53.0210890" lon="-6.2870190">
    <ele>300.7</ele>
    <time>2025-11-02T12:08:37Z</time>
   </trkpt>
   <trkpt lat="53.0211350" lon="-6.2870020">
    <ele>301.8</ele>
    <time>2025-11-02T12:08:46Z</time>
   </trkpt>
   <trkpt lat="53.0211890" lon="-6.2870080">
    <ele>303.1</ele>
    <time>2025-11-02T12:08:56Z</time>
   </trkpt>
   <trkpt lat="53.0212370" lon="-6.2870090">
    <ele>304.4</ele>
    <time>2025-11-02T12:09:05Z</time>
   </trkpt>
   <trkpt lat="53.0213120" lon="-6.2869970">
    <ele>303.8</ele>
    <time>2025-11-02T12:09:10Z</time>
   </trkpt>
   <trkpt lat="53.0213600" lon="-6.2869920">
    <ele>304.1</ele>
    <time>2025-11-02T12:09:15Z</time>
   </trkpt>
   <trkpt lat="53.0214210" lon="-6.2870000">
    <ele>304.5</ele>
    <time>2025-11-02T12:09:21Z</time>
   </trkpt>
   <trkpt lat="53.0214690" lon="-6.2870030">
    <ele>306.2</ele>
    <time>2025-11-02T12:09:30Z</time>
   </trkpt>
   <trkpt lat="53.0215140" lon="-6.2869810">
    <ele>307.6</ele>
    <time>2025-11-02T12:09:42Z</time>
   </trkpt>
   <trkpt lat="53.0215700" lon="-6.2869450">
    <ele>307.6</ele>
    <time>2025-11-02T12:09:47Z</time>
   </trkpt>
   <trkpt lat="53.0216170" lon="-6.2869330">
    <ele>307.6</ele>
    <time>2025-11-02T12:09:55Z</time>
   </trkpt>
   <trkpt lat="53.0216540" lon="-6.2869800">
    <ele>309.8</ele>
    <time>2025-11-02T12:10:07Z</time>
   </trkpt>
   <trkpt lat="53.0216990" lon="-6.2870090">
    <ele>311.3</ele>
    <time>2025-11-02T12:10:20Z</time>
   </trkpt>
   <trkpt lat="53.0217450" lon="-6.2871280">
    <ele>311.7</ele>
    <time>2025-11-02T12:10:26Z</time>
   </trkpt>
   <trkpt lat="53.0217990" lon="-6.2872020">
    <ele>312.2</ele>
    <time>2025-11-02T12:10:31Z</time>
   </trkpt>
   <trkpt lat="53.0218190" lon="-6.2872690">
    <ele>313.7</ele>
    <time>2025-11-02T12:10:42Z</time>
   </trkpt>
   <trkpt lat="53.0218330" lon="-6.2873480">
    <ele>314.1</ele>
    <time>2025-11-02T12:10:48Z</time>
   </trkpt>
   <trkpt lat="53.0218330" lon="-6.2874260">
    <ele>315.3</ele>
    <time>2025-11-02T12:10:55Z</time>
   </trkpt>
   <trkpt lat="53.0218380" lon="-6.2875060">
    <ele>316.8</ele>
    <time>2025-11-02T12:11:05Z</time>
   </trkpt>
   <trkpt lat="53.0218550" lon="-6.2875810">
    <ele>317.9</ele>
    <time>2025-11-02T12:11:15Z</time>
   </trkpt>
   <trkpt lat="53.0218780" lon="-6.2876500">
    <ele>318.8</ele>
    <time>2025-11-02T12:11:21Z</time>
   </trkpt>
   <trkpt lat="53.0218940" lon="-6.2877240">
    <ele>319.3</ele>
    <time>2025-11-02T12:11:27Z</time>
   </trkpt>
   <trkpt lat="53.0219000" lon="-6.2878080">
    <ele>319.9</ele>
    <time>2025-11-02T12:11:33Z</time>
   </trkpt>
   <trkpt lat="53.0218940" lon="-6.2878850">
    <ele>320.7</ele>
    <time>2025-11-02T12:11:39Z</time>
   </trkpt>
   <trkpt lat="53.0219130" lon="-6.2879610">
    <ele>321.3</ele>
    <time>2025-11-02T12:11:45Z</time>
   </trkpt>
   <trkpt lat="53.0219280" lon="-6.2880340">
    <ele>321.7</ele>
    <time>2025-11-02T12:11:51Z</time>
   </trkpt>
   <trkpt lat="53.0219360" lon="-6.2881090">
    <ele>322.3</ele>
    <time>2025-11-02T12:12:54Z</time>
   </trkpt>
   <trkpt lat="53.0219470" lon="-6.2881840">
    <ele>322.0</ele>
    <time>2025-11-02T12:13:00Z</time>
   </trkpt>
   <trkpt lat="53.0219710" lon="-6.2882480">
    <ele>321.8</ele>
    <time>2025-11-02T12:13:05Z</time>
   </trkpt>
   <trkpt lat="53.0219770" lon="-6.2883220">
    <ele>322.6</ele>
    <time>2025-11-02T12:13:12Z</time>
   </trkpt>
   <trkpt lat="53.0219840" lon="-6.2883980">
    <ele>323.5</ele>
    <time>2025-11-02T12:13:19Z</time>
   </trkpt>
   <trkpt lat="53.0219840" lon="-6.2884730">
    <ele>324.4</ele>
    <time>2025-11-02T12:13:25Z</time>
   </trkpt>
   <trkpt lat="53.0220080" lon="-6.2885410">
    <ele>325.3</ele>
    <time>2025-11-02T12:13:32Z</time>
   </trkpt>
   <trkpt lat="53.0220170" lon="-6.2886140">
    <ele>326.0</ele>
    <time>2025-11-02T12:13:39Z</time>
   </trkpt>
   <trkpt lat="53.0220300" lon="-6.2886900">
    <ele>326.8</ele>
    <time>2025-11-02T12:13:46Z</time>
   </trkpt>
   <trkpt lat="53.0220380" lon="-6.2887710">
    <ele>327.9</ele>
    <time>2025-11-02T12:13:55Z</time>
   </trkpt>
   <trkpt lat="53.0220460" lon="-6.2888530">
    <ele>328.4</ele>
    <time>2025-11-02T12:14:01Z</time>
   </trkpt>
   <trkpt lat="53.0220460" lon="-6.2889340">
    <ele>329.0</ele>
    <time>2025-11-02T12:14:06Z</time>
   </trkpt>
   <trkpt lat="53.0220620" lon="-6.2890050">
    <ele>329.7</ele>
    <time>2025-11-02T12:14:14Z</time>
   </trkpt>
   <trkpt lat="53.0220720" lon="-6.2890800">
    <ele>330.9</ele>
    <time>2025-11-02T12:14:23Z</time>
   </trkpt>
   <trkpt lat="53.0221000" lon="-6.2891610">
    <ele>331.7</ele>
    <time>2025-11-02T12:14:29Z</time>
   </trkpt>
   <trkpt lat="53.0221070" lon="-6.2892410">
    <ele>332.3</ele>
    <time>2025-11-02T12:14:34Z</time>
   </trkpt>
   <trkpt lat="53.0221140" lon="-6.2893160">
    <ele>332.9</ele>
    <time>2025-11-02T12:14:42Z</time>
   </trkpt>
   <trkpt lat="53.0221320" lon="-6.2893860">
    <ele>333.3</ele>
    <time>2025-11-02T12:14:47Z</time>
   </trkpt>
   <trkpt lat="53.0221450" lon="-6.2894590">
    <ele>333.8</ele>
    <time>2025-11-02T12:14:54Z</time>
   </trkpt>
   <trkpt lat="53.0221550" lon="-6.2895370">
    <ele>334.4</ele>
    <time>2025-11-02T12:15:01Z</time>
   </trkpt>
   <trkpt lat="53.0221630" lon="-6.2896180">
    <ele>335.3</ele>
    <time>2025-11-02T12:15:11Z</time>
   </trkpt>
   <trkpt lat="53.0221880" lon="-6.2896810">
    <ele>336.3</ele>
    <time>2025-11-02T12:16:21Z</time>
   </trkpt>
   <trkpt lat="53.0221910" lon="-6.2897590">
    <ele>336.5</ele>
    <time>2025-11-02T12:16:53Z</time>
   </trkpt>
   <trkpt lat="53.0222080" lon="-6.2898420">
    <ele>336.9</ele>
    <time>2025-11-02T12:17:00Z</time>
   </trkpt>
   <trkpt lat="53.0222110" lon="-6.2899300">
    <ele>337.6</ele>
    <time>2025-11-02T12:17:06Z</time>
   </trkpt>
   <trkpt lat="53.0222090" lon="-6.2900050">
    <ele>338.4</ele>
    <time>2025-11-02T12:17:14Z</time>
   </trkpt>
   <trkpt lat="53.0221880" lon="-6.2900730">
    <ele>339.9</ele>
    <time>2025-11-02T12:17:34Z</time>
   </trkpt>
   <trkpt lat="53.0221630" lon="-6.2901560">
    <ele>340.2</ele>
    <time>2025-11-02T12:17:40Z</time>
   </trkpt>
   <trkpt lat="53.0221470" lon="-6.2902390">
    <ele>340.6</ele>
    <time>2025-11-02T12:17:45Z</time>
   </trkpt>
   <trkpt lat="53.0221620" lon="-6.2903240">
    <ele>341.9</ele>
    <time>2025-11-02T12:18:04Z</time>
   </trkpt>
   <trkpt lat="53.0221670" lon="-6.2904540">
    <ele>342.2</ele>
    <time>2025-11-02T12:18:10Z</time>
   </trkpt>
   <trkpt lat="53.0221680" lon="-6.2905310">
    <ele>342.6</ele>
    <time>2025-11-02T12:18:15Z</time>
   </trkpt>
   <trkpt lat="53.0221630" lon="-6.2906300">
    <ele>343.0</ele>
    <time>2025-11-02T12:18:20Z</time>
   </trkpt>
   <trkpt lat="53.0221520" lon="-6.2907360">
    <ele>343.6</ele>
    <time>2025-11-02T12:18:26Z</time>
   </trkpt>
   <trkpt lat="53.0221580" lon="-6.2908130">
    <ele>344.1</ele>
    <time>2025-11-02T12:18:31Z</time>
   </trkpt>
   <trkpt lat="53.0221640" lon="-6.2908900">
    <ele>344.6</ele>
    <time>2025-11-02T12:18:37Z</time>
   </trkpt>
   <trkpt lat="53.0221590" lon="-6.2909730">
    <ele>345.0</ele>
    <time>2025-11-02T12:18:43Z</time>
   </trkpt>
   <trkpt lat="53.0221450" lon="-6.2910470">
    <ele>345.4</ele>
    <time>2025-11-02T12:18:51Z</time>
   </trkpt>
   <trkpt lat="53.0221450" lon="-6.2911240">
    <ele>345.6</ele>
    <time>2025-11-02T12:19:01Z</time>
   </trkpt>
   <trkpt lat="53.0221450" lon="-6.2912060">
    <ele>345.9</ele>
    <time>2025-11-02T12:19:15Z</time>
   </trkpt>
   <trkpt lat="53.0221460" lon="-6.2912970">
    <ele>346.3</ele>
    <time>2025-11-02T12:19:20Z</time>
   </trkpt>
   <trkpt lat="53.0221710" lon="-6.2913760">
    <ele>346.4</ele>
    <time>2025-11-02T12:19:26Z</time>
   </trkpt>
   <trkpt lat="53.0222040" lon="-6.2914310">
    <ele>346.8</ele>
    <time>2025-11-02T12:21:03Z</time>
   </trkpt>
   <trkpt lat="53.0222530" lon="-6.2914250">
    <ele>347.0</ele>
    <time>2025-11-02T12:21:32Z</time>
   </trkpt>
   <trkpt lat="53.0223030" lon="-6.2913830">
    <ele>346.9</ele>
    <time>2025-11-02T12:21:37Z</time>
   </trkpt>
   <trkpt lat="53.0223500" lon="-6.2913490">
    <ele>346.3</ele>
    <time>2025-11-02T12:21:45Z</time>
   </trkpt>
   <trkpt lat="53.0223980" lon="-6.2913210">
    <ele>345.8</ele>
    <time>2025-11-02T12:21:51Z</time>
   </trkpt>
   <trkpt lat="53.0224380" lon="-6.2912800">
    <ele>346.3</ele>
    <time>2025-11-02T12:21:57Z</time>
   </trkpt>
   <trkpt lat="53.0224850" lon="-6.2912480">
    <ele>346.7</ele>
    <time>2025-11-02T12:22:03Z</time>
   </trkpt>
   <trkpt lat="53.0225330" lon="-6.2912230">
    <ele>346.8</ele>
    <time>2025-11-02T12:22:08Z</time>
   </trkpt>
   <trkpt lat="53.0225750" lon="-6.2911880">
    <ele>347.2</ele>
    <time>2025-11-02T12:22:13Z</time>
   </trkpt>
   <trkpt lat="53.0226190" lon="-6.2911570">
    <ele>347.5</ele>
    <time>2025-11-02T12:22:19Z</time>
   </trkpt>
   <trkpt lat="53.0226640" lon="-6.2911210">
    <ele>348.0</ele>
    <time>2025-11-02T12:22:24Z</time>
   </trkpt>
   <trkpt lat="53.0227080" lon="-6.2910820">
    <ele>348.4</ele>
    <time>2025-11-02T12:22:29Z</time>
   </trkpt>
   <trkpt lat="53.0227560" lon="-6.2910460">
    <ele>348.3</ele>
    <time>2025-11-02T12:22:34Z</time>
   </trkpt>
   <trkpt lat="53.0228030" lon="-6.2910050">
    <ele>348.4</ele>
    <time>2025-11-02T12:22:40Z</time>
   </trkpt>
   <trkpt lat="53.0228480" lon="-6.2909690">
    <ele>348.4</ele>
    <time>2025-11-02T12:22:45Z</time>
   </trkpt>
   <trkpt lat="53.0228820" lon="-6.2909190">
    <ele>348.6</ele>
    <time>2025-11-02T12:22:50Z</time>
   </trkpt>
   <trkpt lat="53.0229390" lon="-6.2909000">
    <ele>348.5</ele>
    <time>2025-11-02T12:22:56Z</time>
   </trkpt>
   <trkpt lat="53.0229770" lon="-6.2908530">
    <ele>348.4</ele>
    <time>2025-11-02T12:23:01Z</time>
   </trkpt>
   <trkpt lat="53.0230260" lon="-6.2908250">
    <ele>348.5</ele>
    <time>2025-11-02T12:23:07Z</time>
   </trkpt>
   <trkpt lat="53.0230730" lon="-6.2908000">
    <ele>348.3</ele>
    <time>2025-11-02T12:23:12Z</time>
   </trkpt>
   <trkpt lat="53.0231180" lon="-6.2907660">
    <ele>347.3</ele>
    <time>2025-11-02T12:23:18Z</time>
   </trkpt>
   <trkpt lat="53.0231490" lon="-6.2906950">
    <ele>347.1</ele>
    <time>2025-11-02T12:23:25Z</time>
   </trkpt>
   <trkpt lat="53.0232170" lon="-6.2906790">
    <ele>347.4</ele>
    <time>2025-11-02T12:23:30Z</time>
   </trkpt>
   <trkpt lat="53.0232590" lon="-6.2906500">
    <ele>348.0</ele>
    <time>2025-11-02T12:23:35Z</time>
   </trkpt>
   <trkpt lat="53.0232980" lon="-6.2906000">
    <ele>348.2</ele>
    <time>2025-11-02T12:23:41Z</time>
   </trkpt>
   <trkpt lat="53.0233470" lon="-6.2905690">
    <ele>347.4</ele>
    <time>2025-11-02T12:23:46Z</time>
   </trkpt>
   <trkpt lat="53.0233860" lon="-6.2905230">
    <ele>346.7</ele>
    <time>2025-11-02T12:23:51Z</time>
   </trkpt>
   <trkpt lat="53.0234390" lon="-6.2904970">
    <ele>346.7</ele>
    <time>2025-11-02T12:23:57Z</time>
   </trkpt>
   <trkpt lat="53.0234840" lon="-6.2904670">
    <ele>346.8</ele>
    <time>2025-11-02T12:24:02Z</time>
   </trkpt>
   <trkpt lat="53.0235240" lon="-6.2904270">
    <ele>347.2</ele>
    <time>2025-11-02T12:24:07Z</time>
   </trkpt>
   <trkpt lat="53.0235680" lon="-6.2903890">
    <ele>346.9</ele>
    <time>2025-11-02T12:24:13Z</time>
   </trkpt>
   <trkpt lat="53.0236140" lon="-6.2903470">
    <ele>346.0</ele>
    <time>2025-11-02T12:24:18Z</time>
   </trkpt>
   <trkpt lat="53.0236550" lon="-6.2903110">
    <ele>345.7</ele>
    <time>2025-11-02T12:24:23Z</time>
   </trkpt>
   <trkpt lat="53.0237000" lon="-6.2902880">
    <ele>345.6</ele>
    <time>2025-11-02T12:24:28Z</time>
   </trkpt>
   <trkpt lat="53.0237450" lon="-6.2902400">
    <ele>345.5</ele>
    <time>2025-11-02T12:24:33Z</time>
   </trkpt>
   <trkpt lat="53.0237850" lon="-6.2901990">
    <ele>345.5</ele>
    <time>2025-11-02T12:24:39Z</time>
   </trkpt>
   <trkpt lat="53.0238250" lon="-6.2901560">
    <ele>345.8</ele>
    <time>2025-11-02T12:24:44Z</time>
   </trkpt>
   <trkpt lat="53.0238550" lon="-6.2900950">
    <ele>345.1</ele>
    <time>2025-11-02T12:24:49Z</time>
   </trkpt>
   <trkpt lat="53.0239060" lon="-6.2900450">
    <ele>344.6</ele>
    <time>2025-11-02T12:24:55Z</time>
   </trkpt>
   <trkpt lat="53.0239470" lon="-6.2900000">
    <ele>345.0</ele>
    <time>2025-11-02T12:25:01Z</time>
   </trkpt>
   <trkpt lat="53.0239810" lon="-6.2899500">
    <ele>344.6</ele>
    <time>2025-11-02T12:25:09Z</time>
   </trkpt>
   <trkpt lat="53.0240220" lon="-6.2899070">
    <ele>344.6</ele>
    <time>2025-11-02T12:25:15Z</time>
   </trkpt>
   <trkpt lat="53.0240580" lon="-6.2898630">
    <ele>344.0</ele>
    <time>2025-11-02T12:25:20Z</time>
   </trkpt>
   <trkpt lat="53.0240970" lon="-6.2898050">
    <ele>343.0</ele>
    <time>2025-11-02T12:25:25Z</time>
   </trkpt>
   <trkpt lat="53.0241370" lon="-6.2897570">
    <ele>342.4</ele>
    <time>2025-11-02T12:25:30Z</time>
   </trkpt>
   <trkpt lat="53.0241810" lon="-6.2897080">
    <ele>341.8</ele>
    <time>2025-11-02T12:25:35Z</time>
   </trkpt>
   <trkpt lat="53.0242200" lon="-6.2896660">
    <ele>341.0</ele>
    <time>2025-11-02T12:25:40Z</time>
   </trkpt>
   <trkpt lat="53.0242540" lon="-6.2896160">
    <ele>340.6</ele>
    <time>2025-11-02T12:25:46Z</time>
   </trkpt>
   <trkpt lat="53.0242970" lon="-6.2895650">
    <ele>340.9</ele>
    <time>2025-11-02T12:25:51Z</time>
   </trkpt>
   <trkpt lat="53.0243370" lon="-6.2895170">
    <ele>340.6</ele>
    <time>2025-11-02T12:25:56Z</time>
   </trkpt>
   <trkpt lat="53.0243700" lon="-6.2894650">
    <ele>340.0</ele>
    <time>2025-11-02T12:26:01Z</time>
   </trkpt>
   <trkpt lat="53.0244050" lon="-6.2894170">
    <ele>339.3</ele>
    <time>2025-11-02T12:26:07Z</time>
   </trkpt>
   <trkpt lat="53.0244490" lon="-6.2893700">
    <ele>338.4</ele>
    <time>2025-11-02T12:26:12Z</time>
   </trkpt>
   <trkpt lat="53.0244890" lon="-6.2893130">
    <ele>338.1</ele>
    <time>2025-11-02T12:26:17Z</time>
   </trkpt>
   <trkpt lat="53.0245320" lon="-6.2892620">
    <ele>337.8</ele>
    <time>2025-11-02T12:26:22Z</time>
   </trkpt>
   <trkpt lat="53.0245680" lon="-6.2892110">
    <ele>337.3</ele>
    <time>2025-11-02T12:26:28Z</time>
   </trkpt>
   <trkpt lat="53.0246160" lon="-6.2891670">
    <ele>337.0</ele>
    <time>2025-11-02T12:26:33Z</time>
   </trkpt>
   <trkpt lat="53.0246530" lon="-6.2891150">
    <ele>336.3</ele>
    <time>2025-11-02T12:26:40Z</time>
   </trkpt>
   <trkpt lat="53.0246910" lon="-6.2890600">
    <ele>335.9</ele>
    <time>2025-11-02T12:26:45Z</time>
   </trkpt>
   <trkpt lat="53.0247280" lon="-6.2890080">
    <ele>335.5</ele>
    <time>2025-11-02T12:26:51Z</time>
   </trkpt>
   <trkpt lat="53.0247790" lon="-6.2889700">
    <ele>335.1</ele>
    <time>2025-11-02T12:26:56Z</time>
   </trkpt>
   <trkpt lat="53.0248160" lon="-6.2889210">
    <ele>335.1</ele>
    <time>2025-11-02T12:27:01Z</time>
   </trkpt>
   <trkpt lat="53.0248550" lon="-6.2888750">
    <ele>335.0</ele>
    <time>2025-11-02T12:27:06Z</time>
   </trkpt>
   <trkpt lat="53.0248900" lon="-6.2888220">
    <ele>334.7</ele>
    <time>2025-11-02T12:27:12Z</time>
   </trkpt>
   <trkpt lat="53.0249260" lon="-6.2887770">
    <ele>334.3</ele>
    <time>2025-11-02T12:27:17Z</time>
   </trkpt>
   <trkpt lat="53.0249680" lon="-6.2887350">
    <ele>333.7</ele>
    <time>2025-11-02T12:27:22Z</time>
   </trkpt>
   <trkpt lat="53.0250110" lon="-6.2886950">
    <ele>333.7</ele>
    <time>2025-11-02T12:27:28Z</time>
   </trkpt>
   <trkpt lat="53.0250520" lon="-6.2886380">
    <ele>333.1</ele>
    <time>2025-11-02T12:27:34Z</time>
   </trkpt>
   <trkpt lat="53.0250920" lon="-6.2885950">
    <ele>332.6</ele>
    <time>2025-11-02T12:27:39Z</time>
   </trkpt>
   <trkpt lat="53.0251260" lon="-6.2885400">
    <ele>332.3</ele>
    <time>2025-11-02T12:27:45Z</time>
   </trkpt>
   <trkpt lat="53.0251730" lon="-6.2885050">
    <ele>332.1</ele>
    <time>2025-11-02T12:27:50Z</time>
   </trkpt>
   <trkpt lat="53.0252140" lon="-6.2884570">
    <ele>331.6</ele>
    <time>2025-11-02T12:27:56Z</time>
   </trkpt>
   <trkpt lat="53.0252550" lon="-6.2884110">
    <ele>331.5</ele>
    <time>2025-11-02T12:28:02Z</time>
   </trkpt>
   <trkpt lat="53.0252960" lon="-6.2883690">
    <ele>331.1</ele>
    <time>2025-11-02T12:28:07Z</time>
   </trkpt>
   <trkpt lat="53.0253400" lon="-6.2883240">
    <ele>330.5</ele>
    <time>2025-11-02T12:28:12Z</time>
   </trkpt>
   <trkpt lat="53.0253830" lon="-6.2882730">
    <ele>329.7</ele>
    <time>2025-11-02T12:28:18Z</time>
   </trkpt>
   <trkpt lat="53.0254140" lon="-6.2882150">
    <ele>329.5</ele>
    <time>2025-11-02T12:28:23Z</time>
   </trkpt>
   <trkpt lat="53.0254530" lon="-6.2881690">
    <ele>329.4</ele>
    <time>2025-11-02T12:28:28Z</time>
   </trkpt>
   <trkpt lat="53.0254950" lon="-6.2881280">
    <ele>328.9</ele>
    <time>2025-11-02T12:28:34Z</time>
   </trkpt>
   <trkpt lat="53.0255320" lon="-6.2880780">
    <ele>328.4</ele>
    <time>2025-11-02T12:28:39Z</time>
   </trkpt>
   <trkpt lat="53.0255710" lon="-6.2880400">
    <ele>328.2</ele>
    <time>2025-11-02T12:28:44Z</time>
   </trkpt>
   <trkpt lat="53.0256080" lon="-6.2879910">
    <ele>327.8</ele>
    <time>2025-11-02T12:28:50Z</time>
   </trkpt>
   <trkpt lat="53.0256450" lon="-6.2879480">
    <ele>327.0</ele>
    <time>2025-11-02T12:28:56Z</time>
   </trkpt>
   <trkpt lat="53.0256840" lon="-6.2879070">
    <ele>326.0</ele>
    <time>2025-11-02T12:29:02Z</time>
   </trkpt>
   <trkpt lat="53.0257240" lon="-6.2878670">
    <ele>325.4</ele>
    <time>2025-11-02T12:29:09Z</time>
   </trkpt>
   <trkpt lat="53.0257670" lon="-6.2878320">
    <ele>325.1</ele>
    <time>2025-11-02T12:29:16Z</time>
   </trkpt>
   <trkpt lat="53.0258100" lon="-6.2878050">
    <ele>323.9</ele>
    <time>2025-11-02T12:29:22Z</time>
   </trkpt>
   <trkpt lat="53.0258570" lon="-6.2877890">
    <ele>323.1</ele>
    <time>2025-11-02T12:29:36Z</time>
   </trkpt>
   <trkpt lat="53.0259040" lon="-6.2877820">
    <ele>322.2</ele>
    <time>2025-11-02T12:29:41Z</time>
   </trkpt>
   <trkpt lat="53.0259520" lon="-6.2877700">
    <ele>321.9</ele>
    <time>2025-11-02T12:29:46Z</time>
   </trkpt>
   <trkpt lat="53.0259980" lon="-6.2877520">
    <ele>321.4</ele>
    <time>2025-11-02T12:29:52Z</time>
   </trkpt>
   <trkpt lat="53.0260550" lon="-6.2877500">
    <ele>321.5</ele>
    <time>2025-11-02T12:29:58Z</time>
   </trkpt>
   <trkpt lat="53.0261150" lon="-6.2877350">
    <ele>321.5</ele>
    <time>2025-11-02T12:30:03Z</time>
   </trkpt>
   <trkpt lat="53.0261600" lon="-6.2877350">
    <ele>320.7</ele>
    <time>2025-11-02T12:30:08Z</time>
   </trkpt>
   <trkpt lat="53.0262060" lon="-6.2877280">
    <ele>319.7</ele>
    <time>2025-11-02T12:30:13Z</time>
   </trkpt>
   <trkpt lat="53.0262670" lon="-6.2877440">
    <ele>319.0</ele>
    <time>2025-11-02T12:30:19Z</time>
   </trkpt>
   <trkpt lat="53.0263140" lon="-6.2877350">
    <ele>318.7</ele>
    <time>2025-11-02T12:30:24Z</time>
   </trkpt>
   <trkpt lat="53.0263720" lon="-6.2877350">
    <ele>318.6</ele>
    <time>2025-11-02T12:30:29Z</time>
   </trkpt>
   <trkpt lat="53.0264240" lon="-6.2877410">
    <ele>318.9</ele>
    <time>2025-11-02T12:30:35Z</time>
   </trkpt>
   <trkpt lat="53.0264730" lon="-6.2877500">
    <ele>318.6</ele>
    <time>2025-11-02T12:30:41Z</time>
   </trkpt>
   <trkpt lat="53.0265310" lon="-6.2877760">
    <ele>318.5</ele>
    <time>2025-11-02T12:30:46Z</time>
   </trkpt>
   <trkpt lat="53.0265820" lon="-6.2877870">
    <ele>318.4</ele>
    <time>2025-11-02T12:30:52Z</time>
   </trkpt>
   <trkpt lat="53.0266400" lon="-6.2878180">
    <ele>319.0</ele>
    <time>2025-11-02T12:30:58Z</time>
   </trkpt>
   <trkpt lat="53.0266870" lon="-6.2878470">
    <ele>318.7</ele>
    <time>2025-11-02T12:31:04Z</time>
   </trkpt>
   <trkpt lat="53.0267370" lon="-6.2878770">
    <ele>318.5</ele>
    <time>2025-11-02T12:31:09Z</time>
   </trkpt>
   <trkpt lat="53.0267880" lon="-6.2879090">
    <ele>318.4</ele>
    <time>2025-11-02T12:31:15Z</time>
   </trkpt>
   <trkpt lat="53.0268420" lon="-6.2879330">
    <ele>319.1</ele>
    <time>2025-11-02T12:31:20Z</time>
   </trkpt>
   <trkpt lat="53.0268880" lon="-6.2879250">
    <ele>319.1</ele>
    <time>2025-11-02T12:31:25Z</time>
   </trkpt>
   <trkpt lat="53.0269360" lon="-6.2879510">
    <ele>319.2</ele>
    <time>2025-11-02T12:31:30Z</time>
   </trkpt>
   <trkpt lat="53.0269890" lon="-6.2879660">
    <ele>319.8</ele>
    <time>2025-11-02T12:31:36Z</time>
   </trkpt>
   <trkpt lat="53.0270420" lon="-6.2879720">
    <ele>319.8</ele>
    <time>2025-11-02T12:31:41Z</time>
   </trkpt>
   <trkpt lat="53.0270960" lon="-6.2879680">
    <ele>320.0</ele>
    <time>2025-11-02T12:31:46Z</time>
   </trkpt>
   <trkpt lat="53.0271460" lon="-6.2879790">
    <ele>319.9</ele>
    <time>2025-11-02T12:31:52Z</time>
   </trkpt>
   <trkpt lat="53.0271940" lon="-6.2879730">
    <ele>319.3</ele>
    <time>2025-11-02T12:31:57Z</time>
   </trkpt>
   <trkpt lat="53.0272460" lon="-6.2879570">
    <ele>319.2</ele>
    <time>2025-11-02T12:32:02Z</time>
   </trkpt>
   <trkpt lat="53.0273020" lon="-6.2879470">
    <ele>319.1</ele>
    <time>2025-11-02T12:32:07Z</time>
   </trkpt>
   <trkpt lat="53.0273580" lon="-6.2879490">
    <ele>319.1</ele>
    <time>2025-11-02T12:32:13Z</time>
   </trkpt>
   <trkpt lat="53.0274050" lon="-6.2879310">
    <ele>319.4</ele>
    <time>2025-11-02T12:32:18Z</time>
   </trkpt>
   <trkpt lat="53.0274600" lon="-6.2879240">
    <ele>319.4</ele>
    <time>2025-11-02T12:32:23Z</time>
   </trkpt>
   <trkpt lat="53.0275170" lon="-6.2879160">
    <ele>319.0</ele>
    <time>2025-11-02T12:32:29Z</time>
   </trkpt>
   <trkpt lat="53.0275720" lon="-6.2879110">
    <ele>318.9</ele>
    <time>2025-11-02T12:32:34Z</time>
   </trkpt>
   <trkpt lat="53.0276210" lon="-6.2878940">
    <ele>319.1</ele>
    <time>2025-11-02T12:32:39Z</time>
   </trkpt>
   <trkpt lat="53.0276840" lon="-6.2878980">
    <ele>319.3</ele>
    <time>2025-11-02T12:32:45Z</time>
   </trkpt>
   <trkpt lat="53.0277350" lon="-6.2879080">
    <ele>319.6</ele>
    <time>2025-11-02T12:32:50Z</time>
   </trkpt>
   <trkpt lat="53.0277820" lon="-6.2879100">
    <ele>319.2</ele>
    <time>2025-11-02T12:32:55Z</time>
   </trkpt>
   <trkpt lat="53.0278320" lon="-6.2878970">
    <ele>319.0</ele>
    <time>2025-11-02T12:33:02Z</time>
   </trkpt>
   <trkpt lat="53.0278770" lon="-6.2878860">
    <ele>319.1</ele>
    <time>2025-11-02T12:33:07Z</time>
   </trkpt>
   <trkpt lat="53.0279230" lon="-6.2878680">
    <ele>319.5</ele>
    <time>2025-11-02T12:33:13Z</time>
   </trkpt>
   <trkpt lat="53.0279700" lon="-6.2878510">
    <ele>319.9</ele>
    <time>2025-11-02T12:33:18Z</time>
   </trkpt>
   <trkpt lat="53.0280160" lon="-6.2878340">
    <ele>320.3</ele>
    <time>2025-11-02T12:33:24Z</time>
   </trkpt>
   <trkpt lat="53.0280650" lon="-6.2878180">
    <ele>320.8</ele>
    <time>2025-11-02T12:33:29Z</time>
   </trkpt>
   <trkpt lat="53.0281110" lon="-6.2878080">
    <ele>320.9</ele>
    <time>2025-11-02T12:33:36Z</time>
   </trkpt>
   <trkpt lat="53.0281590" lon="-6.2877980">
    <ele>321.4</ele>
    <time>2025-11-02T12:33:44Z</time>
   </trkpt>
   <trkpt lat="53.0282080" lon="-6.2877890">
    <ele>322.2</ele>
    <time>2025-11-02T12:33:55Z</time>
   </trkpt>
   <trkpt lat="53.0282550" lon="-6.2878040">
    <ele>322.7</ele>
    <time>2025-11-02T12:34:06Z</time>
   </trkpt>
   <trkpt lat="53.0282970" lon="-6.2877700">
    <ele>323.3</ele>
    <time>2025-11-02T12:34:16Z</time>
   </trkpt>
   <trkpt lat="53.0283430" lon="-6.2877450">
    <ele>324.1</ele>
    <time>2025-11-02T12:34:29Z</time>
   </trkpt>
   <trkpt lat="53.0283940" lon="-6.2877460">
    <ele>324.7</ele>
    <time>2025-11-02T12:34:34Z</time>
   </trkpt>
   <trkpt lat="53.0284440" lon="-6.2877600">
    <ele>325.4</ele>
    <time>2025-11-02T12:34:52Z</time>
   </trkpt>
   <trkpt lat="53.0284980" lon="-6.2877520">
    <ele>325.5</ele>
    <time>2025-11-02T12:34:58Z</time>
   </trkpt>
   <trkpt lat="53.0285450" lon="-6.2877660">
    <ele>326.6</ele>
    <time>2025-11-02T12:35:09Z</time>
   </trkpt>
   <trkpt lat="53.0285860" lon="-6.2877250">
    <ele>327.3</ele>
    <time>2025-11-02T12:35:15Z</time>
   </trkpt>
   <trkpt lat="53.0286300" lon="-6.2876960">
    <ele>329.1</ele>
    <time>2025-11-02T12:35:27Z</time>
   </trkpt>
   <trkpt lat="53.0286770" lon="-6.2877040">
    <ele>329.5</ele>
    <time>2025-11-02T12:35:32Z</time>
   </trkpt>
   <trkpt lat="53.0287250" lon="-6.2877100">
    <ele>330.1</ele>
    <time>2025-11-02T12:35:42Z</time>
   </trkpt>
   <trkpt lat="53.0287750" lon="-6.2877040">
    <ele>330.7</ele>
    <time>2025-11-02T12:35:50Z</time>
   </trkpt>
   <trkpt lat="53.0288240" lon="-6.2876900">
    <ele>331.0</ele>
    <time>2025-11-02T12:36:02Z</time>
   </trkpt>
   <trkpt lat="53.0288720" lon="-6.2876850">
    <ele>331.3</ele>
    <time>2025-11-02T12:36:07Z</time>
   </trkpt>
   <trkpt lat="53.0289160" lon="-6.2876580">
    <ele>333.7</ele>
    <time>2025-11-02T12:40:32Z</time>
   </trkpt>
   <trkpt lat="53.0289720" lon="-6.2875810">
    <ele>333.2</ele>
    <time>2025-11-02T12:40:38Z</time>
   </trkpt>
   <trkpt lat="53.0290130" lon="-6.2876540">
    <ele>333.0</ele>
    <time>2025-11-02T12:40:43Z</time>
   </trkpt>
   <trkpt lat="53.0290670" lon="-6.2876570">
    <ele>334.0</ele>
    <time>2025-11-02T12:40:59Z</time>
   </trkpt>
   <trkpt lat="53.0291300" lon="-6.2876850">
    <ele>334.5</ele>
    <time>2025-11-02T12:41:05Z</time>
   </trkpt>
   <trkpt lat="53.0291740" lon="-6.2877060">
    <ele>335.5</ele>
    <time>2025-11-02T12:41:13Z</time>
   </trkpt>
   <trkpt lat="53.0292220" lon="-6.2877170">
    <ele>335.9</ele>
    <time>2025-11-02T12:41:19Z</time>
   </trkpt>
   <trkpt lat="53.0292720" lon="-6.2877160">
    <ele>337.1</ele>
    <time>2025-11-02T12:41:30Z</time>
   </trkpt>
   <trkpt lat="53.0293170" lon="-6.2877070">
    <ele>337.4</ele>
    <time>2025-11-02T12:41:36Z</time>
   </trkpt>
   <trkpt lat="53.0293780" lon="-6.2877240">
    <ele>338.0</ele>
    <time>2025-11-02T12:41:42Z</time>
   </trkpt>
   <trkpt lat="53.0294680" lon="-6.2877790">
    <ele>338.7</ele>
    <time>2025-11-02T12:41:47Z</time>
   </trkpt>
   <trkpt lat="53.0295420" lon="-6.2878190">
    <ele>339.4</ele>
    <time>2025-11-02T12:41:52Z</time>
   </trkpt>
   <trkpt lat="53.0295920" lon="-6.2878410">
    <ele>340.2</ele>
    <time>2025-11-02T12:41:58Z</time>
   </trkpt>
   <trkpt lat="53.0296480" lon="-6.2878490">
    <ele>340.7</ele>
    <time>2025-11-02T12:42:03Z</time>
   </trkpt>
   <trkpt lat="53.0297160" lon="-6.2878670">
    <ele>341.3</ele>
    <time>2025-11-02T12:42:09Z</time>
   </trkpt>
   <trkpt lat="53.0297750" lon="-6.2878800">
    <ele>341.9</ele>
    <time>2025-11-02T12:42:14Z</time>
   </trkpt>
   <trkpt lat="53.0298340" lon="-6.2878980">
    <ele>342.3</ele>
    <time>2025-11-02T12:42:19Z</time>
   </trkpt>
   <trkpt lat="53.0298950" lon="-6.2879340">
    <ele>342.7</ele>
    <time>2025-11-02T12:42:25Z</time>
   </trkpt>
   <trkpt lat="53.0299470" lon="-6.2879670">
    <ele>343.1</ele>
    <time>2025-11-02T12:42:31Z</time>
   </trkpt>
   <trkpt lat="53.0299920" lon="-6.2879860">
    <ele>343.8</ele>
    <time>2025-11-02T12:42:38Z</time>
   </trkpt>
   <trkpt lat="53.0300390" lon="-6.2879900">
    <ele>346.0</ele>
    <time>2025-11-02T12:43:02Z</time>
   </trkpt>
   <trkpt lat="53.0300810" lon="-6.2880170">
    <ele>346.1</ele>
    <time>2025-11-02T12:43:12Z</time>
   </trkpt>
   <trkpt lat="53.0301190" lon="-6.2880600">
    <ele>346.7</ele>
    <time>2025-11-02T12:43:19Z</time>
   </trkpt>
   <trkpt lat="53.0301650" lon="-6.2880840">
    <ele>347.8</ele>
    <time>2025-11-02T12:43:28Z</time>
   </trkpt>
   <trkpt lat="53.0302140" lon="-6.2880890">
    <ele>349.0</ele>
    <time>2025-11-02T12:43:35Z</time>
   </trkpt>
   <trkpt lat="53.0302600" lon="-6.2880800">
    <ele>349.4</ele>
    <time>2025-11-02T12:43:42Z</time>
   </trkpt>
   <trkpt lat="53.0303100" lon="-6.2880860">
    <ele>350.0</ele>
    <time>2025-11-02T12:43:47Z</time>
   </trkpt>
   <trkpt lat="53.0303620" lon="-6.2880740">
    <ele>350.8</ele>
    <time>2025-11-02T12:43:57Z</time>
   </trkpt>
   <trkpt lat="53.0304210" lon="-6.2880930">
    <ele>351.7</ele>
    <time>2025-11-02T12:44:03Z</time>
   </trkpt>
   <trkpt lat="53.0304700" lon="-6.2880910">
    <ele>352.2</ele>
    <time>2025-11-02T12:44:08Z</time>
   </trkpt>
   <trkpt lat="53.0305270" lon="-6.2880670">
    <ele>352.8</ele>
    <time>2025-11-02T12:44:13Z</time>
   </trkpt>
   <trkpt lat="53.0305880" lon="-6.2880500">
    <ele>353.3</ele>
    <time>2025-11-02T12:44:19Z</time>
   </trkpt>
   <trkpt lat="53.0306460" lon="-6.2880250">
    <ele>353.3</ele>
    <time>2025-11-02T12:44:24Z</time>
   </trkpt>
   <trkpt lat="53.0306970" lon="-6.2880220">
    <ele>353.5</ele>
    <time>2025-11-02T12:44:30Z</time>
   </trkpt>
   <trkpt lat="53.0307470" lon="-6.2880070">
    <ele>354.6</ele>
    <time>2025-11-02T12:44:36Z</time>
   </trkpt>
   <trkpt lat="53.0307970" lon="-6.2879970">
    <ele>356.2</ele>
    <time>2025-11-02T12:44:51Z</time>
   </trkpt>
   <trkpt lat="53.0308420" lon="-6.2879730">
    <ele>356.4</ele>
    <time>2025-11-02T12:45:08Z</time>
   </trkpt>
   <trkpt lat="53.0309050" lon="-6.2879670">
    <ele>356.6</ele>
    <time>2025-11-02T12:45:13Z</time>
   </trkpt>
   <trkpt lat="53.0309550" lon="-6.2879710">
    <ele>356.8</ele>
    <time>2025-11-02T12:45:19Z</time>
   </trkpt>
   <trkpt lat="53.0309840" lon="-6.2880280">
    <ele>358.1</ele>
    <time>2025-11-02T12:45:43Z</time>
   </trkpt>
   <trkpt lat="53.0309470" lon="-6.2879810">
    <ele>355.2</ele>
    <time>2025-11-02T12:52:53Z</time>
   </trkpt>
   <trkpt lat="53.0309850" lon="-6.2880240">
    <ele>355.0</ele>
    <time>2025-11-02T12:55:04Z</time>
   </trkpt>
   <trkpt lat="53.0309810" lon="-6.2879480">
    <ele>357.5</ele>
    <time>2025-11-02T13:21:34Z</time>
   </trkpt>
   <trkpt lat="53.0309330" lon="-6.2879440">
    <ele>357.9</ele>
    <time>2025-11-02T13:22:31Z</time>
   </trkpt>
   <trkpt lat="53.0308830" lon="-6.2879620">
    <ele>357.2</ele>
    <time>2025-11-02T13:22:47Z</time>
   </trkpt>
   <trkpt lat="53.0308330" lon="-6.2879890">
    <ele>357.0</ele>
    <time>2025-11-02T13:22:52Z</time>
   </trkpt>
   <trkpt lat="53.0307840" lon="-6.2879900">
    <ele>356.8</ele>
    <time>2025-11-02T13:22:58Z</time>
   </trkpt>
   <trkpt lat="53.0307360" lon="-6.2879920">
    <ele>356.6</ele>
    <time>2025-11-02T13:23:03Z</time>
   </trkpt>
   <trkpt lat="53.0306840" lon="-6.2879920">
    <ele>356.1</ele>
    <time>2025-11-02T13:23:09Z</time>
   </trkpt>
   <trkpt lat="53.0306330" lon="-6.2879900">
    <ele>355.6</ele>
    <time>2025-11-02T13:23:15Z</time>
   </trkpt>
   <trkpt lat="53.0305890" lon="-6.2880100">
    <ele>355.1</ele>
    <time>2025-11-02T13:23:20Z</time>
   </trkpt>
   <trkpt lat="53.0305430" lon="-6.2880150">
    <ele>354.5</ele>
    <time>2025-11-02T13:23:26Z</time>
   </trkpt>
   <trkpt lat="53.0304890" lon="-6.2880370">
    <ele>354.3</ele>
    <time>2025-11-02T13:23:31Z</time>
   </trkpt>
   <trkpt lat="53.0304410" lon="-6.2880430">
    <ele>353.5</ele>
    <time>2025-11-02T13:23:37Z</time>
   </trkpt>
   <trkpt lat="53.0303910" lon="-6.2880300">
    <ele>353.2</ele>
    <time>2025-11-02T13:23:42Z</time>
   </trkpt>
   <trkpt lat="53.0303440" lon="-6.2880440">
    <ele>352.7</ele>
    <time>2025-11-02T13:23:48Z</time>
   </trkpt>
   <trkpt lat="53.0302970" lon="-6.2880380">
    <ele>351.9</ele>
    <time>2025-11-02T13:23:54Z</time>
   </trkpt>
   <trkpt lat="53.0302470" lon="-6.2880260">
    <ele>351.8</ele>
    <time>2025-11-02T13:24:01Z</time>
   </trkpt>
   <trkpt lat="53.0302000" lon="-6.2880230">
    <ele>351.3</ele>
    <time>2025-11-02T13:24:09Z</time>
   </trkpt>
   <trkpt lat="53.0301570" lon="-6.2879990">
    <ele>350.2</ele>
    <time>2025-11-02T13:24:16Z</time>
   </trkpt>
   <trkpt lat="53.0301120" lon="-6.2879860">
    <ele>348.9</ele>
    <time>2025-11-02T13:24:27Z</time>
   </trkpt>
   <trkpt lat="53.0300640" lon="-6.2879530">
    <ele>348.2</ele>
    <time>2025-11-02T13:24:33Z</time>
   </trkpt>
   <trkpt lat="53.0300190" lon="-6.2879380">
    <ele>347.5</ele>
    <time>2025-11-02T13:24:41Z</time>
   </trkpt>
   <trkpt lat="53.0299670" lon="-6.2879370">
    <ele>346.5</ele>
    <time>2025-11-02T13:24:49Z</time>
   </trkpt>
   <trkpt lat="53.0299180" lon="-6.2879260">
    <ele>345.1</ele>
    <time>2025-11-02T13:24:57Z</time>
   </trkpt>
   <trkpt lat="53.0298770" lon="-6.2878790">
    <ele>344.2</ele>
    <time>2025-11-02T13:25:04Z</time>
   </trkpt>
   <trkpt lat="53.0298250" lon="-6.2878810">
    <ele>344.2</ele>
    <time>2025-11-02T13:25:09Z</time>
   </trkpt>
   <trkpt lat="53.0297770" lon="-6.2878720">
    <ele>343.8</ele>
    <time>2025-11-02T13:25:15Z</time>
   </trkpt>
   <trkpt lat="53.0297300" lon="-6.2878620">
    <ele>342.9</ele>
    <time>2025-11-02T13:25:20Z</time>
   </trkpt>
   <trkpt lat="53.0296830" lon="-6.2878380">
    <ele>342.6</ele>
    <time>2025-11-02T13:25:27Z</time>
   </trkpt>
   <trkpt lat="53.0296340" lon="-6.2878220">
    <ele>342.2</ele>
    <time>2025-11-02T13:25:33Z</time>
   </trkpt>
   <trkpt lat="53.0295870" lon="-6.2878070">
    <ele>341.6</ele>
    <time>2025-11-02T13:25:40Z</time>
   </trkpt>
   <trkpt lat="53.0295440" lon="-6.2877760">
    <ele>340.4</ele>
    <time>2025-11-02T13:25:51Z</time>
   </trkpt>
   <trkpt lat="53.0294990" lon="-6.2877580">
    <ele>340.1</ele>
    <time>2025-11-02T13:25:57Z</time>
   </trkpt>
   <trkpt lat="53.0294500" lon="-6.2877360">
    <ele>339.9</ele>
    <time>2025-11-02T13:26:04Z</time>
   </trkpt>
   <trkpt lat="53.0294050" lon="-6.2877220">
    <ele>338.8</ele>
    <time>2025-11-02T13:26:12Z</time>
   </trkpt>
   <trkpt lat="53.0293560" lon="-6.2877050">
    <ele>338.1</ele>
    <time>2025-11-02T13:26:18Z</time>
   </trkpt>
   <trkpt lat="53.0293100" lon="-6.2876810">
    <ele>337.5</ele>
    <time>2025-11-02T13:26:27Z</time>
   </trkpt>
   <trkpt lat="53.0292650" lon="-6.2876700">
    <ele>337.0</ele>
    <time>2025-11-02T13:26:32Z</time>
   </trkpt>
   <trkpt lat="53.0292210" lon="-6.2876520">
    <ele>336.4</ele>
    <time>2025-11-02T13:26:38Z</time>
   </trkpt>
   <trkpt lat="53.0291720" lon="-6.2876400">
    <ele>336.3</ele>
    <time>2025-11-02T13:26:46Z</time>
   </trkpt>
   <trkpt lat="53.0291250" lon="-6.2876320">
    <ele>336.2</ele>
    <time>2025-11-02T13:26:54Z</time>
   </trkpt>
   <trkpt lat="53.0290770" lon="-6.2876210">
    <ele>335.9</ele>
    <time>2025-11-02T13:27:01Z</time>
   </trkpt>
   <trkpt lat="53.0290320" lon="-6.2876000">
    <ele>335.0</ele>
    <time>2025-11-02T13:27:12Z</time>
   </trkpt>
   <trkpt lat="53.0289880" lon="-6.2875750">
    <ele>334.2</ele>
    <time>2025-11-02T13:27:20Z</time>
   </trkpt>
   <trkpt lat="53.0289390" lon="-6.2875780">
    <ele>333.7</ele>
    <time>2025-11-02T13:27:29Z</time>
   </trkpt>
   <trkpt lat="53.0289030" lon="-6.2876260">
    <ele>333.6</ele>
    <time>2025-11-02T13:30:23Z</time>
   </trkpt>
   <trkpt lat="53.0288660" lon="-6.2876660">
    <ele>333.0</ele>
    <time>2025-11-02T13:31:19Z</time>
   </trkpt>
   <trkpt lat="53.0288150" lon="-6.2876660">
    <ele>333.0</ele>
    <time>2025-11-02T13:31:41Z</time>
   </trkpt>
   <trkpt lat="53.0287700" lon="-6.2876730">
    <ele>332.6</ele>
    <time>2025-11-02T13:31:53Z</time>
   </trkpt>
   <trkpt lat="53.0287240" lon="-6.2876730">
    <ele>332.4</ele>
    <time>2025-11-02T13:32:01Z</time>
   </trkpt>
   <trkpt lat="53.0286770" lon="-6.2876680">
    <ele>331.8</ele>
    <time>2025-11-02T13:32:08Z</time>
   </trkpt>
   <trkpt lat="53.0286310" lon="-6.2876770">
    <ele>331.1</ele>
    <time>2025-11-02T13:32:15Z</time>
   </trkpt>
   <trkpt lat="53.0285850" lon="-6.2876860">
    <ele>330.5</ele>
    <time>2025-11-02T13:32:23Z</time>
   </trkpt>
   <trkpt lat="53.0286330" lon="-6.2876900">
    <ele>330.3</ele>
    <time>2025-11-02T13:32:59Z</time>
   </trkpt>
   <trkpt lat="53.0286830" lon="-6.2876860">
    <ele>330.8</ele>
    <time>2025-11-02T13:33:09Z</time>
   </trkpt>
   <trkpt lat="53.0287360" lon="-6.2877000">
    <ele>331.2</ele>
    <time>2025-11-02T13:33:18Z</time>
   </trkpt>
   <trkpt lat="53.0287850" lon="-6.2876910">
    <ele>332.4</ele>
    <time>2025-11-02T13:35:51Z</time>
   </trkpt>
   <trkpt lat="53.0288360" lon="-6.2876830">
    <ele>332.5</ele>
    <time>2025-11-02T13:35:57Z</time>
   </trkpt>
   <trkpt lat="53.0287860" lon="-6.2877010">
    <ele>333.4</ele>
    <time>2025-11-02T13:36:25Z</time>
   </trkpt>
   <trkpt lat="53.0287360" lon="-6.2876940">
    <ele>332.9</ele>
    <time>2025-11-02T13:36:33Z</time>
   </trkpt>
   <trkpt lat="53.0286870" lon="-6.2876780">
    <ele>332.5</ele>
    <time>2025-11-02T13:36:38Z</time>
   </trkpt>
   <trkpt lat="53.0286400" lon="-6.2876710">
    <ele>332.3</ele>
    <time>2025-11-02T13:36:47Z</time>
   </trkpt>
   <trkpt lat="53.0285860" lon="-6.2877090">
    <ele>331.6</ele>
    <time>2025-11-02T13:36:53Z</time>
   </trkpt>
   <trkpt lat="53.0285600" lon="-6.2876400">
    <ele>330.6</ele>
    <time>2025-11-02T13:37:02Z</time>
   </trkpt>
   <trkpt lat="53.0285170" lon="-6.2876050">
    <ele>329.9</ele>
    <time>2025-11-02T13:37:09Z</time>
   </trkpt>
   <trkpt lat="53.0284820" lon="-6.2875570">
    <ele>328.5</ele>
    <time>2025-11-02T13:37:16Z</time>
   </trkpt>
   <trkpt lat="53.0284470" lon="-6.2875070">
    <ele>326.7</ele>
    <time>2025-11-02T13:37:24Z</time>
   </trkpt>
   <trkpt lat="53.0284050" lon="-6.2874310">
    <ele>325.3</ele>
    <time>2025-11-02T13:37:29Z</time>
   </trkpt>
   <trkpt lat="53.0283550" lon="-6.2873510">
    <ele>324.1</ele>
    <time>2025-11-02T13:37:35Z</time>
   </trkpt>
   <trkpt lat="53.0283330" lon="-6.2872480">
    <ele>322.6</ele>
    <time>2025-11-02T13:37:41Z</time>
   </trkpt>
   <trkpt lat="53.0283080" lon="-6.2871590">
    <ele>321.4</ele>
    <time>2025-11-02T13:37:47Z</time>
   </trkpt>
   <trkpt lat="53.0282730" lon="-6.2870630">
    <ele>320.2</ele>
    <time>2025-11-02T13:37:52Z</time>
   </trkpt>
   <trkpt lat="53.0282310" lon="-6.2869920">
    <ele>319.1</ele>
    <time>2025-11-02T13:37:58Z</time>
   </trkpt>
   <trkpt lat="53.0281780" lon="-6.2869330">
    <ele>318.4</ele>
    <time>2025-11-02T13:38:03Z</time>
   </trkpt>
   <trkpt lat="53.0281330" lon="-6.2868730">
    <ele>317.3</ele>
    <time>2025-11-02T13:38:08Z</time>
   </trkpt>
   <trkpt lat="53.0280910" lon="-6.2867930">
    <ele>316.3</ele>
    <time>2025-11-02T13:38:13Z</time>
   </trkpt>
   <trkpt lat="53.0280520" lon="-6.2866970">
    <ele>315.6</ele>
    <time>2025-11-02T13:38:19Z</time>
   </trkpt>
   <trkpt lat="53.0280300" lon="-6.2866130">
    <ele>314.8</ele>
    <time>2025-11-02T13:38:24Z</time>
   </trkpt>
   <trkpt lat="53.0279840" lon="-6.2865280">
    <ele>314.1</ele>
    <time>2025-11-02T13:38:30Z</time>
   </trkpt>
   <trkpt lat="53.0279420" lon="-6.2864500">
    <ele>313.1</ele>
    <time>2025-11-02T13:38:35Z</time>
   </trkpt>
   <trkpt lat="53.0279050" lon="-6.2863670">
    <ele>312.2</ele>
    <time>2025-11-02T13:38:41Z</time>
   </trkpt>
   <trkpt lat="53.0278750" lon="-6.2862660">
    <ele>311.3</ele>
    <time>2025-11-02T13:38:46Z</time>
   </trkpt>
   <trkpt lat="53.0278430" lon="-6.2861770">
    <ele>310.4</ele>
    <time>2025-11-02T13:38:52Z</time>
   </trkpt>
   <trkpt lat="53.0278200" lon="-6.2860830">
    <ele>309.7</ele>
    <time>2025-11-02T13:38:57Z</time>
   </trkpt>
   <trkpt lat="53.0277890" lon="-6.2860020">
    <ele>308.7</ele>
    <time>2025-11-02T13:39:03Z</time>
   </trkpt>
   <trkpt lat="53.0277620" lon="-6.2859200">
    <ele>308.1</ele>
    <time>2025-11-02T13:39:08Z</time>
   </trkpt>
   <trkpt lat="53.0277440" lon="-6.2858350">
    <ele>307.1</ele>
    <time>2025-11-02T13:39:13Z</time>
   </trkpt>
   <trkpt lat="53.0277120" lon="-6.2857430">
    <ele>306.1</ele>
    <time>2025-11-02T13:39:18Z</time>
   </trkpt>
   <trkpt lat="53.0276880" lon="-6.2856590">
    <ele>305.3</ele>
    <time>2025-11-02T13:39:23Z</time>
   </trkpt>
   <trkpt lat="53.0276620" lon="-6.2855900">
    <ele>304.5</ele>
    <time>2025-11-02T13:39:29Z</time>
   </trkpt>
   <trkpt lat="53.0276390" lon="-6.2855220">
    <ele>303.6</ele>
    <time>2025-11-02T13:39:34Z</time>
   </trkpt>
   <trkpt lat="53.0276100" lon="-6.2854560">
    <ele>303.0</ele>
    <time>2025-11-02T13:39:39Z</time>
   </trkpt>
   <trkpt lat="53.0276140" lon="-6.2853810">
    <ele>302.3</ele>
    <time>2025-11-02T13:39:45Z</time>
   </trkpt>
   <trkpt lat="53.0276210" lon="-6.2852920">
    <ele>301.2</ele>
    <time>2025-11-02T13:39:50Z</time>
   </trkpt>
   <trkpt lat="53.0276040" lon="-6.2852180">
    <ele>300.0</ele>
    <time>2025-11-02T13:39:56Z</time>
   </trkpt>
   <trkpt lat="53.0275630" lon="-6.2851410">
    <ele>298.6</ele>
    <time>2025-11-02T13:40:02Z</time>
   </trkpt>
   <trkpt lat="53.0275350" lon="-6.2850710">
    <ele>297.6</ele>
    <time>2025-11-02T13:40:10Z</time>
   </trkpt>
   <trkpt lat="53.0275130" lon="-6.2849620">
    <ele>296.6</ele>
    <time>2025-11-02T13:40:15Z</time>
   </trkpt>
   <trkpt lat="53.0274900" lon="-6.2848830">
    <ele>295.8</ele>
    <time>2025-11-02T13:40:21Z</time>
   </trkpt>
   <trkpt lat="53.0274790" lon="-6.2847800">
    <ele>295.0</ele>
    <time>2025-11-02T13:40:26Z</time>
   </trkpt>
   <trkpt lat="53.0274630" lon="-6.2847060">
    <ele>294.0</ele>
    <time>2025-11-02T13:40:31Z</time>
   </trkpt>
   <trkpt lat="53.0274390" lon="-6.2846260">
    <ele>293.0</ele>
    <time>2025-11-02T13:40:37Z</time>
   </trkpt>
   <trkpt lat="53.0274150" lon="-6.2845620">
    <ele>291.9</ele>
    <time>2025-11-02T13:40:42Z</time>
   </trkpt>
   <trkpt lat="53.0273900" lon="-6.2844860">
    <ele>290.7</ele>
    <time>2025-11-02T13:40:47Z</time>
   </trkpt>
   <trkpt lat="53.0273670" lon="-6.2844150">
    <ele>289.8</ele>
    <time>2025-11-02T13:40:52Z</time>
   </trkpt>
   <trkpt lat="53.0273420" lon="-6.2843250">
    <ele>289.0</ele>
    <time>2025-11-02T13:40:57Z</time>
   </trkpt>
   <trkpt lat="53.0273270" lon="-6.2842310">
    <ele>287.8</ele>
    <time>2025-11-02T13:41:02Z</time>
   </trkpt>
   <trkpt lat="53.0273240" lon="-6.2841460">
    <ele>286.9</ele>
    <time>2025-11-02T13:41:08Z</time>
   </trkpt>
   <trkpt lat="53.0273100" lon="-6.2840580">
    <ele>286.2</ele>
    <time>2025-11-02T13:41:13Z</time>
   </trkpt>
   <trkpt lat="53.0272840" lon="-6.2839870">
    <ele>285.4</ele>
    <time>2025-11-02T13:41:19Z</time>
   </trkpt>
   <trkpt lat="53.0272600" lon="-6.2839190">
    <ele>284.4</ele>
    <time>2025-11-02T13:41:24Z</time>
   </trkpt>
   <trkpt lat="53.0272430" lon="-6.2838360">
    <ele>283.0</ele>
    <time>2025-11-02T13:41:29Z</time>
   </trkpt>
   <trkpt lat="53.0272220" lon="-6.2837690">
    <ele>282.2</ele>
    <time>2025-11-02T13:41:35Z</time>
   </trkpt>
   <trkpt lat="53.0272220" lon="-6.2836910">
    <ele>281.4</ele>
    <time>2025-11-02T13:41:40Z</time>
   </trkpt>
   <trkpt lat="53.0272200" lon="-6.2836080">
    <ele>280.8</ele>
    <time>2025-11-02T13:41:46Z</time>
   </trkpt>
   <trkpt lat="53.0272310" lon="-6.2835090">
    <ele>280.1</ele>
    <time>2025-11-02T13:41:51Z</time>
   </trkpt>
   <trkpt lat="53.0272270" lon="-6.2834080">
    <ele>279.6</ele>
    <time>2025-11-02T13:41:57Z</time>
   </trkpt>
   <trkpt lat="53.0272170" lon="-6.2833160">
    <ele>279.1</ele>
    <time>2025-11-02T13:42:02Z</time>
   </trkpt>
   <trkpt lat="53.0272000" lon="-6.2832200">
    <ele>278.5</ele>
    <time>2025-11-02T13:42:07Z</time>
   </trkpt>
   <trkpt lat="53.0271770" lon="-6.2831350">
    <ele>277.9</ele>
    <time>2025-11-02T13:42:13Z</time>
   </trkpt>
   <trkpt lat="53.0271450" lon="-6.2830570">
    <ele>277.4</ele>
    <time>2025-11-02T13:42:18Z</time>
   </trkpt>
   <trkpt lat="53.0271350" lon="-6.2829790">
    <ele>277.0</ele>
    <time>2025-11-02T13:42:23Z</time>
   </trkpt>
   <trkpt lat="53.0271460" lon="-6.2828980">
    <ele>276.0</ele>
    <time>2025-11-02T13:42:30Z</time>
   </trkpt>
   <trkpt lat="53.0271610" lon="-6.2828150">
    <ele>275.2</ele>
    <time>2025-11-02T13:42:35Z</time>
   </trkpt>
   <trkpt lat="53.0271530" lon="-6.2827360">
    <ele>274.3</ele>
    <time>2025-11-02T13:42:40Z</time>
   </trkpt>
   <trkpt lat="53.0271210" lon="-6.2826750">
    <ele>273.3</ele>
    <time>2025-11-02T13:42:45Z</time>
   </trkpt>
   <trkpt lat="53.0270980" lon="-6.2825890">
    <ele>272.3</ele>
    <time>2025-11-02T13:42:50Z</time>
   </trkpt>
   <trkpt lat="53.0270660" lon="-6.2825060">
    <ele>271.1</ele>
    <time>2025-11-02T13:42:55Z</time>
   </trkpt>
   <trkpt lat="53.0270390" lon="-6.2824270">
    <ele>270.3</ele>
    <time>2025-11-02T13:43:01Z</time>
   </trkpt>
   <trkpt lat="53.0270160" lon="-6.2823470">
    <ele>269.4</ele>
    <time>2025-11-02T13:43:06Z</time>
   </trkpt>
   <trkpt lat="53.0269960" lon="-6.2822690">
    <ele>269.1</ele>
    <time>2025-11-02T13:43:11Z</time>
   </trkpt>
   <trkpt lat="53.0269870" lon="-6.2821920">
    <ele>268.8</ele>
    <time>2025-11-02T13:43:16Z</time>
   </trkpt>
   <trkpt lat="53.0269770" lon="-6.2821140">
    <ele>268.1</ele>
    <time>2025-11-02T13:43:22Z</time>
   </trkpt>
   <trkpt lat="53.0269820" lon="-6.2820210">
    <ele>267.2</ele>
    <time>2025-11-02T13:43:27Z</time>
   </trkpt>
   <trkpt lat="53.0269750" lon="-6.2819400">
    <ele>266.1</ele>
    <time>2025-11-02T13:43:33Z</time>
   </trkpt>
   <trkpt lat="53.0269720" lon="-6.2818500">
    <ele>265.2</ele>
    <time>2025-11-02T13:43:38Z</time>
   </trkpt>
   <trkpt lat="53.0269680" lon="-6.2817660">
    <ele>264.5</ele>
    <time>2025-11-02T13:43:43Z</time>
   </trkpt>
   <trkpt lat="53.0269660" lon="-6.2816820">
    <ele>263.3</ele>
    <time>2025-11-02T13:43:49Z</time>
   </trkpt>
   <trkpt lat="53.0269780" lon="-6.2816040">
    <ele>262.2</ele>
    <time>2025-11-02T13:43:55Z</time>
   </trkpt>
   <trkpt lat="53.0269640" lon="-6.2815320">
    <ele>261.2</ele>
    <time>2025-11-02T13:44:03Z</time>
   </trkpt>
   <trkpt lat="53.0269480" lon="-6.2814510">
    <ele>259.4</ele>
    <time>2025-11-02T13:45:35Z</time>
   </trkpt>
   <trkpt lat="53.0269620" lon="-6.2813230">
    <ele>258.8</ele>
    <time>2025-11-02T13:45:41Z</time>
   </trkpt>
   <trkpt lat="53.0270010" lon="-6.2812230">
    <ele>258.7</ele>
    <time>2025-11-02T13:45:46Z</time>
   </trkpt>
   <trkpt lat="53.0270240" lon="-6.2811550">
    <ele>259.0</ele>
    <time>2025-11-02T13:45:53Z</time>
   </trkpt>
   <trkpt lat="53.0270550" lon="-6.2810840">
    <ele>258.3</ele>
    <time>2025-11-02T13:46:29Z</time>
   </trkpt>
   <trkpt lat="53.0270890" lon="-6.2809880">
    <ele>258.0</ele>
    <time>2025-11-02T13:46:34Z</time>
   </trkpt>
   <trkpt lat="53.0271460" lon="-6.2809340">
    <ele>257.9</ele>
    <time>2025-11-02T13:46:39Z</time>
   </trkpt>
   <trkpt lat="53.0272190" lon="-6.2808630">
    <ele>257.6</ele>
    <time>2025-11-02T13:46:45Z</time>
   </trkpt>
   <trkpt lat="53.0272820" lon="-6.2808030">
    <ele>257.3</ele>
    <time>2025-11-02T13:46:50Z</time>
   </trkpt>
   <trkpt lat="53.0273350" lon="-6.2807360">
    <ele>257.8</ele>
    <time>2025-11-02T13:46:55Z</time>
   </trkpt>
   <trkpt lat="53.0273920" lon="-6.2806760">
    <ele>258.0</ele>
    <time>2025-11-02T13:47:01Z</time>
   </trkpt>
   <trkpt lat="53.0274420" lon="-6.2806140">
    <ele>257.8</ele>
    <time>2025-11-02T13:47:06Z</time>
   </trkpt>
   <trkpt lat="53.0275010" lon="-6.2805460">
    <ele>257.9</ele>
    <time>2025-11-02T13:47:11Z</time>
   </trkpt>
   <trkpt lat="53.0275540" lon="-6.2804760">
    <ele>258.5</ele>
    <time>2025-11-02T13:47:16Z</time>
   </trkpt>
   <trkpt lat="53.0276110" lon="-6.2803990">
    <ele>258.5</ele>
    <time>2025-11-02T13:47:21Z</time>
   </trkpt>
   <trkpt lat="53.0276500" lon="-6.2803140">
    <ele>258.3</ele>
    <time>2025-11-02T13:47:26Z</time>
   </trkpt>
   <trkpt lat="53.0276920" lon="-6.2802440">
    <ele>258.4</ele>
    <time>2025-11-02T13:47:32Z</time>
   </trkpt>
   <trkpt lat="53.0277300" lon="-6.2801600">
    <ele>258.2</ele>
    <time>2025-11-02T13:47:37Z</time>
   </trkpt>
   <trkpt lat="53.0277900" lon="-6.2800870">
    <ele>258.1</ele>
    <time>2025-11-02T13:47:42Z</time>
   </trkpt>
   <trkpt lat="53.0278350" lon="-6.2799880">
    <ele>258.1</ele>
    <time>2025-11-02T13:47:47Z</time>
   </trkpt>
   <trkpt lat="53.0278830" lon="-6.2799020">
    <ele>258.1</ele>
    <time>2025-11-02T13:47:52Z</time>
   </trkpt>
   <trkpt lat="53.0279170" lon="-6.2798410">
    <ele>257.8</ele>
    <time>2025-11-02T13:47:59Z</time>
   </trkpt>
   <trkpt lat="53.0279470" lon="-6.2797270">
    <ele>257.4</ele>
    <time>2025-11-02T13:48:04Z</time>
   </trkpt>
   <trkpt lat="53.0279910" lon="-6.2796590">
    <ele>256.9</ele>
    <time>2025-11-02T13:48:09Z</time>
   </trkpt>
   <trkpt lat="53.0280240" lon="-6.2795770">
    <ele>255.9</ele>
    <time>2025-11-02T13:48:15Z</time>
   </trkpt>
   <trkpt lat="53.0280540" lon="-6.2794860">
    <ele>255.6</ele>
    <time>2025-11-02T13:48:20Z</time>
   </trkpt>
   <trkpt lat="53.0280820" lon="-6.2793990">
    <ele>255.5</ele>
    <time>2025-11-02T13:48:25Z</time>
   </trkpt>
   <trkpt lat="53.0281190" lon="-6.2793140">
    <ele>255.3</ele>
    <time>2025-11-02T13:48:31Z</time>
   </trkpt>
   <trkpt lat="53.0281480" lon="-6.2792290">
    <ele>255.4</ele>
    <time>2025-11-02T13:48:36Z</time>
   </trkpt>
   <trkpt lat="53.0281680" lon="-6.2791450">
    <ele>255.6</ele>
    <time>2025-11-02T13:48:41Z</time>
   </trkpt>
   <trkpt lat="53.0282150" lon="-6.2790690">
    <ele>255.8</ele>
    <time>2025-11-02T13:48:47Z</time>
   </trkpt>
   <trkpt lat="53.0282460" lon="-6.2789890">
    <ele>257.6</ele>
    <time>2025-11-02T13:48:52Z</time>
   </trkpt>
   <trkpt lat="53.0282930" lon="-6.2789080">
    <ele>256.5</ele>
    <time>2025-11-02T13:48:57Z</time>
   </trkpt>
   <trkpt lat="53.0283430" lon="-6.2788390">
    <ele>255.3</ele>
    <time>2025-11-02T13:49:02Z</time>
   </trkpt>
   <trkpt lat="53.0283870" lon="-6.2787700">
    <ele>254.7</ele>
    <time>2025-11-02T13:49:08Z</time>
   </trkpt>
   <trkpt lat="53.0284260" lon="-6.2786890">
    <ele>254.1</ele>
    <time>2025-11-02T13:49:13Z</time>
   </trkpt>
   <trkpt lat="53.0284790" lon="-6.2786110">
    <ele>253.3</ele>
    <time>2025-11-02T13:49:18Z</time>
   </trkpt>
   <trkpt lat="53.0285180" lon="-6.2785290">
    <ele>254.0</ele>
    <time>2025-11-02T13:49:24Z</time>
   </trkpt>
   <trkpt lat="53.0285310" lon="-6.2784370">
    <ele>254.9</ele>
    <time>2025-11-02T13:49:29Z</time>
   </trkpt>
   <trkpt lat="53.0285790" lon="-6.2783670">
    <ele>254.9</ele>
    <time>2025-11-02T13:49:34Z</time>
   </trkpt>
   <trkpt lat="53.0286120" lon="-6.2782890">
    <ele>254.4</ele>
    <time>2025-11-02T13:49:40Z</time>
   </trkpt>
   <trkpt lat="53.0286520" lon="-6.2782110">
    <ele>254.2</ele>
    <time>2025-11-02T13:49:45Z</time>
   </trkpt>
   <trkpt lat="53.0286900" lon="-6.2781240">
    <ele>253.0</ele>
    <time>2025-11-02T13:49:50Z</time>
   </trkpt>
   <trkpt lat="53.0287320" lon="-6.2780580">
    <ele>253.5</ele>
    <time>2025-11-02T13:49:55Z</time>
   </trkpt>
   <trkpt lat="53.0287680" lon="-6.2779730">
    <ele>253.7</ele>
    <time>2025-11-02T13:50:01Z</time>
   </trkpt>
   <trkpt lat="53.0288030" lon="-6.2778920">
    <ele>253.5</ele>
    <time>2025-11-02T13:50:06Z</time>
   </trkpt>
   <trkpt lat="53.0288330" lon="-6.2778140">
    <ele>253.4</ele>
    <time>2025-11-02T13:50:11Z</time>
   </trkpt>
   <trkpt lat="53.0288750" lon="-6.2777560">
    <ele>253.5</ele>
    <time>2025-11-02T13:50:16Z</time>
   </trkpt>
   <trkpt lat="53.0289240" lon="-6.2777070">
    <ele>253.3</ele>
    <time>2025-11-02T13:50:22Z</time>
   </trkpt>
   <trkpt lat="53.0289550" lon="-6.2776330">
    <ele>253.0</ele>
    <time>2025-11-02T13:50:27Z</time>
   </trkpt>
   <trkpt lat="53.0290050" lon="-6.2775590">
    <ele>252.7</ele>
    <time>2025-11-02T13:50:33Z</time>
   </trkpt>
   <trkpt lat="53.0290440" lon="-6.2774820">
    <ele>252.7</ele>
    <time>2025-11-02T13:50:38Z</time>
   </trkpt>
   <trkpt lat="53.0290870" lon="-6.2774160">
    <ele>252.9</ele>
    <time>2025-11-02T13:50:43Z</time>
   </trkpt>
   <trkpt lat="53.0291320" lon="-6.2773930">
    <ele>253.4</ele>
    <time>2025-11-02T13:50:49Z</time>
   </trkpt>
   <trkpt lat="53.0291710" lon="-6.2773390">
    <ele>253.6</ele>
    <time>2025-11-02T13:50:54Z</time>
   </trkpt>
   <trkpt lat="53.0292150" lon="-6.2772260">
    <ele>253.5</ele>
    <time>2025-11-02T13:51:00Z</time>
   </trkpt>
   <trkpt lat="53.0292600" lon="-6.2771570">
    <ele>253.6</ele>
    <time>2025-11-02T13:51:05Z</time>
   </trkpt>
   <trkpt lat="53.0293110" lon="-6.2770980">
    <ele>253.5</ele>
    <time>2025-11-02T13:51:11Z</time>
   </trkpt>
   <trkpt lat="53.0293570" lon="-6.2770330">
    <ele>253.4</ele>
    <time>2025-11-02T13:51:17Z</time>
   </trkpt>
   <trkpt lat="53.0294040" lon="-6.2769660">
    <ele>253.7</ele>
    <time>2025-11-02T13:51:22Z</time>
   </trkpt>
   <trkpt lat="53.0294330" lon="-6.2769010">
    <ele>254.1</ele>
    <time>2025-11-02T13:51:27Z</time>
   </trkpt>
   <trkpt lat="53.0294490" lon="-6.2768220">
    <ele>254.8</ele>
    <time>2025-11-02T13:53:25Z</time>
   </trkpt>
   <trkpt lat="53.0294550" lon="-6.2767460">
    <ele>254.6</ele>
    <time>2025-11-02T13:53:31Z</time>
   </trkpt>
   <trkpt lat="53.0294680" lon="-6.2766560">
    <ele>254.2</ele>
    <time>2025-11-02T13:53:36Z</time>
   </trkpt>
   <trkpt lat="53.0294850" lon="-6.2765770">
    <ele>254.1</ele>
    <time>2025-11-02T13:53:42Z</time>
   </trkpt>
   <trkpt lat="53.0295030" lon="-6.2765000">
    <ele>253.7</ele>
    <time>2025-11-02T13:53:47Z</time>
   </trkpt>
   <trkpt lat="53.0295240" lon="-6.2764210">
    <ele>253.4</ele>
    <time>2025-11-02T13:53:53Z</time>
   </trkpt>
   <trkpt lat="53.0295380" lon="-6.2763330">
    <ele>253.2</ele>
    <time>2025-11-02T13:53:58Z</time>
   </trkpt>
   <trkpt lat="53.0295570" lon="-6.2762480">
    <ele>253.2</ele>
    <time>2025-11-02T13:54:03Z</time>
   </trkpt>
   <trkpt lat="53.0295820" lon="-6.2761610">
    <ele>253.0</ele>
    <time>2025-11-02T13:54:09Z</time>
   </trkpt>
   <trkpt lat="53.0295940" lon="-6.2760700">
    <ele>252.4</ele>
    <time>2025-11-02T13:54:14Z</time>
   </trkpt>
   <trkpt lat="53.0296130" lon="-6.2759770">
    <ele>252.0</ele>
    <time>2025-11-02T13:54:20Z</time>
   </trkpt>
   <trkpt lat="53.0296320" lon="-6.2758860">
    <ele>251.4</ele>
    <time>2025-11-02T13:54:25Z</time>
   </trkpt>
   <trkpt lat="53.0296550" lon="-6.2757910">
    <ele>251.3</ele>
    <time>2025-11-02T13:54:31Z</time>
   </trkpt>
   <trkpt lat="53.0296720" lon="-6.2757010">
    <ele>250.9</ele>
    <time>2025-11-02T13:54:36Z</time>
   </trkpt>
   <trkpt lat="53.0296910" lon="-6.2756070">
    <ele>250.5</ele>
    <time>2025-11-02T13:54:42Z</time>
   </trkpt>
   <trkpt lat="53.0297160" lon="-6.2755100">
    <ele>250.6</ele>
    <time>2025-11-02T13:54:47Z</time>
   </trkpt>
   <trkpt lat="53.0297340" lon="-6.2754110">
    <ele>250.2</ele>
    <time>2025-11-02T13:54:52Z</time>
   </trkpt>
   <trkpt lat="53.0297510" lon="-6.2753200">
    <ele>249.8</ele>
    <time>2025-11-02T13:54:58Z</time>
   </trkpt>
   <trkpt lat="53.0297690" lon="-6.2752250">
    <ele>249.1</ele>
    <time>2025-11-02T13:55:03Z</time>
   </trkpt>
   <trkpt lat="53.0297840" lon="-6.2751320">
    <ele>248.8</ele>
    <time>2025-11-02T13:55:08Z</time>
   </trkpt>
   <trkpt lat="53.0298080" lon="-6.2750300">
    <ele>248.2</ele>
    <time>2025-11-02T13:55:14Z</time>
   </trkpt>
   <trkpt lat="53.0298290" lon="-6.2749370">
    <ele>247.9</ele>
    <time>2025-11-02T13:55:19Z</time>
   </trkpt>
   <trkpt lat="53.0298490" lon="-6.2748440">
    <ele>247.7</ele>
    <time>2025-11-02T13:55:24Z</time>
   </trkpt>
   <trkpt lat="53.0298660" lon="-6.2747430">
    <ele>247.3</ele>
    <time>2025-11-02T13:55:30Z</time>
   </trkpt>
   <trkpt lat="53.0298890" lon="-6.2746520">
    <ele>246.9</ele>
    <time>2025-11-02T13:55:35Z</time>
   </trkpt>
   <trkpt lat="53.0299080" lon="-6.2745550">
    <ele>246.7</ele>
    <time>2025-11-02T13:55:41Z</time>
   </trkpt>
   <trkpt lat="53.0299320" lon="-6.2744680">
    <ele>246.3</ele>
    <time>2025-11-02T13:55:46Z</time>
   </trkpt>
   <trkpt lat="53.0299510" lon="-6.2743630">
    <ele>245.9</ele>
    <time>2025-11-02T13:55:52Z</time>
   </trkpt>
   <trkpt lat="53.0299680" lon="-6.2742730">
    <ele>245.7</ele>
    <time>2025-11-02T13:55:57Z</time>
   </trkpt>
   <trkpt lat="53.0299840" lon="-6.2741700">
    <ele>245.4</ele>
    <time>2025-11-02T13:56:02Z</time>
   </trkpt>
   <trkpt lat="53.0300040" lon="-6.2740720">
    <ele>245.4</ele>
    <time>2025-11-02T13:56:08Z</time>
   </trkpt>
   <trkpt lat="53.0300230" lon="-6.2739770">
    <ele>245.1</ele>
    <time>2025-11-02T13:56:13Z</time>
   </trkpt>
   <trkpt lat="53.0300510" lon="-6.2738810">
    <ele>244.8</ele>
    <time>2025-11-02T13:56:19Z</time>
   </trkpt>
   <trkpt lat="53.0300650" lon="-6.2737750">
    <ele>244.3</ele>
    <time>2025-11-02T13:56:24Z</time>
   </trkpt>
   <trkpt lat="53.0300860" lon="-6.2736870">
    <ele>244.0</ele>
    <time>2025-11-02T13:56:29Z</time>
   </trkpt>
   <trkpt lat="53.0301060" lon="-6.2735810">
    <ele>243.7</ele>
    <time>2025-11-02T13:56:35Z</time>
   </trkpt>
   <trkpt lat="53.0301220" lon="-6.2734800">
    <ele>243.1</ele>
    <time>2025-11-02T13:56:40Z</time>
   </trkpt>
   <trkpt lat="53.0301460" lon="-6.2733830">
    <ele>242.7</ele>
    <time>2025-11-02T13:56:45Z</time>
   </trkpt>
   <trkpt lat="53.0301620" lon="-6.2732770">
    <ele>242.7</ele>
    <time>2025-11-02T13:56:51Z</time>
   </trkpt>
   <trkpt lat="53.0301820" lon="-6.2731780">
    <ele>242.8</ele>
    <time>2025-11-02T13:56:56Z</time>
   </trkpt>
   <trkpt lat="53.0302010" lon="-6.2730770">
    <ele>242.8</ele>
    <time>2025-11-02T13:57:01Z</time>
   </trkpt>
   <trkpt lat="53.0302260" lon="-6.2729740">
    <ele>242.4</ele>
    <time>2025-11-02T13:57:07Z</time>
   </trkpt>
   <trkpt lat="53.0302440" lon="-6.2728690">
    <ele>242.0</ele>
    <time>2025-11-02T13:57:12Z</time>
   </trkpt>
   <trkpt lat="53.0302660" lon="-6.2727720">
    <ele>241.7</ele>
    <time>2025-11-02T13:57:17Z</time>
   </trkpt>
   <trkpt lat="53.0302850" lon="-6.2726730">
    <ele>241.4</ele>
    <time>2025-11-02T13:57:23Z</time>
   </trkpt>
   <trkpt lat="53.0303130" lon="-6.2725730">
    <ele>240.9</ele>
    <time>2025-11-02T13:57:28Z</time>
   </trkpt>
   <trkpt lat="53.0303300" lon="-6.2724610">
    <ele>240.2</ele>
    <time>2025-11-02T13:57:34Z</time>
   </trkpt>
   <trkpt lat="53.0303500" lon="-6.2723730">
    <ele>239.7</ele>
    <time>2025-11-02T13:57:39Z</time>
   </trkpt>
   <trkpt lat="53.0303700" lon="-6.2722670">
    <ele>239.4</ele>
    <time>2025-11-02T13:57:44Z</time>
   </trkpt>
   <trkpt lat="53.0303930" lon="-6.2721710">
    <ele>239.1</ele>
    <time>2025-11-02T13:57:49Z</time>
   </trkpt>
   <trkpt lat="53.0304110" lon="-6.2720690">
    <ele>238.7</ele>
    <time>2025-11-02T13:57:55Z</time>
   </trkpt>
   <trkpt lat="53.0304330" lon="-6.2719680">
    <ele>238.1</ele>
    <time>2025-11-02T13:58:00Z</time>
   </trkpt>
   <trkpt lat="53.0304520" lon="-6.2718700">
    <ele>237.9</ele>
    <time>2025-11-02T13:58:05Z</time>
   </trkpt>
   <trkpt lat="53.0304600" lon="-6.2717690">
    <ele>237.6</ele>
    <time>2025-11-02T13:58:10Z</time>
   </trkpt>
   <trkpt lat="53.0304830" lon="-6.2716650">
    <ele>237.3</ele>
    <time>2025-11-02T13:58:16Z</time>
   </trkpt>
   <trkpt lat="53.0305070" lon="-6.2715700">
    <ele>236.8</ele>
    <time>2025-11-02T13:58:21Z</time>
   </trkpt>
   <trkpt lat="53.0305260" lon="-6.2714760">
    <ele>236.2</ele>
    <time>2025-11-02T13:58:27Z</time>
   </trkpt>
   <trkpt lat="53.0305430" lon="-6.2713880">
    <ele>236.0</ele>
    <time>2025-11-02T13:58:32Z</time>
   </trkpt>
   <trkpt lat="53.0305620" lon="-6.2713010">
    <ele>235.7</ele>
    <time>2025-11-02T13:58:38Z</time>
   </trkpt>
   <trkpt lat="53.0305810" lon="-6.2712020">
    <ele>235.3</ele>
    <time>2025-11-02T13:58:43Z</time>
   </trkpt>
   <trkpt lat="53.0305970" lon="-6.2711050">
    <ele>234.9</ele>
    <time>2025-11-02T13:58:48Z</time>
   </trkpt>
   <trkpt lat="53.0306120" lon="-6.2710110">
    <ele>234.4</ele>
    <time>2025-11-02T13:58:54Z</time>
   </trkpt>
   <trkpt lat="53.0306320" lon="-6.2709200">
    <ele>234.1</ele>
    <time>2025-11-02T13:58:59Z</time>
   </trkpt>
   <trkpt lat="53.0306440" lon="-6.2708240">
    <ele>233.5</ele>
    <time>2025-11-02T13:59:04Z</time>
   </trkpt>
   <trkpt lat="53.0306660" lon="-6.2707280">
    <ele>233.0</ele>
    <time>2025-11-02T13:59:10Z</time>
   </trkpt>
   <trkpt lat="53.0306860" lon="-6.2706300">
    <ele>232.5</ele>
    <time>2025-11-02T13:59:15Z</time>
   </trkpt>
   <trkpt lat="53.0307060" lon="-6.2705280">
    <ele>232.0</ele>
    <time>2025-11-02T13:59:21Z</time>
   </trkpt>
   <trkpt lat="53.0307240" lon="-6.2704200">
    <ele>231.4</ele>
    <time>2025-11-02T13:59:26Z</time>
   </trkpt>
   <trkpt lat="53.0307360" lon="-6.2703420">
    <ele>231.0</ele>
    <time>2025-11-02T13:59:31Z</time>
   </trkpt>
   <trkpt lat="53.0307540" lon="-6.2702450">
    <ele>230.6</ele>
    <time>2025-11-02T13:59:37Z</time>
   </trkpt>
   <trkpt lat="53.0307700" lon="-6.2701470">
    <ele>230.1</ele>
    <time>2025-11-02T13:59:42Z</time>
   </trkpt>
   <trkpt lat="53.0307860" lon="-6.2700520">
    <ele>229.7</ele>
    <time>2025-11-02T13:59:48Z</time>
   </trkpt>
   <trkpt lat="53.0307980" lon="-6.2699690">
    <ele>229.4</ele>
    <time>2025-11-02T13:59:53Z</time>
   </trkpt>
   <trkpt lat="53.0308160" lon="-6.2698700">
    <ele>228.8</ele>
    <time>2025-11-02T13:59:58Z</time>
   </trkpt>
   <trkpt lat="53.0308360" lon="-6.2697660">
    <ele>228.3</ele>
    <time>2025-11-02T14:00:03Z</time>
   </trkpt>
   <trkpt lat="53.0308550" lon="-6.2696580">
    <ele>228.3</ele>
    <time>2025-11-02T14:00:09Z</time>
   </trkpt>
   <trkpt lat="53.0308730" lon="-6.2695590">
    <ele>228.1</ele>
    <time>2025-11-02T14:00:14Z</time>
   </trkpt>
   <trkpt lat="53.0308870" lon="-6.2694670">
    <ele>228.1</ele>
    <time>2025-11-02T14:00:19Z</time>
   </trkpt>
   <trkpt lat="53.0309050" lon="-6.2693780">
    <ele>227.6</ele>
    <time>2025-11-02T14:00:25Z</time>
   </trkpt>
   <trkpt lat="53.0309240" lon="-6.2692810">
    <ele>226.9</ele>
    <time>2025-11-02T14:00:30Z</time>
   </trkpt>
   <trkpt lat="53.0309360" lon="-6.2691850">
    <ele>226.6</ele>
    <time>2025-11-02T14:00:35Z</time>
   </trkpt>
   <trkpt lat="53.0309520" lon="-6.2690800">
    <ele>226.5</ele>
    <time>2025-11-02T14:00:40Z</time>
   </trkpt>
   <trkpt lat="53.0309680" lon="-6.2689690">
    <ele>226.4</ele>
    <time>2025-11-02T14:00:46Z</time>
   </trkpt>
   <trkpt lat="53.0309820" lon="-6.2688690">
    <ele>226.2</ele>
    <time>2025-11-02T14:00:51Z</time>
   </trkpt>
   <trkpt lat="53.0309910" lon="-6.2687650">
    <ele>225.8</ele>
    <time>2025-11-02T14:00:56Z</time>
   </trkpt>
   <trkpt lat="53.0310080" lon="-6.2686650">
    <ele>225.1</ele>
    <time>2025-11-02T14:01:02Z</time>
   </trkpt>
   <trkpt lat="53.0310260" lon="-6.2685600">
    <ele>224.9</ele>
    <time>2025-11-02T14:01:07Z</time>
   </trkpt>
   <trkpt lat="53.0310440" lon="-6.2684630">
    <ele>224.9</ele>
    <time>2025-11-02T14:01:12Z</time>
   </trkpt>
   <trkpt lat="53.0310470" lon="-6.2683620">
    <ele>224.7</ele>
    <time>2025-11-02T14:01:17Z</time>
   </trkpt>
   <trkpt lat="53.0310670" lon="-6.2682580">
    <ele>224.6</ele>
    <time>2025-11-02T14:01:23Z</time>
   </trkpt>
   <trkpt lat="53.0310950" lon="-6.2681570">
    <ele>224.4</ele>
    <time>2025-11-02T14:01:28Z</time>
   </trkpt>
   <trkpt lat="53.0311110" lon="-6.2680560">
    <ele>223.8</ele>
    <time>2025-11-02T14:01:33Z</time>
   </trkpt>
   <trkpt lat="53.0311270" lon="-6.2679560">
    <ele>223.5</ele>
    <time>2025-11-02T14:01:38Z</time>
   </trkpt>
   <trkpt lat="53.0311430" lon="-6.2678490">
    <ele>223.2</ele>
    <time>2025-11-02T14:01:44Z</time>
   </trkpt>
   <trkpt lat="53.0311580" lon="-6.2677430">
    <ele>222.7</ele>
    <time>2025-11-02T14:01:49Z</time>
   </trkpt>
   <trkpt lat="53.0311760" lon="-6.2676440">
    <ele>221.5</ele>
    <time>2025-11-02T14:01:54Z</time>
   </trkpt>
   <trkpt lat="53.0311960" lon="-6.2675450">
    <ele>221.5</ele>
    <time>2025-11-02T14:01:59Z</time>
   </trkpt>
   <trkpt lat="53.0312110" lon="-6.2674500">
    <ele>222.0</ele>
    <time>2025-11-02T14:02:05Z</time>
   </trkpt>
   <trkpt lat="53.0312340" lon="-6.2673490">
    <ele>220.7</ele>
    <time>2025-11-02T14:02:10Z</time>
   </trkpt>
   <trkpt lat="53.0312480" lon="-6.2672490">
    <ele>221.3</ele>
    <time>2025-11-02T14:02:15Z</time>
   </trkpt>
   <trkpt lat="53.0312630" lon="-6.2671420">
    <ele>221.6</ele>
    <time>2025-11-02T14:02:20Z</time>
   </trkpt>
   <trkpt lat="53.0312820" lon="-6.2670370">
    <ele>221.0</ele>
    <time>2025-11-02T14:02:26Z</time>
   </trkpt>
   <trkpt lat="53.0313070" lon="-6.2669420">
    <ele>221.2</ele>
    <time>2025-11-02T14:02:31Z</time>
   </trkpt>
   <trkpt lat="53.0313310" lon="-6.2668340">
    <ele>221.7</ele>
    <time>2025-11-02T14:02:36Z</time>
   </trkpt>
   <trkpt lat="53.0313470" lon="-6.2667370">
    <ele>221.3</ele>
    <time>2025-11-02T14:02:42Z</time>
   </trkpt>
   <trkpt lat="53.0313610" lon="-6.2666380">
    <ele>221.2</ele>
    <time>2025-11-02T14:02:47Z</time>
   </trkpt>
   <trkpt lat="53.0313760" lon="-6.2665320">
    <ele>221.3</ele>
    <time>2025-11-02T14:02:52Z</time>
   </trkpt>
   <trkpt lat="53.0313890" lon="-6.2664320">
    <ele>221.2</ele>
    <time>2025-11-02T14:02:57Z</time>
   </trkpt>
   <trkpt lat="53.0314020" lon="-6.2663290">
    <ele>221.3</ele>
    <time>2025-11-02T14:03:03Z</time>
   </trkpt>
   <trkpt lat="53.0314110" lon="-6.2662280">
    <ele>220.5</ele>
    <time>2025-11-02T14:03:08Z</time>
   </trkpt>
   <trkpt lat="53.0314210" lon="-6.2661240">
    <ele>220.1</ele>
    <time>2025-11-02T14:03:13Z</time>
   </trkpt>
   <trkpt lat="53.0314350" lon="-6.2660390">
    <ele>220.0</ele>
    <time>2025-11-02T14:03:19Z</time>
   </trkpt>
   <trkpt lat="53.0314460" lon="-6.2659300">
    <ele>219.9</ele>
    <time>2025-11-02T14:03:24Z</time>
   </trkpt>
   <trkpt lat="53.0314540" lon="-6.2658300">
    <ele>219.9</ele>
    <time>2025-11-02T14:03:29Z</time>
   </trkpt>
   <trkpt lat="53.0314600" lon="-6.2657310">
    <ele>219.5</ele>
    <time>2025-11-02T14:03:34Z</time>
   </trkpt>
   <trkpt lat="53.0314700" lon="-6.2656200">
    <ele>219.3</ele>
    <time>2025-11-02T14:03:40Z</time>
   </trkpt>
   <trkpt lat="53.0314750" lon="-6.2655160">
    <ele>219.6</ele>
    <time>2025-11-02T14:03:45Z</time>
   </trkpt>
   <trkpt lat="53.0314830" lon="-6.2654150">
    <ele>219.8</ele>
    <time>2025-11-02T14:03:50Z</time>
   </trkpt>
   <trkpt lat="53.0314960" lon="-6.2653150">
    <ele>219.8</ele>
    <time>2025-11-02T14:03:56Z</time>
   </trkpt>
   <trkpt lat="53.0315080" lon="-6.2652120">
    <ele>219.9</ele>
    <time>2025-11-02T14:04:01Z</time>
   </trkpt>
   <trkpt lat="53.0315200" lon="-6.2651100">
    <ele>219.9</ele>
    <time>2025-11-02T14:04:06Z</time>
   </trkpt>
   <trkpt lat="53.0315310" lon="-6.2650050">
    <ele>219.9</ele>
    <time>2025-11-02T14:04:12Z</time>
   </trkpt>
   <trkpt lat="53.0315420" lon="-6.2649110">
    <ele>219.9</ele>
    <time>2025-11-02T14:04:17Z</time>
   </trkpt>
   <trkpt lat="53.0315450" lon="-6.2648060">
    <ele>219.9</ele>
    <time>2025-11-02T14:04:22Z</time>
   </trkpt>
   <trkpt lat="53.0315600" lon="-6.2647000">
    <ele>219.9</ele>
    <time>2025-11-02T14:04:28Z</time>
   </trkpt>
   <trkpt lat="53.0315750" lon="-6.2646000">
    <ele>219.9</ele>
    <time>2025-11-02T14:04:33Z</time>
   </trkpt>
   <trkpt lat="53.0315930" lon="-6.2644970">
    <ele>219.9</ele>
    <time>2025-11-02T14:04:39Z</time>
   </trkpt>
   <trkpt lat="53.0316030" lon="-6.2643960">
    <ele>219.4</ele>
    <time>2025-11-02T14:04:44Z</time>
   </trkpt>
   <trkpt lat="53.0316180" lon="-6.2642920">
    <ele>219.1</ele>
    <time>2025-11-02T14:04:49Z</time>
   </trkpt>
   <trkpt lat="53.0316300" lon="-6.2641830">
    <ele>219.9</ele>
    <time>2025-11-02T14:04:54Z</time>
   </trkpt>
   <trkpt lat="53.0316410" lon="-6.2640860">
    <ele>221.1</ele>
    <time>2025-11-02T14:05:00Z</time>
   </trkpt>
   <trkpt lat="53.0316450" lon="-6.2639800">
    <ele>220.7</ele>
    <time>2025-11-02T14:05:05Z</time>
   </trkpt>
   <trkpt lat="53.0316620" lon="-6.2638740">
    <ele>220.1</ele>
    <time>2025-11-02T14:05:10Z</time>
   </trkpt>
   <trkpt lat="53.0316820" lon="-6.2637700">
    <ele>219.8</ele>
    <time>2025-11-02T14:05:15Z</time>
   </trkpt>
   <trkpt lat="53.0316950" lon="-6.2636630">
    <ele>219.7</ele>
    <time>2025-11-02T14:05:21Z</time>
   </trkpt>
   <trkpt lat="53.0317120" lon="-6.2635530">
    <ele>219.7</ele>
    <time>2025-11-02T14:05:26Z</time>
   </trkpt>
   <trkpt lat="53.0317270" lon="-6.2634530">
    <ele>219.5</ele>
    <time>2025-11-02T14:05:31Z</time>
   </trkpt>
   <trkpt lat="53.0317430" lon="-6.2633490">
    <ele>219.3</ele>
    <time>2025-11-02T14:05:36Z</time>
   </trkpt>
   <trkpt lat="53.0317590" lon="-6.2632500">
    <ele>219.1</ele>
    <time>2025-11-02T14:05:41Z</time>
   </trkpt>
   <trkpt lat="53.0317730" lon="-6.2631480">
    <ele>218.9</ele>
    <time>2025-11-02T14:05:47Z</time>
   </trkpt>
   <trkpt lat="53.0317950" lon="-6.2630270">
    <ele>218.8</ele>
    <time>2025-11-02T14:05:52Z</time>
   </trkpt>
   <trkpt lat="53.0318070" lon="-6.2629200">
    <ele>219.1</ele>
    <time>2025-11-02T14:05:57Z</time>
   </trkpt>
   <trkpt lat="53.0318270" lon="-6.2628210">
    <ele>218.8</ele>
    <time>2025-11-02T14:06:02Z</time>
   </trkpt>
   <trkpt lat="53.0318450" lon="-6.2627190">
    <ele>218.7</ele>
    <time>2025-11-02T14:06:07Z</time>
   </trkpt>
   <trkpt lat="53.0318570" lon="-6.2626240">
    <ele>218.6</ele>
    <time>2025-11-02T14:06:13Z</time>
   </trkpt>
   <trkpt lat="53.0318630" lon="-6.2625280">
    <ele>218.5</ele>
    <time>2025-11-02T14:06:18Z</time>
   </trkpt>
   <trkpt lat="53.0318850" lon="-6.2624090">
    <ele>218.3</ele>
    <time>2025-11-02T14:06:23Z</time>
   </trkpt>
   <trkpt lat="53.0318870" lon="-6.2623230">
    <ele>217.9</ele>
    <time>2025-11-02T14:06:28Z</time>
   </trkpt>
   <trkpt lat="53.0318920" lon="-6.2622200">
    <ele>217.4</ele>
    <time>2025-11-02T14:06:33Z</time>
   </trkpt>
   <trkpt lat="53.0319170" lon="-6.2620940">
    <ele>217.4</ele>
    <time>2025-11-02T14:06:38Z</time>
   </trkpt>
   <trkpt lat="53.0319410" lon="-6.2619890">
    <ele>217.1</ele>
    <time>2025-11-02T14:06:44Z</time>
   </trkpt>
   <trkpt lat="53.0319530" lon="-6.2618840">
    <ele>216.9</ele>
    <time>2025-11-02T14:06:49Z</time>
   </trkpt>
   <trkpt lat="53.0319690" lon="-6.2617720">
    <ele>216.3</ele>
    <time>2025-11-02T14:06:54Z</time>
   </trkpt>
   <trkpt lat="53.0319780" lon="-6.2616730">
    <ele>215.4</ele>
    <time>2025-11-02T14:06:59Z</time>
   </trkpt>
   <trkpt lat="53.0319680" lon="-6.2615670">
    <ele>214.7</ele>
    <time>2025-11-02T14:07:04Z</time>
   </trkpt>
   <trkpt lat="53.0319790" lon="-6.2614580">
    <ele>214.3</ele>
    <time>2025-11-02T14:07:09Z</time>
   </trkpt>
   <trkpt lat="53.0319970" lon="-6.2613560">
    <ele>214.0</ele>
    <time>2025-11-02T14:07:15Z</time>
   </trkpt>
   <trkpt lat="53.0319910" lon="-6.2612530">
    <ele>214.0</ele>
    <time>2025-11-02T14:07:20Z</time>
   </trkpt>
   <trkpt lat="53.0320110" lon="-6.2611390">
    <ele>213.6</ele>
    <time>2025-11-02T14:07:25Z</time>
   </trkpt>
   <trkpt lat="53.0320150" lon="-6.2610290">
    <ele>212.6</ele>
    <time>2025-11-02T14:07:30Z</time>
   </trkpt>
   <trkpt lat="53.0320260" lon="-6.2609100">
    <ele>212.2</ele>
    <time>2025-11-02T14:07:35Z</time>
   </trkpt>
   <trkpt lat="53.0320270" lon="-6.2608240">
    <ele>212.1</ele>
    <time>2025-11-02T14:07:41Z</time>
   </trkpt>
   <trkpt lat="53.0320450" lon="-6.2607240">
    <ele>212.0</ele>
    <time>2025-11-02T14:07:46Z</time>
   </trkpt>
   <trkpt lat="53.0320420" lon="-6.2606430">
    <ele>211.3</ele>
    <time>2025-11-02T14:07:51Z</time>
   </trkpt>
   <trkpt lat="53.0320430" lon="-6.2605580">
    <ele>210.5</ele>
    <time>2025-11-02T14:07:56Z</time>
   </trkpt>
   <trkpt lat="53.0320400" lon="-6.2604680">
    <ele>210.3</ele>
    <time>2025-11-02T14:08:01Z</time>
   </trkpt>
   <trkpt lat="53.0320570" lon="-6.2603690">
    <ele>210.3</ele>
    <time>2025-11-02T14:08:07Z</time>
   </trkpt>
   <trkpt lat="53.0320630" lon="-6.2602700">
    <ele>210.4</ele>
    <time>2025-11-02T14:08:12Z</time>
   </trkpt>
   <trkpt lat="53.0320680" lon="-6.2601730">
    <ele>210.4</ele>
    <time>2025-11-02T14:08:17Z</time>
   </trkpt>
   <trkpt lat="53.0320810" lon="-6.2600760">
    <ele>209.6</ele>
    <time>2025-11-02T14:08:22Z</time>
   </trkpt>
   <trkpt lat="53.0320870" lon="-6.2599860">
    <ele>208.9</ele>
    <time>2025-11-02T14:08:28Z</time>
   </trkpt>
   <trkpt lat="53.0320930" lon="-6.2598930">
    <ele>208.4</ele>
    <time>2025-11-02T14:08:33Z</time>
   </trkpt>
   <trkpt lat="53.0320980" lon="-6.2598010">
    <ele>208.0</ele>
    <time>2025-11-02T14:08:38Z</time>
   </trkpt>
   <trkpt lat="53.0321050" lon="-6.2597090">
    <ele>207.6</ele>
    <time>2025-11-02T14:08:43Z</time>
   </trkpt>
   <trkpt lat="53.0321310" lon="-6.2596350">
    <ele>205.7</ele>
    <time>2025-11-02T14:09:04Z</time>
   </trkpt>
   <trkpt lat="53.0321390" lon="-6.2595400">
    <ele>205.8</ele>
    <time>2025-11-02T14:09:10Z</time>
   </trkpt>
   <trkpt lat="53.0321370" lon="-6.2594590">
    <ele>206.8</ele>
    <time>2025-11-02T14:09:15Z</time>
   </trkpt>
   <trkpt lat="53.0321430" lon="-6.2593620">
    <ele>206.1</ele>
    <time>2025-11-02T14:09:21Z</time>
   </trkpt>
   <trkpt lat="53.0321560" lon="-6.2592670">
    <ele>204.8</ele>
    <time>2025-11-02T14:09:26Z</time>
   </trkpt>
   <trkpt lat="53.0321730" lon="-6.2591740">
    <ele>204.0</ele>
    <time>2025-11-02T14:09:32Z</time>
   </trkpt>
   <trkpt lat="53.0321730" lon="-6.2590800">
    <ele>203.9</ele>
    <time>2025-11-02T14:09:38Z</time>
   </trkpt>
   <trkpt lat="53.0321650" lon="-6.2589750">
    <ele>203.3</ele>
    <time>2025-11-02T14:09:43Z</time>
   </trkpt>
   <trkpt lat="53.0321670" lon="-6.2588870">
    <ele>202.4</ele>
    <time>2025-11-02T14:09:49Z</time>
   </trkpt>
   <trkpt lat="53.0321460" lon="-6.2587900">
    <ele>201.4</ele>
    <time>2025-11-02T14:09:54Z</time>
   </trkpt>
   <trkpt lat="53.0321330" lon="-6.2587060">
    <ele>200.9</ele>
    <time>2025-11-02T14:09:59Z</time>
   </trkpt>
   <trkpt lat="53.0321170" lon="-6.2586020">
    <ele>200.1</ele>
    <time>2025-11-02T14:10:05Z</time>
   </trkpt>
   <trkpt lat="53.0321050" lon="-6.2585110">
    <ele>199.6</ele>
    <time>2025-11-02T14:10:10Z</time>
   </trkpt>
   <trkpt lat="53.0320940" lon="-6.2584150">
    <ele>198.9</ele>
    <time>2025-11-02T14:10:16Z</time>
   </trkpt>
   <trkpt lat="53.0320810" lon="-6.2583240">
    <ele>198.1</ele>
    <time>2025-11-02T14:10:21Z</time>
   </trkpt>
   <trkpt lat="53.0320770" lon="-6.2582320">
    <ele>197.6</ele>
    <time>2025-11-02T14:10:26Z</time>
   </trkpt>
   <trkpt lat="53.0320630" lon="-6.2581350">
    <ele>196.5</ele>
    <time>2025-11-02T14:10:32Z</time>
   </trkpt>
   <trkpt lat="53.0320560" lon="-6.2580500">
    <ele>195.8</ele>
    <time>2025-11-02T14:10:37Z</time>
   </trkpt>
   <trkpt lat="53.0320560" lon="-6.2579680">
    <ele>194.5</ele>
    <time>2025-11-02T14:10:43Z</time>
   </trkpt>
   <trkpt lat="53.0320410" lon="-6.2578670">
    <ele>193.7</ele>
    <time>2025-11-02T14:10:49Z</time>
   </trkpt>
   <trkpt lat="53.0320290" lon="-6.2577790">
    <ele>193.9</ele>
    <time>2025-11-02T14:10:54Z</time>
   </trkpt>
   <trkpt lat="53.0320090" lon="-6.2576800">
    <ele>193.9</ele>
    <time>2025-11-02T14:10:59Z</time>
   </trkpt>
   <trkpt lat="53.0320020" lon="-6.2575730">
    <ele>193.6</ele>
    <time>2025-11-02T14:11:04Z</time>
   </trkpt>
   <trkpt lat="53.0319880" lon="-6.2574680">
    <ele>193.2</ele>
    <time>2025-11-02T14:11:10Z</time>
   </trkpt>
   <trkpt lat="53.0319850" lon="-6.2573910">
    <ele>192.1</ele>
    <time>2025-11-02T14:11:15Z</time>
   </trkpt>
   <trkpt lat="53.0319890" lon="-6.2572920">
    <ele>190.9</ele>
    <time>2025-11-02T14:11:21Z</time>
   </trkpt>
   <trkpt lat="53.0319770" lon="-6.2571800">
    <ele>189.9</ele>
    <time>2025-11-02T14:11:26Z</time>
   </trkpt>
   <trkpt lat="53.0319650" lon="-6.2570800">
    <ele>189.5</ele>
    <time>2025-11-02T14:11:31Z</time>
   </trkpt>
   <trkpt lat="53.0319500" lon="-6.2570090">
    <ele>189.5</ele>
    <time>2025-11-02T14:11:37Z</time>
   </trkpt>
   <trkpt lat="53.0319340" lon="-6.2569050">
    <ele>188.4</ele>
    <time>2025-11-02T14:11:42Z</time>
   </trkpt>
   <trkpt lat="53.0319170" lon="-6.2568060">
    <ele>187.3</ele>
    <time>2025-11-02T14:11:48Z</time>
   </trkpt>
   <trkpt lat="53.0318970" lon="-6.2566960">
    <ele>186.9</ele>
    <time>2025-11-02T14:11:53Z</time>
   </trkpt>
   <trkpt lat="53.0318910" lon="-6.2566090">
    <ele>187.4</ele>
    <time>2025-11-02T14:11:58Z</time>
   </trkpt>
   <trkpt lat="53.0319040" lon="-6.2565350">
    <ele>188.1</ele>
    <time>2025-11-02T14:12:03Z</time>
   </trkpt>
   <trkpt lat="53.0318970" lon="-6.2564610">
    <ele>186.4</ele>
    <time>2025-11-02T14:15:35Z</time>
   </trkpt>
   <trkpt lat="53.0318620" lon="-6.2564080">
    <ele>185.6</ele>
    <time>2025-11-02T14:15:44Z</time>
   </trkpt>
   <trkpt lat="53.0318490" lon="-6.2563140">
    <ele>185.3</ele>
    <time>2025-11-02T14:15:49Z</time>
   </trkpt>
   <trkpt lat="53.0318500" lon="-6.2562270">
    <ele>185.5</ele>
    <time>2025-11-02T14:15:56Z</time>
   </trkpt>
   <trkpt lat="53.0318350" lon="-6.2561410">
    <ele>185.1</ele>
    <time>2025-11-02T14:16:01Z</time>
   </trkpt>
   <trkpt lat="53.0318240" lon="-6.2560630">
    <ele>184.3</ele>
    <time>2025-11-02T14:16:07Z</time>
   </trkpt>
   <trkpt lat="53.0318140" lon="-6.2559840">
    <ele>183.9</ele>
    <time>2025-11-02T14:16:12Z</time>
   </trkpt>
   <trkpt lat="53.0318030" lon="-6.2558950">
    <ele>184.2</ele>
    <time>2025-11-02T14:16:18Z</time>
   </trkpt>
   <trkpt lat="53.0317860" lon="-6.2558220">
    <ele>184.0</ele>
    <time>2025-11-02T14:16:23Z</time>
   </trkpt>
   <trkpt lat="53.0317590" lon="-6.2557530">
    <ele>183.7</ele>
    <time>2025-11-02T14:16:29Z</time>
   </trkpt>
   <trkpt lat="53.0317410" lon="-6.2556800">
    <ele>183.2</ele>
    <time>2025-11-02T14:16:34Z</time>
   </trkpt>
   <trkpt lat="53.0317260" lon="-6.2556070">
    <ele>182.9</ele>
    <time>2025-11-02T14:16:39Z</time>
   </trkpt>
   <trkpt lat="53.0317070" lon="-6.2555060">
    <ele>183.1</ele>
    <time>2025-11-02T14:16:45Z</time>
   </trkpt>
   <trkpt lat="53.0316790" lon="-6.2554010">
    <ele>183.6</ele>
    <time>2025-11-02T14:16:50Z</time>
   </trkpt>
   <trkpt lat="53.0316320" lon="-6.2553300">
    <ele>183.4</ele>
    <time>2025-11-02T14:16:56Z</time>
   </trkpt>
   <trkpt lat="53.0315860" lon="-6.2553050">
    <ele>180.7</ele>
    <time>2025-11-02T14:17:19Z</time>
   </trkpt>
   <trkpt lat="53.0315510" lon="-6.2552060">
    <ele>180.5</ele>
    <time>2025-11-02T14:17:25Z</time>
   </trkpt>
   <trkpt lat="53.0315470" lon="-6.2551320">
    <ele>180.3</ele>
    <time>2025-11-02T14:17:31Z</time>
   </trkpt>
   <trkpt lat="53.0315570" lon="-6.2550460">
    <ele>180.3</ele>
    <time>2025-11-02T14:17:37Z</time>
   </trkpt>
   <trkpt lat="53.0315520" lon="-6.2549640">
    <ele>179.5</ele>
    <time>2025-11-02T14:17:43Z</time>
   </trkpt>
   <trkpt lat="53.0315510" lon="-6.2548800">
    <ele>179.4</ele>
    <time>2025-11-02T14:17:48Z</time>
   </trkpt>
   <trkpt lat="53.0315570" lon="-6.2548040">
    <ele>179.9</ele>
    <time>2025-11-02T14:17:53Z</time>
   </trkpt>
   <trkpt lat="53.0315620" lon="-6.2547290">
    <ele>180.0</ele>
    <time>2025-11-02T14:18:01Z</time>
   </trkpt>
   <trkpt lat="53.0315460" lon="-6.2548110">
    <ele>180.1</ele>
    <time>2025-11-02T14:18:11Z</time>
   </trkpt>
   <trkpt lat="53.0315170" lon="-6.2549230">
    <ele>180.2</ele>
    <time>2025-11-02T14:18:16Z</time>
   </trkpt>
   <trkpt lat="53.0315090" lon="-6.2548390">
    <ele>180.3</ele>
    <time>2025-11-02T14:18:23Z</time>
   </trkpt>
   <trkpt lat="53.0315640" lon="-6.2547330">
    <ele>180.3</ele>
    <time>2025-11-02T14:18:28Z</time>
   </trkpt>
   <trkpt lat="53.0315620" lon="-6.2545940">
    <ele>180.3</ele>
    <time>2025-11-02T14:18:33Z</time>
   </trkpt>
   <trkpt lat="53.0315540" lon="-6.2544680">
    <ele>180.3</ele>
    <time>2025-11-02T14:18:38Z</time>
   </trkpt>
   <trkpt lat="53.0315510" lon="-6.2543640">
    <ele>180.3</ele>
    <time>2025-11-02T14:18:43Z</time>
   </trkpt>
   <trkpt lat="53.0315350" lon="-6.2542710">
    <ele>180.1</ele>
    <time>2025-11-02T14:18:49Z</time>
   </trkpt>
   <trkpt lat="53.0315140" lon="-6.2541700">
    <ele>180.2</ele>
    <time>2025-11-02T14:18:54Z</time>
   </trkpt>
   <trkpt lat="53.0315100" lon="-6.2540430">
    <ele>180.3</ele>
    <time>2025-11-02T14:18:59Z</time>
   </trkpt>
   <trkpt lat="53.0314880" lon="-6.2539600">
    <ele>180.3</ele>
    <time>2025-11-02T14:19:05Z</time>
   </trkpt>
   <trkpt lat="53.0314640" lon="-6.2538710">
    <ele>180.1</ele>
    <time>2025-11-02T14:19:10Z</time>
   </trkpt>
   <trkpt lat="53.0314490" lon="-6.2537740">
    <ele>179.7</ele>
    <time>2025-11-02T14:19:15Z</time>
   </trkpt>
   <trkpt lat="53.0314280" lon="-6.2536860">
    <ele>179.6</ele>
    <time>2025-11-02T14:19:20Z</time>
   </trkpt>
   <trkpt lat="53.0314120" lon="-6.2535940">
    <ele>179.2</ele>
    <time>2025-11-02T14:19:26Z</time>
   </trkpt>
   <trkpt lat="53.0314010" lon="-6.2534930">
    <ele>179.0</ele>
    <time>2025-11-02T14:19:31Z</time>
   </trkpt>
   <trkpt lat="53.0313810" lon="-6.2533950">
    <ele>178.6</ele>
    <time>2025-11-02T14:19:37Z</time>
   </trkpt>
   <trkpt lat="53.0313420" lon="-6.2533120">
    <ele>178.3</ele>
    <time>2025-11-02T14:19:42Z</time>
   </trkpt>
   <trkpt lat="53.0313120" lon="-6.2532120">
    <ele>178.4</ele>
    <time>2025-11-02T14:19:47Z</time>
   </trkpt>
   <trkpt lat="53.0312860" lon="-6.2531200">
    <ele>178.5</ele>
    <time>2025-11-02T14:19:53Z</time>
   </trkpt>
   <trkpt lat="53.0312650" lon="-6.2530230">
    <ele>178.9</ele>
    <time>2025-11-02T14:19:58Z</time>
   </trkpt>
   <trkpt lat="53.0312680" lon="-6.2529300">
    <ele>178.7</ele>
    <time>2025-11-02T14:20:03Z</time>
   </trkpt>
   <trkpt lat="53.0312460" lon="-6.2528520">
    <ele>178.3</ele>
    <time>2025-11-02T14:21:06Z</time>
   </trkpt>
   <trkpt lat="53.0312400" lon="-6.2527470">
    <ele>177.8</ele>
    <time>2025-11-02T14:21:11Z</time>
   </trkpt>
   <trkpt lat="53.0312140" lon="-6.2526100">
    <ele>177.4</ele>
    <time>2025-11-02T14:21:17Z</time>
   </trkpt>
   <trkpt lat="53.0312030" lon="-6.2525210">
    <ele>177.6</ele>
    <time>2025-11-02T14:21:29Z</time>
   </trkpt>
   <trkpt lat="53.0311960" lon="-6.2523670">
    <ele>177.1</ele>
    <time>2025-11-02T14:21:35Z</time>
   </trkpt>
   <trkpt lat="53.0311760" lon="-6.2522430">
    <ele>177.7</ele>
    <time>2025-11-02T14:21:40Z</time>
   </trkpt>
   <trkpt lat="53.0311590" lon="-6.2521240">
    <ele>178.3</ele>
    <time>2025-11-02T14:21:46Z</time>
   </trkpt>
   <trkpt lat="53.0311540" lon="-6.2520040">
    <ele>177.4</ele>
    <time>2025-11-02T14:21:51Z</time>
   </trkpt>
   <trkpt lat="53.0311390" lon="-6.2519030">
    <ele>176.1</ele>
    <time>2025-11-02T14:21:56Z</time>
   </trkpt>
   <trkpt lat="53.0311520" lon="-6.2517680">
    <ele>175.7</ele>
    <time>2025-11-02T14:22:01Z</time>
   </trkpt>
   <trkpt lat="53.0311680" lon="-6.2516440">
    <ele>175.3</ele>
    <time>2025-11-02T14:22:07Z</time>
   </trkpt>
   <trkpt lat="53.0311990" lon="-6.2515240">
    <ele>175.0</ele>
    <time>2025-11-02T14:22:12Z</time>
   </trkpt>
   <trkpt lat="53.0312270" lon="-6.2514110">
    <ele>175.2</ele>
    <time>2025-11-02T14:22:17Z</time>
   </trkpt>
   <trkpt lat="53.0312670" lon="-6.2512950">
    <ele>174.7</ele>
    <time>2025-11-02T14:22:23Z</time>
   </trkpt>
   <trkpt lat="53.0312940" lon="-6.2511840">
    <ele>174.7</ele>
    <time>2025-11-02T14:22:28Z</time>
   </trkpt>
   <trkpt lat="53.0313470" lon="-6.2510980">
    <ele>174.9</ele>
    <time>2025-11-02T14:22:33Z</time>
   </trkpt>
   <trkpt lat="53.0314000" lon="-6.2510230">
    <ele>174.9</ele>
    <time>2025-11-02T14:22:38Z</time>
   </trkpt>
   <trkpt lat="53.0314370" lon="-6.2509330">
    <ele>175.0</ele>
    <time>2025-11-02T14:22:43Z</time>
   </trkpt>
   <trkpt lat="53.0314740" lon="-6.2508430">
    <ele>175.3</ele>
    <time>2025-11-02T14:22:49Z</time>
   </trkpt>
   <trkpt lat="53.0314800" lon="-6.2507450">
    <ele>174.9</ele>
    <time>2025-11-02T14:22:54Z</time>
   </trkpt>
   <trkpt lat="53.0315040" lon="-6.2506450">
    <ele>174.4</ele>
    <time>2025-11-02T14:22:59Z</time>
   </trkpt>
   <trkpt lat="53.0314650" lon="-6.2505600">
    <ele>174.7</ele>
    <time>2025-11-02T14:23:04Z</time>
   </trkpt>
   <trkpt lat="53.0314060" lon="-6.2505280">
    <ele>174.9</ele>
    <time>2025-11-02T14:23:09Z</time>
   </trkpt>
   <trkpt lat="53.0313720" lon="-6.2504720">
    <ele>174.9</ele>
    <time>2025-11-02T14:23:15Z</time>
   </trkpt>
   <trkpt lat="53.0313540" lon="-6.2503700">
    <ele>174.8</ele>
    <time>2025-11-02T14:23:20Z</time>
   </trkpt>
   <trkpt lat="53.0313500" lon="-6.2502880">
    <ele>175.3</ele>
    <time>2025-11-02T14:23:27Z</time>
   </trkpt>
   <trkpt lat="53.0313280" lon="-6.2502200">
    <ele>176.9</ele>
    <time>2025-11-02T14:23:38Z</time>
   </trkpt>
   <trkpt lat="53.0313000" lon="-6.2501570">
    <ele>177.3</ele>
    <time>2025-11-02T14:23:44Z</time>
   </trkpt>
   <trkpt lat="53.0312330" lon="-6.2500780">
    <ele>178.0</ele>
    <time>2025-11-02T14:23:49Z</time>
   </trkpt>
   <trkpt lat="53.0311980" lon="-6.2500220">
    <ele>178.9</ele>
    <time>2025-11-02T14:23:57Z</time>
   </trkpt>
   <trkpt lat="53.0311420" lon="-6.2499120">
    <ele>179.6</ele>
    <time>2025-11-02T14:24:03Z</time>
   </trkpt>
   <trkpt lat="53.0310690" lon="-6.2498400">
    <ele>180.1</ele>
    <time>2025-11-02T14:24:08Z</time>
   </trkpt>
   <trkpt lat="53.0309720" lon="-6.2497410">
    <ele>180.5</ele>
    <time>2025-11-02T14:24:13Z</time>
   </trkpt>
   <trkpt lat="53.0309070" lon="-6.2496800">
    <ele>180.8</ele>
    <time>2025-11-02T14:24:18Z</time>
   </trkpt>
   <trkpt lat="53.0308410" lon="-6.2496240">
    <ele>180.5</ele>
    <time>2025-11-02T14:24:24Z</time>
   </trkpt>
   <trkpt lat="53.0307950" lon="-6.2495930">
    <ele>180.6</ele>
    <time>2025-11-02T14:24:29Z</time>
   </trkpt>
   <trkpt lat="53.0307370" lon="-6.2495790">
    <ele>181.0</ele>
    <time>2025-11-02T14:24:35Z</time>
   </trkpt>
   <trkpt lat="53.0306820" lon="-6.2495060">
    <ele>181.1</ele>
    <time>2025-11-02T14:24:40Z</time>
   </trkpt>
   <trkpt lat="53.0306300" lon="-6.2494690">
    <ele>181.4</ele>
    <time>2025-11-02T14:24:45Z</time>
   </trkpt>
   <trkpt lat="53.0305720" lon="-6.2494450">
    <ele>181.3</ele>
    <time>2025-11-02T14:24:50Z</time>
   </trkpt>
   <trkpt lat="53.0305150" lon="-6.2494020">
    <ele>181.4</ele>
    <time>2025-11-02T14:24:56Z</time>
   </trkpt>
   <trkpt lat="53.0304650" lon="-6.2493520">
    <ele>181.8</ele>
    <time>2025-11-02T14:25:01Z</time>
   </trkpt>
   <trkpt lat="53.0304100" lon="-6.2492960">
    <ele>181.9</ele>
    <time>2025-11-02T14:25:07Z</time>
   </trkpt>
   <trkpt lat="53.0303510" lon="-6.2492440">
    <ele>182.0</ele>
    <time>2025-11-02T14:25:12Z</time>
   </trkpt>
   <trkpt lat="53.0302930" lon="-6.2492010">
    <ele>182.1</ele>
    <time>2025-11-02T14:25:17Z</time>
   </trkpt>
   <trkpt lat="53.0302350" lon="-6.2491720">
    <ele>182.2</ele>
    <time>2025-11-02T14:25:22Z</time>
   </trkpt>
   <trkpt lat="53.0301850" lon="-6.2491430">
    <ele>182.4</ele>
    <time>2025-11-02T14:25:27Z</time>
   </trkpt>
   <trkpt lat="53.0301370" lon="-6.2490980">
    <ele>182.8</ele>
    <time>2025-11-02T14:25:33Z</time>
   </trkpt>
   <trkpt lat="53.0300860" lon="-6.2490610">
    <ele>182.8</ele>
    <time>2025-11-02T14:25:38Z</time>
   </trkpt>
   <trkpt lat="53.0300280" lon="-6.2489990">
    <ele>182.7</ele>
    <time>2025-11-02T14:25:43Z</time>
   </trkpt>
   <trkpt lat="53.0299840" lon="-6.2489520">
    <ele>182.5</ele>
    <time>2025-11-02T14:25:48Z</time>
   </trkpt>
   <trkpt lat="53.0299290" lon="-6.2489140">
    <ele>182.9</ele>
    <time>2025-11-02T14:25:54Z</time>
   </trkpt>
   <trkpt lat="53.0298760" lon="-6.2488640">
    <ele>183.2</ele>
    <time>2025-11-02T14:25:59Z</time>
   </trkpt>
   <trkpt lat="53.0298230" lon="-6.2488110">
    <ele>183.6</ele>
    <time>2025-11-02T14:26:04Z</time>
   </trkpt>
   <trkpt lat="53.0297840" lon="-6.2487420">
    <ele>184.2</ele>
    <time>2025-11-02T14:26:09Z</time>
   </trkpt>
   <trkpt lat="53.0297370" lon="-6.2486540">
    <ele>184.2</ele>
    <time>2025-11-02T14:26:15Z</time>
   </trkpt>
   <trkpt lat="53.0296920" lon="-6.2485640">
    <ele>183.4</ele>
    <time>2025-11-02T14:26:20Z</time>
   </trkpt>
   <trkpt lat="53.0296540" lon="-6.2484900">
    <ele>183.6</ele>
    <time>2025-11-02T14:26:25Z</time>
   </trkpt>
   <trkpt lat="53.0296090" lon="-6.2484230">
    <ele>183.8</ele>
    <time>2025-11-02T14:26:31Z</time>
   </trkpt>
   <trkpt lat="53.0295660" lon="-6.2483560">
    <ele>183.5</ele>
    <time>2025-11-02T14:26:36Z</time>
   </trkpt>
   <trkpt lat="53.0295390" lon="-6.2482610">
    <ele>183.1</ele>
    <time>2025-11-02T14:26:41Z</time>
   </trkpt>
   <trkpt lat="53.0295010" lon="-6.2481790">
    <ele>183.1</ele>
    <time>2025-11-02T14:26:47Z</time>
   </trkpt>
   <trkpt lat="53.0294720" lon="-6.2480920">
    <ele>183.3</ele>
    <time>2025-11-02T14:26:52Z</time>
   </trkpt>
   <trkpt lat="53.0294350" lon="-6.2480150">
    <ele>183.6</ele>
    <time>2025-11-02T14:26:57Z</time>
   </trkpt>
   <trkpt lat="53.0293840" lon="-6.2479420">
    <ele>183.9</ele>
    <time>2025-11-02T14:27:03Z</time>
   </trkpt>
   <trkpt lat="53.0293370" lon="-6.2478520">
    <ele>183.8</ele>
    <time>2025-11-02T14:27:08Z</time>
   </trkpt>
   <trkpt lat="53.0292900" lon="-6.2477800">
    <ele>183.6</ele>
    <time>2025-11-02T14:27:13Z</time>
   </trkpt>
   <trkpt lat="53.0292560" lon="-6.2477040">
    <ele>183.1</ele>
    <time>2025-11-02T14:27:18Z</time>
   </trkpt>
   <trkpt lat="53.0292110" lon="-6.2476290">
    <ele>183.2</ele>
    <time>2025-11-02T14:27:24Z</time>
   </trkpt>
   <trkpt lat="53.0291620" lon="-6.2475580">
    <ele>183.4</ele>
    <time>2025-11-02T14:27:29Z</time>
   </trkpt>
   <trkpt lat="53.0290990" lon="-6.2474760">
    <ele>183.3</ele>
    <time>2025-11-02T14:27:34Z</time>
   </trkpt>
   <trkpt lat="53.0290330" lon="-6.2474340">
    <ele>183.0</ele>
    <time>2025-11-02T14:27:39Z</time>
   </trkpt>
   <trkpt lat="53.0289790" lon="-6.2474240">
    <ele>182.3</ele>
    <time>2025-11-02T14:27:45Z</time>
   </trkpt>
   <trkpt lat="53.0289130" lon="-6.2474060">
    <ele>182.3</ele>
    <time>2025-11-02T14:27:50Z</time>
   </trkpt>
   <trkpt lat="53.0288650" lon="-6.2474170">
    <ele>182.4</ele>
    <time>2025-11-02T14:27:55Z</time>
   </trkpt>
   <trkpt lat="53.0288040" lon="-6.2474290">
    <ele>182.2</ele>
    <time>2025-11-02T14:28:01Z</time>
   </trkpt>
   <trkpt lat="53.0287460" lon="-6.2474570">
    <ele>181.9</ele>
    <time>2025-11-02T14:28:06Z</time>
   </trkpt>
   <trkpt lat="53.0286870" lon="-6.2474750">
    <ele>181.3</ele>
    <time>2025-11-02T14:28:11Z</time>
   </trkpt>
   <trkpt lat="53.0286240" lon="-6.2474780">
    <ele>180.7</ele>
    <time>2025-11-02T14:28:17Z</time>
   </trkpt>
   <trkpt lat="53.0285560" lon="-6.2474840">
    <ele>180.7</ele>
    <time>2025-11-02T14:28:22Z</time>
   </trkpt>
   <trkpt lat="53.0285060" lon="-6.2474990">
    <ele>180.6</ele>
    <time>2025-11-02T14:28:27Z</time>
   </trkpt>
   <trkpt lat="53.0284500" lon="-6.2474730">
    <ele>180.2</ele>
    <time>2025-11-02T14:28:33Z</time>
   </trkpt>
   <trkpt lat="53.0284020" lon="-6.2474380">
    <ele>179.7</ele>
    <time>2025-11-02T14:28:38Z</time>
   </trkpt>
   <trkpt lat="53.0283490" lon="-6.2473920">
    <ele>178.8</ele>
    <time>2025-11-02T14:28:44Z</time>
   </trkpt>
   <trkpt lat="53.0282950" lon="-6.2473390">
    <ele>178.3</ele>
    <time>2025-11-02T14:28:49Z</time>
   </trkpt>
   <trkpt lat="53.0282450" lon="-6.2472860">
    <ele>177.9</ele>
    <time>2025-11-02T14:28:54Z</time>
   </trkpt>
   <trkpt lat="53.0281960" lon="-6.2472470">
    <ele>177.4</ele>
    <time>2025-11-02T14:29:00Z</time>
   </trkpt>
   <trkpt lat="53.0281410" lon="-6.2471930">
    <ele>176.8</ele>
    <time>2025-11-02T14:29:05Z</time>
   </trkpt>
   <trkpt lat="53.0280960" lon="-6.2471600">
    <ele>176.4</ele>
    <time>2025-11-02T14:29:10Z</time>
   </trkpt>
   <trkpt lat="53.0280370" lon="-6.2471060">
    <ele>175.1</ele>
    <time>2025-11-02T14:29:15Z</time>
   </trkpt>
   <trkpt lat="53.0279860" lon="-6.2470490">
    <ele>174.4</ele>
    <time>2025-11-02T14:29:21Z</time>
   </trkpt>
   <trkpt lat="53.0279320" lon="-6.2470060">
    <ele>174.1</ele>
    <time>2025-11-02T14:29:26Z</time>
   </trkpt>
   <trkpt lat="53.0278760" lon="-6.2469560">
    <ele>173.8</ele>
    <time>2025-11-02T14:29:31Z</time>
   </trkpt>
   <trkpt lat="53.0278280" lon="-6.2469190">
    <ele>173.1</ele>
    <time>2025-11-02T14:29:37Z</time>
   </trkpt>
   <trkpt lat="53.0277770" lon="-6.2468590">
    <ele>173.3</ele>
    <time>2025-11-02T14:29:42Z</time>
   </trkpt>
   <trkpt lat="53.0277240" lon="-6.2468150">
    <ele>173.7</ele>
    <time>2025-11-02T14:29:47Z</time>
   </trkpt>
   <trkpt lat="53.0276750" lon="-6.2467700">
    <ele>173.7</ele>
    <time>2025-11-02T14:29:52Z</time>
   </trkpt>
   <trkpt lat="53.0276200" lon="-6.2467400">
    <ele>173.6</ele>
    <time>2025-11-02T14:29:58Z</time>
   </trkpt>
   <trkpt lat="53.0275620" lon="-6.2466910">
    <ele>173.0</ele>
    <time>2025-11-02T14:30:03Z</time>
   </trkpt>
   <trkpt lat="53.0275000" lon="-6.2466600">
    <ele>173.0</ele>
    <time>2025-11-02T14:30:09Z</time>
   </trkpt>
   <trkpt lat="53.0274450" lon="-6.2466290">
    <ele>173.2</ele>
    <time>2025-11-02T14:30:14Z</time>
   </trkpt>
   <trkpt lat="53.0273870" lon="-6.2465950">
    <ele>172.8</ele>
    <time>2025-11-02T14:30:19Z</time>
   </trkpt>
   <trkpt lat="53.0273290" lon="-6.2465670">
    <ele>172.3</ele>
    <time>2025-11-02T14:30:25Z</time>
   </trkpt>
   <trkpt lat="53.0272750" lon="-6.2465240">
    <ele>172.1</ele>
    <time>2025-11-02T14:30:30Z</time>
   </trkpt>
   <trkpt lat="53.0272150" lon="-6.2464880">
    <ele>171.6</ele>
    <time>2025-11-02T14:30:36Z</time>
   </trkpt>
   <trkpt lat="53.0271500" lon="-6.2464610">
    <ele>171.5</ele>
    <time>2025-11-02T14:30:41Z</time>
   </trkpt>
   <trkpt lat="53.0270830" lon="-6.2464380">
    <ele>171.6</ele>
    <time>2025-11-02T14:30:47Z</time>
   </trkpt>
   <trkpt lat="53.0270350" lon="-6.2464210">
    <ele>171.2</ele>
    <time>2025-11-02T14:30:52Z</time>
   </trkpt>
   <trkpt lat="53.0269770" lon="-6.2464100">
    <ele>170.9</ele>
    <time>2025-11-02T14:30:57Z</time>
   </trkpt>
   <trkpt lat="53.0269150" lon="-6.2463500">
    <ele>171.0</ele>
    <time>2025-11-02T14:31:03Z</time>
   </trkpt>
   <trkpt lat="53.0268690" lon="-6.2463240">
    <ele>170.8</ele>
    <time>2025-11-02T14:31:08Z</time>
   </trkpt>
   <trkpt lat="53.0268060" lon="-6.2462980">
    <ele>170.6</ele>
    <time>2025-11-02T14:31:14Z</time>
   </trkpt>
   <trkpt lat="53.0267480" lon="-6.2462640">
    <ele>170.4</ele>
    <time>2025-11-02T14:31:19Z</time>
   </trkpt>
   <trkpt lat="53.0266960" lon="-6.2462390">
    <ele>170.9</ele>
    <time>2025-11-02T14:31:24Z</time>
   </trkpt>
   <trkpt lat="53.0266490" lon="-6.2462150">
    <ele>171.5</ele>
    <time>2025-11-02T14:31:30Z</time>
   </trkpt>
   <trkpt lat="53.0266060" lon="-6.2461940">
    <ele>170.3</ele>
    <time>2025-11-02T14:35:22Z</time>
   </trkpt>
   <trkpt lat="53.0265550" lon="-6.2461770">
    <ele>170.4</ele>
    <time>2025-11-02T14:35:29Z</time>
   </trkpt>
   <trkpt lat="53.0265030" lon="-6.2461420">
    <ele>171.1</ele>
    <time>2025-11-02T14:35:34Z</time>
   </trkpt>
   <trkpt lat="53.0264550" lon="-6.2461320">
    <ele>171.7</ele>
    <time>2025-11-02T14:35:40Z</time>
   </trkpt>
   <trkpt lat="53.0264000" lon="-6.2461240">
    <ele>172.0</ele>
    <time>2025-11-02T14:35:45Z</time>
   </trkpt>
   <trkpt lat="53.0263330" lon="-6.2461150">
    <ele>171.3</ele>
    <time>2025-11-02T14:35:50Z</time>
   </trkpt>
   <trkpt lat="53.0262830" lon="-6.2461310">
    <ele>170.8</ele>
    <time>2025-11-02T14:35:55Z</time>
   </trkpt>
   <trkpt lat="53.0262340" lon="-6.2461370">
    <ele>170.4</ele>
    <time>2025-11-02T14:36:01Z</time>
   </trkpt>
   <trkpt lat="53.0261600" lon="-6.2461120">
    <ele>170.6</ele>
    <time>2025-11-02T14:36:06Z</time>
   </trkpt>
   <trkpt lat="53.0260930" lon="-6.2460960">
    <ele>170.6</ele>
    <time>2025-11-02T14:36:11Z</time>
   </trkpt>
   <trkpt lat="53.0260240" lon="-6.2461000">
    <ele>170.4</ele>
    <time>2025-11-02T14:36:16Z</time>
   </trkpt>
   <trkpt lat="53.0259610" lon="-6.2460790">
    <ele>170.1</ele>
    <time>2025-11-02T14:36:21Z</time>
   </trkpt>
   <trkpt lat="53.0259020" lon="-6.2460770">
    <ele>170.4</ele>
    <time>2025-11-02T14:36:27Z</time>
   </trkpt>
   <trkpt lat="53.0258370" lon="-6.2460680">
    <ele>170.5</ele>
    <time>2025-11-02T14:36:32Z</time>
   </trkpt>
   <trkpt lat="53.0257720" lon="-6.2460550">
    <ele>171.0</ele>
    <time>2025-11-02T14:36:37Z</time>
   </trkpt>
   <trkpt lat="53.0257120" lon="-6.2460630">
    <ele>171.0</ele>
    <time>2025-11-02T14:36:42Z</time>
   </trkpt>
   <trkpt lat="53.0256550" lon="-6.2460540">
    <ele>172.1</ele>
    <time>2025-11-02T14:36:48Z</time>
   </trkpt>
   <trkpt lat="53.0255960" lon="-6.2460010">
    <ele>172.6</ele>
    <time>2025-11-02T14:36:53Z</time>
   </trkpt>
   <trkpt lat="53.0255320" lon="-6.2460240">
    <ele>173.4</ele>
    <time>2025-11-02T14:36:59Z</time>
   </trkpt>
   <trkpt lat="53.0254690" lon="-6.2461030">
    <ele>174.2</ele>
    <time>2025-11-02T14:37:04Z</time>
   </trkpt>
   <trkpt lat="53.0254600" lon="-6.2462360">
    <ele>174.5</ele>
    <time>2025-11-02T14:37:09Z</time>
   </trkpt>
   <trkpt lat="53.0254660" lon="-6.2463180">
    <ele>173.2</ele>
    <time>2025-11-02T14:37:56Z</time>
   </trkpt>
   <trkpt lat="53.0254570" lon="-6.2464670">
    <ele>174.0</ele>
    <time>2025-11-02T14:38:01Z</time>
   </trkpt>
   <trkpt lat="53.0254630" lon="-6.2465840">
    <ele>174.6</ele>
    <time>2025-11-02T14:38:07Z</time>
   </trkpt>
   <trkpt lat="53.0254600" lon="-6.2466680">
    <ele>174.8</ele>
    <time>2025-11-02T14:38:13Z</time>
   </trkpt>
   <trkpt lat="53.0254570" lon="-6.2467590">
    <ele>174.8</ele>
    <time>2025-11-02T14:38:18Z</time>
   </trkpt>
   <trkpt lat="53.0254460" lon="-6.2468510">
    <ele>175.2</ele>
    <time>2025-11-02T14:38:23Z</time>
   </trkpt>
   <trkpt lat="53.0254200" lon="-6.2469580">
    <ele>175.6</ele>
    <time>2025-11-02T14:38:28Z</time>
   </trkpt>
   <trkpt lat="53.0253930" lon="-6.2470600">
    <ele>175.6</ele>
    <time>2025-11-02T14:38:34Z</time>
   </trkpt>
   <trkpt lat="53.0253790" lon="-6.2471750">
    <ele>175.5</ele>
    <time>2025-11-02T14:38:39Z</time>
   </trkpt>
   <trkpt lat="53.0253630" lon="-6.2472880">
    <ele>175.5</ele>
    <time>2025-11-02T14:38:44Z</time>
   </trkpt>
   <trkpt lat="53.0253540" lon="-6.2473990">
    <ele>175.1</ele>
    <time>2025-11-02T14:38:49Z</time>
   </trkpt>
   <trkpt lat="53.0253470" lon="-6.2475200">
    <ele>175.4</ele>
    <time>2025-11-02T14:38:54Z</time>
   </trkpt>
   <trkpt lat="53.0253380" lon="-6.2476330">
    <ele>175.2</ele>
    <time>2025-11-02T14:39:00Z</time>
   </trkpt>
   <trkpt lat="53.0253380" lon="-6.2477380">
    <ele>175.8</ele>
    <time>2025-11-02T14:39:05Z</time>
   </trkpt>
   <trkpt lat="53.0253340" lon="-6.2478310">
    <ele>175.2</ele>
    <time>2025-11-02T14:39:10Z</time>
   </trkpt>
   <trkpt lat="53.0253320" lon="-6.2479400">
    <ele>175.2</ele>
    <time>2025-11-02T14:39:15Z</time>
   </trkpt>
   <trkpt lat="53.0253260" lon="-6.2480420">
    <ele>175.5</ele>
    <time>2025-11-02T14:39:21Z</time>
   </trkpt>
   <trkpt lat="53.0253330" lon="-6.2481450">
    <ele>175.1</ele>
    <time>2025-11-02T14:39:26Z</time>
   </trkpt>
   <trkpt lat="53.0253350" lon="-6.2482560">
    <ele>175.2</ele>
    <time>2025-11-02T14:39:31Z</time>
   </trkpt>
   <trkpt lat="53.0253360" lon="-6.2483530">
    <ele>174.8</ele>
    <time>2025-11-02T14:39:36Z</time>
   </trkpt>
   <trkpt lat="53.0253330" lon="-6.2484680">
    <ele>174.2</ele>
    <time>2025-11-02T14:39:41Z</time>
   </trkpt>
   <trkpt lat="53.0253280" lon="-6.2485890">
    <ele>174.1</ele>
    <time>2025-11-02T14:39:47Z</time>
   </trkpt>
   <trkpt lat="53.0253230" lon="-6.2487170">
    <ele>174.6</ele>
    <time>2025-11-02T14:39:52Z</time>
   </trkpt>
   <trkpt lat="53.0253160" lon="-6.2488320">
    <ele>174.9</ele>
    <time>2025-11-02T14:39:57Z</time>
   </trkpt>
   <trkpt lat="53.0253040" lon="-6.2489450">
    <ele>174.9</ele>
    <time>2025-11-02T14:40:03Z</time>
   </trkpt>
   <trkpt lat="53.0252880" lon="-6.2490530">
    <ele>174.9</ele>
    <time>2025-11-02T14:40:08Z</time>
   </trkpt>
   <trkpt lat="53.0252850" lon="-6.2491450">
    <ele>175.0</ele>
    <time>2025-11-02T14:40:13Z</time>
   </trkpt>
   <trkpt lat="53.0252850" lon="-6.2492460">
    <ele>175.0</ele>
    <time>2025-11-02T14:40:18Z</time>
   </trkpt>
   <trkpt lat="53.0252780" lon="-6.2493530">
    <ele>175.0</ele>
    <time>2025-11-02T14:40:24Z</time>
   </trkpt>
   <trkpt lat="53.0252680" lon="-6.2494470">
    <ele>175.3</ele>
    <time>2025-11-02T14:40:29Z</time>
   </trkpt>
   <trkpt lat="53.0252620" lon="-6.2495470">
    <ele>175.8</ele>
    <time>2025-11-02T14:40:34Z</time>
   </trkpt>
   <trkpt lat="53.0252620" lon="-6.2496600">
    <ele>176.3</ele>
    <time>2025-11-02T14:40:40Z</time>
   </trkpt>
   <trkpt lat="53.0252590" lon="-6.2497750">
    <ele>176.5</ele>
    <time>2025-11-02T14:40:45Z</time>
   </trkpt>
   <trkpt lat="53.0252580" lon="-6.2498850">
    <ele>177.2</ele>
    <time>2025-11-02T14:40:51Z</time>
   </trkpt>
   <trkpt lat="53.0252460" lon="-6.2500000">
    <ele>176.8</ele>
    <time>2025-11-02T14:40:56Z</time>
   </trkpt>
   <trkpt lat="53.0252300" lon="-6.2501030">
    <ele>176.8</ele>
    <time>2025-11-02T14:41:01Z</time>
   </trkpt>
   <trkpt lat="53.0252430" lon="-6.2501880">
    <ele>177.1</ele>
    <time>2025-11-02T14:41:06Z</time>
   </trkpt>
   <trkpt lat="53.0252280" lon="-6.2502870">
    <ele>176.8</ele>
    <time>2025-11-02T14:41:12Z</time>
   </trkpt>
   <trkpt lat="53.0252570" lon="-6.2503500">
    <ele>176.7</ele>
    <time>2025-11-02T14:41:18Z</time>
   </trkpt>
   <trkpt lat="53.0252550" lon="-6.2504300">
    <ele>176.4</ele>
    <time>2025-11-02T14:41:23Z</time>
   </trkpt>
   <trkpt lat="53.0252510" lon="-6.2505310">
    <ele>175.5</ele>
    <time>2025-11-02T14:41:28Z</time>
   </trkpt>
   <trkpt lat="53.0252520" lon="-6.2506090">
    <ele>175.0</ele>
    <time>2025-11-02T14:41:34Z</time>
   </trkpt>
   <trkpt lat="53.0252440" lon="-6.2507030">
    <ele>174.7</ele>
    <time>2025-11-02T14:41:40Z</time>
   </trkpt>
   <trkpt lat="53.0252520" lon="-6.2507820">
    <ele>174.3</ele>
    <time>2025-11-02T14:41:45Z</time>
   </trkpt>
   <trkpt lat="53.0252840" lon="-6.2508360">
    <ele>174.1</ele>
    <time>2025-11-02T14:41:51Z</time>
   </trkpt>
   <trkpt lat="53.0252880" lon="-6.2509730">
    <ele>174.3</ele>
    <time>2025-11-02T14:41:56Z</time>
   </trkpt>
   <trkpt lat="53.0253050" lon="-6.2510570">
    <ele>174.3</ele>
    <time>2025-11-02T14:42:02Z</time>
   </trkpt>
   <trkpt lat="53.0253100" lon="-6.2511450">
    <ele>174.0</ele>
    <time>2025-11-02T14:42:07Z</time>
   </trkpt>
   <trkpt lat="53.0253140" lon="-6.2512480">
    <ele>173.4</ele>
    <time>2025-11-02T14:42:12Z</time>
   </trkpt>
   <trkpt lat="53.0253060" lon="-6.2513520">
    <ele>173.1</ele>
    <time>2025-11-02T14:42:18Z</time>
   </trkpt>
   <trkpt lat="53.0253020" lon="-6.2514570">
    <ele>173.1</ele>
    <time>2025-11-02T14:42:23Z</time>
   </trkpt>
   <trkpt lat="53.0253020" lon="-6.2515590">
    <ele>173.1</ele>
    <time>2025-11-02T14:42:29Z</time>
   </trkpt>
   <trkpt lat="53.0252950" lon="-6.2516640">
    <ele>172.7</ele>
    <time>2025-11-02T14:42:35Z</time>
   </trkpt>
   <trkpt lat="53.0252970" lon="-6.2517710">
    <ele>172.1</ele>
    <time>2025-11-02T14:42:40Z</time>
   </trkpt>
   <trkpt lat="53.0252910" lon="-6.2518650">
    <ele>172.6</ele>
    <time>2025-11-02T14:42:46Z</time>
   </trkpt>
   <trkpt lat="53.0252720" lon="-6.2519530">
    <ele>172.9</ele>
    <time>2025-11-02T14:42:51Z</time>
   </trkpt>
   <trkpt lat="53.0252440" lon="-6.2520360">
    <ele>172.9</ele>
    <time>2025-11-02T14:42:56Z</time>
   </trkpt>
   <trkpt lat="53.0252230" lon="-6.2521170">
    <ele>173.4</ele>
    <time>2025-11-02T14:43:01Z</time>
   </trkpt>
   <trkpt lat="53.0251970" lon="-6.2521950">
    <ele>173.7</ele>
    <time>2025-11-02T14:43:06Z</time>
   </trkpt>
   <trkpt lat="53.0251850" lon="-6.2522840">
    <ele>173.9</ele>
    <time>2025-11-02T14:43:12Z</time>
   </trkpt>
   <trkpt lat="53.0251700" lon="-6.2523610">
    <ele>174.0</ele>
    <time>2025-11-02T14:43:17Z</time>
   </trkpt>
   <trkpt lat="53.0251650" lon="-6.2524440">
    <ele>174.0</ele>
    <time>2025-11-02T14:43:22Z</time>
   </trkpt>
   <trkpt lat="53.0251490" lon="-6.2525350">
    <ele>173.8</ele>
    <time>2025-11-02T14:43:27Z</time>
   </trkpt>
   <trkpt lat="53.0251330" lon="-6.2526200">
    <ele>174.0</ele>
    <time>2025-11-02T14:43:32Z</time>
   </trkpt>
   <trkpt lat="53.0251120" lon="-6.2526870">
    <ele>174.3</ele>
    <time>2025-11-02T14:43:48Z</time>
   </trkpt>
   <trkpt lat="53.0250980" lon="-6.2527740">
    <ele>174.1</ele>
    <time>2025-11-02T14:43:53Z</time>
   </trkpt>
   <trkpt lat="53.0250770" lon="-6.2528570">
    <ele>174.0</ele>
    <time>2025-11-02T14:43:58Z</time>
   </trkpt>
   <trkpt lat="53.0250560" lon="-6.2529340">
    <ele>174.3</ele>
    <time>2025-11-02T14:44:04Z</time>
   </trkpt>
   <trkpt lat="53.0250330" lon="-6.2530020">
    <ele>174.2</ele>
    <time>2025-11-02T14:44:09Z</time>
   </trkpt>
   <trkpt lat="53.0250210" lon="-6.2530890">
    <ele>174.1</ele>
    <time>2025-11-02T14:44:14Z</time>
   </trkpt>
   <trkpt lat="53.0250080" lon="-6.2531620">
    <ele>174.4</ele>
    <time>2025-11-02T14:44:21Z</time>
   </trkpt>
   <trkpt lat="53.0249900" lon="-6.2532350">
    <ele>174.8</ele>
    <time>2025-11-02T14:44:26Z</time>
   </trkpt>
   <trkpt lat="53.0249720" lon="-6.2533060">
    <ele>174.9</ele>
    <time>2025-11-02T14:44:31Z</time>
   </trkpt>
   <trkpt lat="53.0249530" lon="-6.2533980">
    <ele>174.7</ele>
    <time>2025-11-02T14:44:37Z</time>
   </trkpt>
   <trkpt lat="53.0249340" lon="-6.2534770">
    <ele>174.0</ele>
    <time>2025-11-02T14:44:42Z</time>
   </trkpt>
   <trkpt lat="53.0249190" lon="-6.2535620">
    <ele>174.1</ele>
    <time>2025-11-02T14:44:47Z</time>
   </trkpt>
   <trkpt lat="53.0249190" lon="-6.2536520">
    <ele>175.7</ele>
    <time>2025-11-02T14:44:52Z</time>
   </trkpt>
   <trkpt lat="53.0249270" lon="-6.2537450">
    <ele>176.4</ele>
    <time>2025-11-02T14:44:57Z</time>
   </trkpt>
   <trkpt lat="53.0249270" lon="-6.2538580">
    <ele>176.1</ele>
    <time>2025-11-02T14:45:02Z</time>
   </trkpt>
   <trkpt lat="53.0249260" lon="-6.2539600">
    <ele>175.4</ele>
    <time>2025-11-02T14:45:07Z</time>
   </trkpt>
   <trkpt lat="53.0249200" lon="-6.2540490">
    <ele>175.4</ele>
    <time>2025-11-02T14:45:13Z</time>
   </trkpt>
   <trkpt lat="53.0249240" lon="-6.2541530">
    <ele>175.4</ele>
    <time>2025-11-02T14:45:19Z</time>
   </trkpt>
   <trkpt lat="53.0249090" lon="-6.2542450">
    <ele>175.7</ele>
    <time>2025-11-02T14:45:24Z</time>
   </trkpt>
   <trkpt lat="53.0249000" lon="-6.2543480">
    <ele>176.0</ele>
    <time>2025-11-02T14:45:30Z</time>
   </trkpt>
   <trkpt lat="53.0248940" lon="-6.2544620">
    <ele>175.4</ele>
    <time>2025-11-02T14:45:35Z</time>
   </trkpt>
   <trkpt lat="53.0249010" lon="-6.2545680">
    <ele>174.9</ele>
    <time>2025-11-02T14:45:40Z</time>
   </trkpt>
   <trkpt lat="53.0249010" lon="-6.2546600">
    <ele>174.8</ele>
    <time>2025-11-02T14:45:46Z</time>
   </trkpt>
   <trkpt lat="53.0248790" lon="-6.2547780">
    <ele>174.7</ele>
    <time>2025-11-02T14:45:51Z</time>
   </trkpt>
   <trkpt lat="53.0248660" lon="-6.2548700">
    <ele>174.0</ele>
    <time>2025-11-02T14:45:56Z</time>
   </trkpt>
   <trkpt lat="53.0248350" lon="-6.2549740">
    <ele>173.4</ele>
    <time>2025-11-02T14:46:01Z</time>
   </trkpt>
   <trkpt lat="53.0248040" lon="-6.2550720">
    <ele>172.9</ele>
    <time>2025-11-02T14:46:07Z</time>
   </trkpt>
   <trkpt lat="53.0247620" lon="-6.2551590">
    <ele>172.5</ele>
    <time>2025-11-02T14:46:12Z</time>
   </trkpt>
   <trkpt lat="53.0247480" lon="-6.2552320">
    <ele>171.9</ele>
    <time>2025-11-02T14:47:55Z</time>
   </trkpt>
   <trkpt lat="53.0247180" lon="-6.2553270">
    <ele>172.1</ele>
    <time>2025-11-02T14:48:01Z</time>
   </trkpt>
   <trkpt lat="53.0246850" lon="-6.2553890">
    <ele>172.4</ele>
    <time>2025-11-02T14:48:06Z</time>
   </trkpt>
   <trkpt lat="53.0246680" lon="-6.2554620">
    <ele>172.7</ele>
    <time>2025-11-02T14:48:11Z</time>
   </trkpt>
   <trkpt lat="53.0246620" lon="-6.2555370">
    <ele>172.7</ele>
    <time>2025-11-02T14:48:18Z</time>
   </trkpt>
   <trkpt lat="53.0246480" lon="-6.2556080">
    <ele>173.6</ele>
    <time>2025-11-02T14:48:26Z</time>
   </trkpt>
   <trkpt lat="53.0246250" lon="-6.2555440">
    <ele>173.8</ele>
    <time>2025-11-02T14:53:06Z</time>
   </trkpt>
   <trkpt lat="53.0246130" lon="-6.2556210">
    <ele>172.6</ele>
    <time>2025-11-02T14:57:12Z</time>
   </trkpt>
   <trkpt lat="53.0246050" lon="-6.2556990">
    <ele>173.3</ele>
    <time>2025-11-02T14:57:19Z</time>
   </trkpt>
   <trkpt lat="53.0245790" lon="-6.2557820">
    <ele>172.8</ele>
    <time>2025-11-02T14:57:24Z</time>
   </trkpt>
   <trkpt lat="53.0245460" lon="-6.2558440">
    <ele>172.7</ele>
    <time>2025-11-02T14:57:30Z</time>
   </trkpt>
   <trkpt lat="53.0245260" lon="-6.2559140">
    <ele>173.2</ele>
    <time>2025-11-02T14:57:39Z</time>
   </trkpt>
   <trkpt lat="53.0245030" lon="-6.2559800">
    <ele>173.3</ele>
    <time>2025-11-02T14:57:44Z</time>
   </trkpt>
   <trkpt lat="53.0244710" lon="-6.2560670">
    <ele>173.6</ele>
    <time>2025-11-02T14:57:49Z</time>
   </trkpt>
   <trkpt lat="53.0244500" lon="-6.2561480">
    <ele>174.2</ele>
    <time>2025-11-02T14:57:57Z</time>
   </trkpt>
   <trkpt lat="53.0244320" lon="-6.2562190">
    <ele>174.4</ele>
    <time>2025-11-02T14:58:03Z</time>
   </trkpt>
   <trkpt lat="53.0244090" lon="-6.2562840">
    <ele>176.2</ele>
    <time>2025-11-02T14:58:12Z</time>
   </trkpt>
   <trkpt lat="53.0243650" lon="-6.2563340">
    <ele>176.3</ele>
    <time>2025-11-02T14:58:17Z</time>
   </trkpt>
   <trkpt lat="53.0243190" lon="-6.2564150">
    <ele>175.6</ele>
    <time>2025-11-02T14:58:23Z</time>
   </trkpt>
   <trkpt lat="53.0242850" lon="-6.2564680">
    <ele>176.2</ele>
    <time>2025-11-02T14:58:28Z</time>
   </trkpt>
   <trkpt lat="53.0242490" lon="-6.2565150">
    <ele>178.3</ele>
    <time>2025-11-02T14:58:33Z</time>
   </trkpt>
   <trkpt lat="53.0242120" lon="-6.2565620">
    <ele>179.6</ele>
    <time>2025-11-02T14:58:40Z</time>
   </trkpt>
   <trkpt lat="53.0241890" lon="-6.2566310">
    <ele>180.1</ele>
    <time>2025-11-02T14:58:46Z</time>
   </trkpt>
   <trkpt lat="53.0241700" lon="-6.2567060">
    <ele>181.2</ele>
    <time>2025-11-02T14:58:53Z</time>
   </trkpt>
   <trkpt lat="53.0241350" lon="-6.2567640">
    <ele>182.2</ele>
    <time>2025-11-02T14:59:00Z</time>
   </trkpt>
   <trkpt lat="53.0241070" lon="-6.2568360">
    <ele>182.1</ele>
    <time>2025-11-02T14:59:06Z</time>
   </trkpt>
   <trkpt lat="53.0240670" lon="-6.2569110">
    <ele>181.9</ele>
    <time>2025-11-02T14:59:12Z</time>
   </trkpt>
   <trkpt lat="53.0240410" lon="-6.2569760">
    <ele>182.7</ele>
    <time>2025-11-02T14:59:17Z</time>
   </trkpt>
   <trkpt lat="53.0240110" lon="-6.2570310">
    <ele>183.0</ele>
    <time>2025-11-02T14:59:23Z</time>
   </trkpt>
   <trkpt lat="53.0239680" lon="-6.2570790">
    <ele>182.7</ele>
    <time>2025-11-02T14:59:30Z</time>
   </trkpt>
   <trkpt lat="53.0239380" lon="-6.2571430">
    <ele>183.6</ele>
    <time>2025-11-02T14:59:38Z</time>
   </trkpt>
   <trkpt lat="53.0239050" lon="-6.2572110">
    <ele>184.2</ele>
    <time>2025-11-02T14:59:46Z</time>
   </trkpt>
   <trkpt lat="53.0238790" lon="-6.2572730">
    <ele>184.1</ele>
    <time>2025-11-02T14:59:54Z</time>
   </trkpt>
   <trkpt lat="53.0238300" lon="-6.2572980">
    <ele>184.8</ele>
    <time>2025-11-02T15:00:01Z</time>
   </trkpt>
   <trkpt lat="53.0237950" lon="-6.2573500">
    <ele>185.2</ele>
    <time>2025-11-02T15:00:08Z</time>
   </trkpt>
   <trkpt lat="53.0237480" lon="-6.2573700">
    <ele>185.2</ele>
    <time>2025-11-02T15:00:16Z</time>
   </trkpt>
   <trkpt lat="53.0237630" lon="-6.2572970">
    <ele>185.3</ele>
    <time>2025-11-02T15:00:26Z</time>
   </trkpt>
   <trkpt lat="53.0238490" lon="-6.2572090">
    <ele>185.5</ele>
    <time>2025-11-02T15:00:31Z</time>
   </trkpt>
   <trkpt lat="53.0238950" lon="-6.2572300">
    <ele>184.7</ele>
    <time>2025-11-02T15:00:54Z</time>
   </trkpt>
   <trkpt lat="53.0238430" lon="-6.2572790">
    <ele>184.5</ele>
    <time>2025-11-02T15:01:42Z</time>
   </trkpt>
   <trkpt lat="53.0237860" lon="-6.2573270">
    <ele>184.2</ele>
    <time>2025-11-02T15:01:47Z</time>
   </trkpt>
   <trkpt lat="53.0237790" lon="-6.2574010">
    <ele>184.9</ele>
    <time>2025-11-02T15:02:01Z</time>
   </trkpt>
   <trkpt lat="53.0237470" lon="-6.2575130">
    <ele>185.4</ele>
    <time>2025-11-02T15:02:06Z</time>
   </trkpt>
   <trkpt lat="53.0237260" lon="-6.2576090">
    <ele>185.6</ele>
    <time>2025-11-02T15:02:12Z</time>
   </trkpt>
   <trkpt lat="53.0236570" lon="-6.2576450">
    <ele>185.5</ele>
    <time>2025-11-02T15:02:17Z</time>
   </trkpt>
   <trkpt lat="53.0236120" lon="-6.2577020">
    <ele>185.9</ele>
    <time>2025-11-02T15:02:23Z</time>
   </trkpt>
   <trkpt lat="53.0235780" lon="-6.2577620">
    <ele>186.6</ele>
    <time>2025-11-02T15:02:28Z</time>
   </trkpt>
   <trkpt lat="53.0235410" lon="-6.2578130">
    <ele>187.5</ele>
    <time>2025-11-02T15:02:33Z</time>
   </trkpt>
   <trkpt lat="53.0234910" lon="-6.2577850">
    <ele>187.8</ele>
    <time>2025-11-02T15:02:38Z</time>
   </trkpt>
   <trkpt lat="53.0234550" lon="-6.2578400">
    <ele>187.9</ele>
    <time>2025-11-02T15:02:47Z</time>
   </trkpt>
   <trkpt lat="53.0234300" lon="-6.2579060">
    <ele>189.4</ele>
    <time>2025-11-02T15:02:54Z</time>
   </trkpt>
   <trkpt lat="53.0233970" lon="-6.2579670">
    <ele>190.2</ele>
    <time>2025-11-02T15:03:01Z</time>
   </trkpt>
   <trkpt lat="53.0233560" lon="-6.2580180">
    <ele>190.6</ele>
    <time>2025-11-02T15:03:09Z</time>
   </trkpt>
   <trkpt lat="53.0233260" lon="-6.2580790">
    <ele>191.5</ele>
    <time>2025-11-02T15:03:21Z</time>
   </trkpt>
   <trkpt lat="53.0232980" lon="-6.2581370">
    <ele>192.1</ele>
    <time>2025-11-02T15:03:26Z</time>
   </trkpt>
   <trkpt lat="53.0232760" lon="-6.2582060">
    <ele>193.1</ele>
    <time>2025-11-02T15:03:32Z</time>
   </trkpt>
   <trkpt lat="53.0232460" lon="-6.2582640">
    <ele>193.9</ele>
    <time>2025-11-02T15:03:37Z</time>
   </trkpt>
   <trkpt lat="53.0232280" lon="-6.2583330">
    <ele>192.9</ele>
    <time>2025-11-02T15:04:16Z</time>
   </trkpt>
   <trkpt lat="53.0232070" lon="-6.2584060">
    <ele>193.5</ele>
    <time>2025-11-02T15:04:34Z</time>
   </trkpt>
   <trkpt lat="53.0231590" lon="-6.2584720">
    <ele>193.6</ele>
    <time>2025-11-02T15:04:39Z</time>
   </trkpt>
   <trkpt lat="53.0231120" lon="-6.2585420">
    <ele>193.6</ele>
    <time>2025-11-02T15:04:44Z</time>
   </trkpt>
   <trkpt lat="53.0230850" lon="-6.2586020">
    <ele>194.1</ele>
    <time>2025-11-02T15:04:49Z</time>
   </trkpt>
   <trkpt lat="53.0230490" lon="-6.2586490">
    <ele>195.0</ele>
    <time>2025-11-02T15:04:57Z</time>
   </trkpt>
   <trkpt lat="53.0230190" lon="-6.2587070">
    <ele>195.7</ele>
    <time>2025-11-02T15:05:05Z</time>
   </trkpt>
   <trkpt lat="53.0229830" lon="-6.2587600">
    <ele>195.7</ele>
    <time>2025-11-02T15:05:11Z</time>
   </trkpt>
   <trkpt lat="53.0229440" lon="-6.2588240">
    <ele>195.6</ele>
    <time>2025-11-02T15:05:16Z</time>
   </trkpt>
   <trkpt lat="53.0229160" lon="-6.2588960">
    <ele>195.9</ele>
    <time>2025-11-02T15:05:22Z</time>
   </trkpt>
   <trkpt lat="53.0228860" lon="-6.2589550">
    <ele>196.3</ele>
    <time>2025-11-02T15:05:28Z</time>
   </trkpt>
   <trkpt lat="53.0228680" lon="-6.2590290">
    <ele>197.2</ele>
    <time>2025-11-02T15:05:34Z</time>
   </trkpt>
   <trkpt lat="53.0228470" lon="-6.2591020">
    <ele>197.5</ele>
    <time>2025-11-02T15:05:43Z</time>
   </trkpt>
   <trkpt lat="53.0228300" lon="-6.2591720">
    <ele>197.6</ele>
    <time>2025-11-02T15:05:49Z</time>
   </trkpt>
   <trkpt lat="53.0228010" lon="-6.2592300">
    <ele>198.6</ele>
    <time>2025-11-02T15:05:56Z</time>
   </trkpt>
   <trkpt lat="53.0227700" lon="-6.2592850">
    <ele>199.5</ele>
    <time>2025-11-02T15:06:02Z</time>
   </trkpt>
   <trkpt lat="53.0227350" lon="-6.2593500">
    <ele>199.7</ele>
    <time>2025-11-02T15:06:07Z</time>
   </trkpt>
   <trkpt lat="53.0227070" lon="-6.2594080">
    <ele>199.7</ele>
    <time>2025-11-02T15:06:13Z</time>
   </trkpt>
   <trkpt lat="53.0226990" lon="-6.2594860">
    <ele>200.1</ele>
    <time>2025-11-02T15:06:19Z</time>
   </trkpt>
   <trkpt lat="53.0226760" lon="-6.2595550">
    <ele>201.5</ele>
    <time>2025-11-02T15:06:28Z</time>
   </trkpt>
   <trkpt lat="53.0226570" lon="-6.2596240">
    <ele>202.1</ele>
    <time>2025-11-02T15:06:35Z</time>
   </trkpt>
   <trkpt lat="53.0226400" lon="-6.2596980">
    <ele>202.0</ele>
    <time>2025-11-02T15:06:42Z</time>
   </trkpt>
   <trkpt lat="53.0226180" lon="-6.2597730">
    <ele>202.5</ele>
    <time>2025-11-02T15:06:48Z</time>
   </trkpt>
   <trkpt lat="53.0225890" lon="-6.2598420">
    <ele>203.3</ele>
    <time>2025-11-02T15:06:55Z</time>
   </trkpt>
   <trkpt lat="53.0225650" lon="-6.2599120">
    <ele>203.9</ele>
    <time>2025-11-02T15:07:01Z</time>
   </trkpt>
   <trkpt lat="53.0225390" lon="-6.2599770">
    <ele>203.9</ele>
    <time>2025-11-02T15:07:07Z</time>
   </trkpt>
   <trkpt lat="53.0225070" lon="-6.2600400">
    <ele>204.4</ele>
    <time>2025-11-02T15:07:13Z</time>
   </trkpt>
   <trkpt lat="53.0224840" lon="-6.2601050">
    <ele>205.4</ele>
    <time>2025-11-02T15:07:20Z</time>
   </trkpt>
   <trkpt lat="53.0224560" lon="-6.2601690">
    <ele>206.1</ele>
    <time>2025-11-02T15:07:25Z</time>
   </trkpt>
   <trkpt lat="53.0224240" lon="-6.2602350">
    <ele>206.4</ele>
    <time>2025-11-02T15:07:32Z</time>
   </trkpt>
   <trkpt lat="53.0224000" lon="-6.2603150">
    <ele>206.3</ele>
    <time>2025-11-02T15:07:38Z</time>
   </trkpt>
   <trkpt lat="53.0223830" lon="-6.2603960">
    <ele>207.2</ele>
    <time>2025-11-02T15:07:43Z</time>
   </trkpt>
   <trkpt lat="53.0223660" lon="-6.2604870">
    <ele>208.3</ele>
    <time>2025-11-02T15:07:49Z</time>
   </trkpt>
   <trkpt lat="53.0223440" lon="-6.2605520">
    <ele>209.1</ele>
    <time>2025-11-02T15:07:55Z</time>
   </trkpt>
   <trkpt lat="53.0223120" lon="-6.2606050">
    <ele>209.5</ele>
    <time>2025-11-02T15:08:00Z</time>
   </trkpt>
   <trkpt lat="53.0222670" lon="-6.2606510">
    <ele>209.7</ele>
    <time>2025-11-02T15:08:06Z</time>
   </trkpt>
   <trkpt lat="53.0222240" lon="-6.2606930">
    <ele>209.2</ele>
    <time>2025-11-02T15:08:13Z</time>
   </trkpt>
   <trkpt lat="53.0221900" lon="-6.2607550">
    <ele>209.7</ele>
    <time>2025-11-02T15:08:18Z</time>
   </trkpt>
   <trkpt lat="53.0221510" lon="-6.2607990">
    <ele>210.1</ele>
    <time>2025-11-02T15:08:24Z</time>
   </trkpt>
   <trkpt lat="53.0221210" lon="-6.2608600">
    <ele>210.9</ele>
    <time>2025-11-02T15:08:31Z</time>
   </trkpt>
   <trkpt lat="53.0220920" lon="-6.2609200">
    <ele>211.4</ele>
    <time>2025-11-02T15:08:37Z</time>
   </trkpt>
   <trkpt lat="53.0220570" lon="-6.2609820">
    <ele>211.9</ele>
    <time>2025-11-02T15:08:43Z</time>
   </trkpt>
   <trkpt lat="53.0220280" lon="-6.2610500">
    <ele>212.7</ele>
    <time>2025-11-02T15:08:48Z</time>
   </trkpt>
   <trkpt lat="53.0220050" lon="-6.2611220">
    <ele>213.3</ele>
    <time>2025-11-02T15:08:55Z</time>
   </trkpt>
   <trkpt lat="53.0219820" lon="-6.2611860">
    <ele>213.7</ele>
    <time>2025-11-02T15:09:01Z</time>
   </trkpt>
   <trkpt lat="53.0219650" lon="-6.2612670">
    <ele>213.3</ele>
    <time>2025-11-02T15:09:07Z</time>
   </trkpt>
   <trkpt lat="53.0219460" lon="-6.2613370">
    <ele>212.9</ele>
    <time>2025-11-02T15:09:13Z</time>
   </trkpt>
   <trkpt lat="53.0219180" lon="-6.2613970">
    <ele>213.5</ele>
    <time>2025-11-02T15:09:19Z</time>
   </trkpt>
   <trkpt lat="53.0218910" lon="-6.2614630">
    <ele>214.9</ele>
    <time>2025-11-02T15:09:25Z</time>
   </trkpt>
   <trkpt lat="53.0218470" lon="-6.2615050">
    <ele>215.0</ele>
    <time>2025-11-02T15:09:32Z</time>
   </trkpt>
   <trkpt lat="53.0218000" lon="-6.2615350">
    <ele>214.8</ele>
    <time>2025-11-02T15:09:37Z</time>
   </trkpt>
   <trkpt lat="53.0217560" lon="-6.2615640">
    <ele>214.8</ele>
    <time>2025-11-02T15:09:43Z</time>
   </trkpt>
   <trkpt lat="53.0217080" lon="-6.2616040">
    <ele>215.9</ele>
    <time>2025-11-02T15:09:48Z</time>
   </trkpt>
   <trkpt lat="53.0216490" lon="-6.2616040">
    <ele>216.8</ele>
    <time>2025-11-02T15:09:53Z</time>
   </trkpt>
   <trkpt lat="53.0216010" lon="-6.2616310">
    <ele>217.3</ele>
    <time>2025-11-02T15:09:59Z</time>
   </trkpt>
   <trkpt lat="53.0215470" lon="-6.2616350">
    <ele>216.4</ele>
    <time>2025-11-02T15:10:04Z</time>
   </trkpt>
   <trkpt lat="53.0214980" lon="-6.2616450">
    <ele>216.0</ele>
    <time>2025-11-02T15:10:10Z</time>
   </trkpt>
   <trkpt lat="53.0214520" lon="-6.2616420">
    <ele>216.7</ele>
    <time>2025-11-02T15:10:16Z</time>
   </trkpt>
   <trkpt lat="53.0214030" lon="-6.2616630">
    <ele>216.9</ele>
    <time>2025-11-02T15:10:21Z</time>
   </trkpt>
   <trkpt lat="53.0213500" lon="-6.2616700">
    <ele>216.9</ele>
    <time>2025-11-02T15:10:27Z</time>
   </trkpt>
   <trkpt lat="53.0212950" lon="-6.2616990">
    <ele>216.6</ele>
    <time>2025-11-02T15:10:32Z</time>
   </trkpt>
   <trkpt lat="53.0212480" lon="-6.2617110">
    <ele>216.3</ele>
    <time>2025-11-02T15:10:37Z</time>
   </trkpt>
   <trkpt lat="53.0212020" lon="-6.2617290">
    <ele>216.5</ele>
    <time>2025-11-02T15:10:43Z</time>
   </trkpt>
   <trkpt lat="53.0211500" lon="-6.2617370">
    <ele>216.7</ele>
    <time>2025-11-02T15:10:49Z</time>
   </trkpt>
   <trkpt lat="53.0210980" lon="-6.2617360">
    <ele>216.3</ele>
    <time>2025-11-02T15:10:54Z</time>
   </trkpt>
   <trkpt lat="53.0210370" lon="-6.2617410">
    <ele>215.6</ele>
    <time>2025-11-02T15:11:00Z</time>
   </trkpt>
   <trkpt lat="53.0209860" lon="-6.2617600">
    <ele>215.2</ele>
    <time>2025-11-02T15:11:05Z</time>
   </trkpt>
   <trkpt lat="53.0209390" lon="-6.2617720">
    <ele>215.5</ele>
    <time>2025-11-02T15:11:11Z</time>
   </trkpt>
   <trkpt lat="53.0208810" lon="-6.2617690">
    <ele>216.2</ele>
    <time>2025-11-02T15:11:16Z</time>
   </trkpt>
   <trkpt lat="53.0208130" lon="-6.2617930">
    <ele>216.3</ele>
    <time>2025-11-02T15:11:22Z</time>
   </trkpt>
   <trkpt lat="53.0207440" lon="-6.2618210">
    <ele>216.9</ele>
    <time>2025-11-02T15:11:27Z</time>
   </trkpt>
   <trkpt lat="53.0206990" lon="-6.2618310">
    <ele>216.9</ele>
    <time>2025-11-02T15:11:32Z</time>
   </trkpt>
   <trkpt lat="53.0206550" lon="-6.2618520">
    <ele>216.7</ele>
    <time>2025-11-02T15:11:39Z</time>
   </trkpt>
   <trkpt lat="53.0205980" lon="-6.2618550">
    <ele>216.7</ele>
    <time>2025-11-02T15:11:44Z</time>
   </trkpt>
   <trkpt lat="53.0205470" lon="-6.2618510">
    <ele>217.2</ele>
    <time>2025-11-02T15:11:50Z</time>
   </trkpt>
   <trkpt lat="53.0204940" lon="-6.2618760">
    <ele>217.2</ele>
    <time>2025-11-02T15:11:55Z</time>
   </trkpt>
   <trkpt lat="53.0204430" lon="-6.2618980">
    <ele>216.4</ele>
    <time>2025-11-02T15:12:00Z</time>
   </trkpt>
   <trkpt lat="53.0203760" lon="-6.2618870">
    <ele>216.2</ele>
    <time>2025-11-02T15:12:06Z</time>
   </trkpt>
   <trkpt lat="53.0203200" lon="-6.2618970">
    <ele>216.3</ele>
    <time>2025-11-02T15:12:11Z</time>
   </trkpt>
   <trkpt lat="53.0202640" lon="-6.2619130">
    <ele>217.0</ele>
    <time>2025-11-02T15:12:16Z</time>
   </trkpt>
   <trkpt lat="53.0202140" lon="-6.2619250">
    <ele>217.4</ele>
    <time>2025-11-02T15:12:21Z</time>
   </trkpt>
   <trkpt lat="53.0201640" lon="-6.2619310">
    <ele>217.0</ele>
    <time>2025-11-02T15:12:26Z</time>
   </trkpt>
   <trkpt lat="53.0201080" lon="-6.2619350">
    <ele>215.5</ele>
    <time>2025-11-02T15:12:31Z</time>
   </trkpt>
   <trkpt lat="53.0200620" lon="-6.2619340">
    <ele>214.9</ele>
    <time>2025-11-02T15:12:37Z</time>
   </trkpt>
   <trkpt lat="53.0200140" lon="-6.2619270">
    <ele>215.1</ele>
    <time>2025-11-02T15:12:44Z</time>
   </trkpt>
   <trkpt lat="53.0199680" lon="-6.2618950">
    <ele>215.6</ele>
    <time>2025-11-02T15:12:49Z</time>
   </trkpt>
   <trkpt lat="53.0199230" lon="-6.2618700">
    <ele>215.8</ele>
    <time>2025-11-02T15:12:54Z</time>
   </trkpt>
   <trkpt lat="53.0198700" lon="-6.2618340">
    <ele>215.2</ele>
    <time>2025-11-02T15:12:59Z</time>
   </trkpt>
   <trkpt lat="53.0197890" lon="-6.2617940">
    <ele>214.9</ele>
    <time>2025-11-02T15:13:05Z</time>
   </trkpt>
   <trkpt lat="53.0197200" lon="-6.2617880">
    <ele>215.0</ele>
    <time>2025-11-02T15:13:10Z</time>
   </trkpt>
   <trkpt lat="53.0196600" lon="-6.2618080">
    <ele>215.5</ele>
    <time>2025-11-02T15:13:15Z</time>
   </trkpt>
   <trkpt lat="53.0195970" lon="-6.2618410">
    <ele>215.1</ele>
    <time>2025-11-02T15:13:20Z</time>
   </trkpt>
   <trkpt lat="53.0195420" lon="-6.2618720">
    <ele>214.4</ele>
    <time>2025-11-02T15:13:26Z</time>
   </trkpt>
   <trkpt lat="53.0194960" lon="-6.2619100">
    <ele>213.7</ele>
    <time>2025-11-02T15:13:31Z</time>
   </trkpt>
   <trkpt lat="53.0194390" lon="-6.2619520">
    <ele>214.4</ele>
    <time>2025-11-02T15:13:36Z</time>
   </trkpt>
   <trkpt lat="53.0193770" lon="-6.2619890">
    <ele>214.8</ele>
    <time>2025-11-02T15:13:41Z</time>
   </trkpt>
   <trkpt lat="53.0193200" lon="-6.2620100">
    <ele>215.3</ele>
    <time>2025-11-02T15:13:47Z</time>
   </trkpt>
   <trkpt lat="53.0192780" lon="-6.2620520">
    <ele>215.4</ele>
    <time>2025-11-02T15:13:52Z</time>
   </trkpt>
   <trkpt lat="53.0192260" lon="-6.2620880">
    <ele>214.3</ele>
    <time>2025-11-02T15:13:57Z</time>
   </trkpt>
   <trkpt lat="53.0191630" lon="-6.2620850">
    <ele>212.6</ele>
    <time>2025-11-02T15:14:02Z</time>
   </trkpt>
   <trkpt lat="53.0191280" lon="-6.2621400">
    <ele>212.6</ele>
    <time>2025-11-02T15:14:08Z</time>
   </trkpt>
   <trkpt lat="53.0190810" lon="-6.2621960">
    <ele>213.3</ele>
    <time>2025-11-02T15:14:13Z</time>
   </trkpt>
   <trkpt lat="53.0190300" lon="-6.2622180">
    <ele>213.6</ele>
    <time>2025-11-02T15:14:19Z</time>
   </trkpt>
   <trkpt lat="53.0189770" lon="-6.2622580">
    <ele>213.6</ele>
    <time>2025-11-02T15:14:25Z</time>
   </trkpt>
   <trkpt lat="53.0189220" lon="-6.2622990">
    <ele>212.4</ele>
    <time>2025-11-02T15:14:30Z</time>
   </trkpt>
   <trkpt lat="53.0188670" lon="-6.2623360">
    <ele>212.6</ele>
    <time>2025-11-02T15:14:36Z</time>
   </trkpt>
   <trkpt lat="53.0188130" lon="-6.2623980">
    <ele>213.0</ele>
    <time>2025-11-02T15:14:41Z</time>
   </trkpt>
   <trkpt lat="53.0187690" lon="-6.2624520">
    <ele>213.3</ele>
    <time>2025-11-02T15:14:47Z</time>
   </trkpt>
   <trkpt lat="53.0187130" lon="-6.2624930">
    <ele>213.4</ele>
    <time>2025-11-02T15:14:52Z</time>
   </trkpt>
   <trkpt lat="53.0186480" lon="-6.2625070">
    <ele>212.1</ele>
    <time>2025-11-02T15:14:57Z</time>
   </trkpt>
   <trkpt lat="53.0186000" lon="-6.2625270">
    <ele>211.5</ele>
    <time>2025-11-02T15:15:02Z</time>
   </trkpt>
   <trkpt lat="53.0185540" lon="-6.2625480">
    <ele>212.2</ele>
    <time>2025-11-02T15:15:08Z</time>
   </trkpt>
   <trkpt lat="53.0185050" lon="-6.2625390">
    <ele>212.5</ele>
    <time>2025-11-02T15:15:13Z</time>
   </trkpt>
   <trkpt lat="53.0184530" lon="-6.2625510">
    <ele>212.4</ele>
    <time>2025-11-02T15:15:19Z</time>
   </trkpt>
   <trkpt lat="53.0184000" lon="-6.2625440">
    <ele>211.8</ele>
    <time>2025-11-02T15:15:24Z</time>
   </trkpt>
   <trkpt lat="53.0183450" lon="-6.2625360">
    <ele>210.7</ele>
    <time>2025-11-02T15:15:30Z</time>
   </trkpt>
   <trkpt lat="53.0182940" lon="-6.2625700">
    <ele>211.5</ele>
    <time>2025-11-02T15:15:35Z</time>
   </trkpt>
   <trkpt lat="53.0182310" lon="-6.2625740">
    <ele>212.2</ele>
    <time>2025-11-02T15:15:40Z</time>
   </trkpt>
   <trkpt lat="53.0181690" lon="-6.2625730">
    <ele>212.7</ele>
    <time>2025-11-02T15:15:45Z</time>
   </trkpt>
   <trkpt lat="53.0181160" lon="-6.2625910">
    <ele>213.1</ele>
    <time>2025-11-02T15:15:50Z</time>
   </trkpt>
   <trkpt lat="53.0180720" lon="-6.2626360">
    <ele>212.0</ele>
    <time>2025-11-02T15:15:55Z</time>
   </trkpt>
   <trkpt lat="53.0180220" lon="-6.2626550">
    <ele>211.4</ele>
    <time>2025-11-02T15:16:01Z</time>
   </trkpt>
   <trkpt lat="53.0179760" lon="-6.2626940">
    <ele>212.1</ele>
    <time>2025-11-02T15:16:06Z</time>
   </trkpt>
   <trkpt lat="53.0179260" lon="-6.2627360">
    <ele>213.4</ele>
    <time>2025-11-02T15:16:11Z</time>
   </trkpt>
   <trkpt lat="53.0178690" lon="-6.2627450">
    <ele>213.7</ele>
    <time>2025-11-02T15:16:16Z</time>
   </trkpt>
   <trkpt lat="53.0178140" lon="-6.2627590">
    <ele>213.6</ele>
    <time>2025-11-02T15:16:21Z</time>
   </trkpt>
   <trkpt lat="53.0177540" lon="-6.2627700">
    <ele>211.8</ele>
    <time>2025-11-02T15:16:27Z</time>
   </trkpt>
   <trkpt lat="53.0176980" lon="-6.2627900">
    <ele>211.9</ele>
    <time>2025-11-02T15:16:32Z</time>
   </trkpt>
   <trkpt lat="53.0176570" lon="-6.2628470">
    <ele>212.3</ele>
    <time>2025-11-02T15:16:37Z</time>
   </trkpt>
   <trkpt lat="53.0176100" lon="-6.2628680">
    <ele>212.1</ele>
    <time>2025-11-02T15:16:42Z</time>
   </trkpt>
   <trkpt lat="53.0175500" lon="-6.2628980">
    <ele>212.2</ele>
    <time>2025-11-02T15:16:47Z</time>
   </trkpt>
   <trkpt lat="53.0175080" lon="-6.2629350">
    <ele>211.5</ele>
    <time>2025-11-02T15:16:53Z</time>
   </trkpt>
   <trkpt lat="53.0174610" lon="-6.2629440">
    <ele>209.6</ele>
    <time>2025-11-02T15:16:58Z</time>
   </trkpt>
   <trkpt lat="53.0174040" lon="-6.2629590">
    <ele>210.3</ele>
    <time>2025-11-02T15:17:03Z</time>
   </trkpt>
   <trkpt lat="53.0173480" lon="-6.2629630">
    <ele>211.3</ele>
    <time>2025-11-02T15:17:08Z</time>
   </trkpt>
   <trkpt lat="53.0172790" lon="-6.2629830">
    <ele>211.7</ele>
    <time>2025-11-02T15:17:13Z</time>
   </trkpt>
   <trkpt lat="53.0172230" lon="-6.2630070">
    <ele>212.5</ele>
    <time>2025-11-02T15:17:19Z</time>
   </trkpt>
   <trkpt lat="53.0171740" lon="-6.2630330">
    <ele>211.8</ele>
    <time>2025-11-02T15:17:24Z</time>
   </trkpt>
   <trkpt lat="53.0171240" lon="-6.2630710">
    <ele>211.1</ele>
    <time>2025-11-02T15:17:29Z</time>
   </trkpt>
   <trkpt lat="53.0170750" lon="-6.2630900">
    <ele>211.8</ele>
    <time>2025-11-02T15:17:35Z</time>
   </trkpt>
   <trkpt lat="53.0170140" lon="-6.2630900">
    <ele>212.2</ele>
    <time>2025-11-02T15:17:40Z</time>
   </trkpt>
   <trkpt lat="53.0169660" lon="-6.2631000">
    <ele>212.5</ele>
    <time>2025-11-02T15:17:46Z</time>
   </trkpt>
   <trkpt lat="53.0169180" lon="-6.2631280">
    <ele>211.6</ele>
    <time>2025-11-02T15:17:53Z</time>
   </trkpt>
   <trkpt lat="53.0168680" lon="-6.2631150">
    <ele>210.2</ele>
    <time>2025-11-02T15:17:58Z</time>
   </trkpt>
   <trkpt lat="53.0168110" lon="-6.2631190">
    <ele>211.2</ele>
    <time>2025-11-02T15:18:03Z</time>
   </trkpt>
   <trkpt lat="53.0167620" lon="-6.2631210">
    <ele>212.2</ele>
    <time>2025-11-02T15:18:08Z</time>
   </trkpt>
   <trkpt lat="53.0167100" lon="-6.2631180">
    <ele>212.7</ele>
    <time>2025-11-02T15:18:14Z</time>
   </trkpt>
   <trkpt lat="53.0166560" lon="-6.2631270">
    <ele>212.8</ele>
    <time>2025-11-02T15:18:19Z</time>
   </trkpt>
   <trkpt lat="53.0166080" lon="-6.2631340">
    <ele>210.3</ele>
    <time>2025-11-02T15:18:24Z</time>
   </trkpt>
   <trkpt lat="53.0165600" lon="-6.2631380">
    <ele>210.6</ele>
    <time>2025-11-02T15:18:30Z</time>
   </trkpt>
   <trkpt lat="53.0165100" lon="-6.2631320">
    <ele>211.6</ele>
    <time>2025-11-02T15:18:36Z</time>
   </trkpt>
   <trkpt lat="53.0164600" lon="-6.2631440">
    <ele>212.4</ele>
    <time>2025-11-02T15:18:42Z</time>
   </trkpt>
   <trkpt lat="53.0164050" lon="-6.2631400">
    <ele>212.7</ele>
    <time>2025-11-02T15:18:47Z</time>
   </trkpt>
   <trkpt lat="53.0163550" lon="-6.2631400">
    <ele>211.5</ele>
    <time>2025-11-02T15:18:52Z</time>
   </trkpt>
   <trkpt lat="53.0163070" lon="-6.2631250">
    <ele>211.3</ele>
    <time>2025-11-02T15:18:58Z</time>
   </trkpt>
   <trkpt lat="53.0162590" lon="-6.2630990">
    <ele>212.2</ele>
    <time>2025-11-02T15:19:03Z</time>
   </trkpt>
   <trkpt lat="53.0161990" lon="-6.2630560">
    <ele>212.0</ele>
    <time>2025-11-02T15:19:09Z</time>
   </trkpt>
   <trkpt lat="53.0161470" lon="-6.2630260">
    <ele>211.4</ele>
    <time>2025-11-02T15:19:14Z</time>
   </trkpt>
   <trkpt lat="53.0160940" lon="-6.2630270">
    <ele>211.1</ele>
    <time>2025-11-02T15:19:19Z</time>
   </trkpt>
   <trkpt lat="53.0160300" lon="-6.2630390">
    <ele>209.4</ele>
    <time>2025-11-02T15:19:25Z</time>
   </trkpt>
   <trkpt lat="53.0159670" lon="-6.2630270">
    <ele>210.3</ele>
    <time>2025-11-02T15:19:30Z</time>
   </trkpt>
   <trkpt lat="53.0159120" lon="-6.2630130">
    <ele>210.0</ele>
    <time>2025-11-02T15:19:35Z</time>
   </trkpt>
   <trkpt lat="53.0158560" lon="-6.2630310">
    <ele>209.9</ele>
    <time>2025-11-02T15:19:40Z</time>
   </trkpt>
   <trkpt lat="53.0158000" lon="-6.2630350">
    <ele>210.4</ele>
    <time>2025-11-02T15:19:45Z</time>
   </trkpt>
   <trkpt lat="53.0157530" lon="-6.2630280">
    <ele>208.5</ele>
    <time>2025-11-02T15:19:51Z</time>
   </trkpt>
   <trkpt lat="53.0156920" lon="-6.2630150">
    <ele>208.2</ele>
    <time>2025-11-02T15:19:56Z</time>
   </trkpt>
   <trkpt lat="53.0156320" lon="-6.2630170">
    <ele>207.8</ele>
    <time>2025-11-02T15:20:01Z</time>
   </trkpt>
   <trkpt lat="53.0155790" lon="-6.2630350">
    <ele>209.4</ele>
    <time>2025-11-02T15:20:07Z</time>
   </trkpt>
   <trkpt lat="53.0155230" lon="-6.2630470">
    <ele>210.2</ele>
    <time>2025-11-02T15:20:12Z</time>
   </trkpt>
   <trkpt lat="53.0154780" lon="-6.2630740">
    <ele>209.4</ele>
    <time>2025-11-02T15:20:17Z</time>
   </trkpt>
   <trkpt lat="53.0154260" lon="-6.2630890">
    <ele>206.1</ele>
    <time>2025-11-02T15:20:24Z</time>
   </trkpt>
   <trkpt lat="53.0153780" lon="-6.2630910">
    <ele>206.0</ele>
    <time>2025-11-02T15:20:30Z</time>
   </trkpt>
   <trkpt lat="53.0153290" lon="-6.2631190">
    <ele>206.9</ele>
    <time>2025-11-02T15:20:35Z</time>
   </trkpt>
   <trkpt lat="53.0152750" lon="-6.2631240">
    <ele>207.2</ele>
    <time>2025-11-02T15:20:40Z</time>
   </trkpt>
   <trkpt lat="53.0152220" lon="-6.2631210">
    <ele>206.8</ele>
    <time>2025-11-02T15:20:45Z</time>
   </trkpt>
   <trkpt lat="53.0151780" lon="-6.2631380">
    <ele>204.7</ele>
    <time>2025-11-02T15:20:51Z</time>
   </trkpt>
   <trkpt lat="53.0151260" lon="-6.2631470">
    <ele>204.4</ele>
    <time>2025-11-02T15:20:56Z</time>
   </trkpt>
   <trkpt lat="53.0150780" lon="-6.2631430">
    <ele>204.1</ele>
    <time>2025-11-02T15:21:01Z</time>
   </trkpt>
   <trkpt lat="53.0150340" lon="-6.2631710">
    <ele>204.1</ele>
    <time>2025-11-02T15:21:07Z</time>
   </trkpt>
   <trkpt lat="53.0149800" lon="-6.2632230">
    <ele>203.9</ele>
    <time>2025-11-02T15:21:12Z</time>
   </trkpt>
   <trkpt lat="53.0149270" lon="-6.2632600">
    <ele>201.5</ele>
    <time>2025-11-02T15:21:18Z</time>
   </trkpt>
   <trkpt lat="53.0148750" lon="-6.2632710">
    <ele>200.4</ele>
    <time>2025-11-02T15:21:24Z</time>
   </trkpt>
   <trkpt lat="53.0148290" lon="-6.2632540">
    <ele>200.4</ele>
    <time>2025-11-02T15:21:29Z</time>
   </trkpt>
   <trkpt lat="53.0147790" lon="-6.2632560">
    <ele>201.5</ele>
    <time>2025-11-02T15:21:36Z</time>
   </trkpt>
   <trkpt lat="53.0147200" lon="-6.2632120">
    <ele>201.6</ele>
    <time>2025-11-02T15:21:42Z</time>
   </trkpt>
   <trkpt lat="53.0146500" lon="-6.2631750">
    <ele>199.0</ele>
    <time>2025-11-02T15:21:47Z</time>
   </trkpt>
   <trkpt lat="53.0145940" lon="-6.2631770">
    <ele>198.8</ele>
    <time>2025-11-02T15:21:53Z</time>
   </trkpt>
   <trkpt lat="53.0145500" lon="-6.2631900">
    <ele>198.9</ele>
    <time>2025-11-02T15:22:00Z</time>
   </trkpt>
   <trkpt lat="53.0145030" lon="-6.2631970">
    <ele>198.6</ele>
    <time>2025-11-02T15:22:07Z</time>
   </trkpt>
   <trkpt lat="53.0144570" lon="-6.2632060">
    <ele>197.8</ele>
    <time>2025-11-02T15:22:13Z</time>
   </trkpt>
   <trkpt lat="53.0144050" lon="-6.2632260">
    <ele>197.8</ele>
    <time>2025-11-02T15:22:19Z</time>
   </trkpt>
   <trkpt lat="53.0143510" lon="-6.2632560">
    <ele>198.3</ele>
    <time>2025-11-02T15:22:24Z</time>
   </trkpt>
   <trkpt lat="53.0142880" lon="-6.2632290">
    <ele>197.4</ele>
    <time>2025-11-02T15:22:29Z</time>
   </trkpt>
   <trkpt lat="53.0142290" lon="-6.2632090">
    <ele>199.2</ele>
    <time>2025-11-02T15:22:35Z</time>
   </trkpt>
   <trkpt lat="53.0141820" lon="-6.2632120">
    <ele>197.7</ele>
    <time>2025-11-02T15:22:41Z</time>
   </trkpt>
   <trkpt lat="53.0141360" lon="-6.2632240">
    <ele>195.8</ele>
    <time>2025-11-02T15:22:47Z</time>
   </trkpt>
   <trkpt lat="53.0140920" lon="-6.2632410">
    <ele>196.1</ele>
    <time>2025-11-02T15:22:53Z</time>
   </trkpt>
   <trkpt lat="53.0140420" lon="-6.2632550">
    <ele>197.4</ele>
    <time>2025-11-02T15:23:02Z</time>
   </trkpt>
   <trkpt lat="53.0139950" lon="-6.2632290">
    <ele>197.1</ele>
    <time>2025-11-02T15:23:09Z</time>
   </trkpt>
   <trkpt lat="53.0139490" lon="-6.2632050">
    <ele>197.0</ele>
    <time>2025-11-02T15:23:15Z</time>
   </trkpt>
   <trkpt lat="53.0138970" lon="-6.2632000">
    <ele>196.2</ele>
    <time>2025-11-02T15:23:21Z</time>
   </trkpt>
   <trkpt lat="53.0138340" lon="-6.2631950">
    <ele>196.8</ele>
    <time>2025-11-02T15:23:26Z</time>
   </trkpt>
   <trkpt lat="53.0137840" lon="-6.2631910">
    <ele>196.5</ele>
    <time>2025-11-02T15:23:32Z</time>
   </trkpt>
   <trkpt lat="53.0137370" lon="-6.2631950">
    <ele>194.4</ele>
    <time>2025-11-02T15:23:40Z</time>
   </trkpt>
   <trkpt lat="53.0136710" lon="-6.2631820">
    <ele>193.5</ele>
    <time>2025-11-02T15:23:45Z</time>
   </trkpt>
   <trkpt lat="53.0136180" lon="-6.2631700">
    <ele>195.1</ele>
    <time>2025-11-02T15:23:51Z</time>
   </trkpt>
   <trkpt lat="53.0135530" lon="-6.2631550">
    <ele>197.2</ele>
    <time>2025-11-02T15:23:56Z</time>
   </trkpt>
   <trkpt lat="53.0135020" lon="-6.2631270">
    <ele>195.7</ele>
    <time>2025-11-02T15:24:02Z</time>
   </trkpt>
   <trkpt lat="53.0134650" lon="-6.2630780">
    <ele>193.7</ele>
    <time>2025-11-02T15:24:08Z</time>
   </trkpt>
   <trkpt lat="53.0134200" lon="-6.2630320">
    <ele>194.4</ele>
    <time>2025-11-02T15:24:13Z</time>
   </trkpt>
   <trkpt lat="53.0133770" lon="-6.2630030">
    <ele>195.1</ele>
    <time>2025-11-02T15:24:18Z</time>
   </trkpt>
   <trkpt lat="53.0133340" lon="-6.2629570">
    <ele>195.1</ele>
    <time>2025-11-02T15:24:23Z</time>
   </trkpt>
   <trkpt lat="53.0132920" lon="-6.2629150">
    <ele>195.3</ele>
    <time>2025-11-02T15:24:29Z</time>
   </trkpt>
   <trkpt lat="53.0132450" lon="-6.2628960">
    <ele>193.8</ele>
    <time>2025-11-02T15:24:34Z</time>
   </trkpt>
   <trkpt lat="53.0131980" lon="-6.2628770">
    <ele>194.3</ele>
    <time>2025-11-02T15:24:39Z</time>
   </trkpt>
   <trkpt lat="53.0131540" lon="-6.2628600">
    <ele>194.2</ele>
    <time>2025-11-02T15:24:45Z</time>
   </trkpt>
   <trkpt lat="53.0131070" lon="-6.2628360">
    <ele>193.7</ele>
    <time>2025-11-02T15:24:50Z</time>
   </trkpt>
   <trkpt lat="53.0130610" lon="-6.2628120">
    <ele>193.2</ele>
    <time>2025-11-02T15:24:56Z</time>
   </trkpt>
   <trkpt lat="53.0130180" lon="-6.2627690">
    <ele>192.7</ele>
    <time>2025-11-02T15:25:01Z</time>
   </trkpt>
   <trkpt lat="53.0129680" lon="-6.2627670">
    <ele>192.0</ele>
    <time>2025-11-02T15:25:09Z</time>
   </trkpt>
   <trkpt lat="53.0129230" lon="-6.2627360">
    <ele>191.4</ele>
    <time>2025-11-02T15:25:15Z</time>
   </trkpt>
   <trkpt lat="53.0128620" lon="-6.2627090">
    <ele>191.2</ele>
    <time>2025-11-02T15:25:20Z</time>
   </trkpt>
   <trkpt lat="53.0127800" lon="-6.2626850">
    <ele>190.8</ele>
    <time>2025-11-02T15:25:26Z</time>
   </trkpt>
   <trkpt lat="53.0127290" lon="-6.2627280">
    <ele>190.5</ele>
    <time>2025-11-02T15:25:31Z</time>
   </trkpt>
   <trkpt lat="53.0126710" lon="-6.2627610">
    <ele>189.7</ele>
    <time>2025-11-02T15:25:37Z</time>
   </trkpt>
   <trkpt lat="53.0126280" lon="-6.2627960">
    <ele>188.8</ele>
    <time>2025-11-02T15:25:42Z</time>
   </trkpt>
   <trkpt lat="53.0125740" lon="-6.2628000">
    <ele>188.0</ele>
    <time>2025-11-02T15:25:48Z</time>
   </trkpt>
   <trkpt lat="53.0125270" lon="-6.2628040">
    <ele>187.1</ele>
    <time>2025-11-02T15:25:54Z</time>
   </trkpt>
   <trkpt lat="53.0124840" lon="-6.2628260">
    <ele>186.6</ele>
    <time>2025-11-02T15:26:00Z</time>
   </trkpt>
   <trkpt lat="53.0124400" lon="-6.2628400">
    <ele>186.0</ele>
    <time>2025-11-02T15:26:05Z</time>
   </trkpt>
   <trkpt lat="53.0123880" lon="-6.2628590">
    <ele>185.2</ele>
    <time>2025-11-02T15:26:10Z</time>
   </trkpt>
   <trkpt lat="53.0123490" lon="-6.2629110">
    <ele>184.7</ele>
    <time>2025-11-02T15:26:16Z</time>
   </trkpt>
   <trkpt lat="53.0123040" lon="-6.2629450">
    <ele>184.2</ele>
    <time>2025-11-02T15:26:23Z</time>
   </trkpt>
   <trkpt lat="53.0122740" lon="-6.2630010">
    <ele>183.5</ele>
    <time>2025-11-02T15:26:30Z</time>
   </trkpt>
   <trkpt lat="53.0122620" lon="-6.2630870">
    <ele>183.2</ele>
    <time>2025-11-02T15:26:35Z</time>
   </trkpt>
   <trkpt lat="53.0122590" lon="-6.2631700">
    <ele>183.1</ele>
    <time>2025-11-02T15:26:40Z</time>
   </trkpt>
   <trkpt lat="53.0122530" lon="-6.2632570">
    <ele>182.3</ele>
    <time>2025-11-02T15:26:45Z</time>
   </trkpt>
   <trkpt lat="53.0122660" lon="-6.2633450">
    <ele>181.5</ele>
    <time>2025-11-02T15:26:51Z</time>
   </trkpt>
   <trkpt lat="53.0122720" lon="-6.2634320">
    <ele>181.5</ele>
    <time>2025-11-02T15:26:56Z</time>
   </trkpt>
   <trkpt lat="53.0122760" lon="-6.2635160">
    <ele>180.7</ele>
    <time>2025-11-02T15:27:01Z</time>
   </trkpt>
   <trkpt lat="53.0122800" lon="-6.2636030">
    <ele>180.3</ele>
    <time>2025-11-02T15:27:06Z</time>
   </trkpt>
   <trkpt lat="53.0122850" lon="-6.2636920">
    <ele>180.1</ele>
    <time>2025-11-02T15:27:12Z</time>
   </trkpt>
   <trkpt lat="53.0122820" lon="-6.2637750">
    <ele>179.8</ele>
    <time>2025-11-02T15:27:17Z</time>
   </trkpt>
   <trkpt lat="53.0122760" lon="-6.2638670">
    <ele>179.5</ele>
    <time>2025-11-02T15:27:22Z</time>
   </trkpt>
   <trkpt lat="53.0122650" lon="-6.2639530">
    <ele>179.0</ele>
    <time>2025-11-02T15:27:27Z</time>
   </trkpt>
   <trkpt lat="53.0122540" lon="-6.2640360">
    <ele>178.5</ele>
    <time>2025-11-02T15:27:32Z</time>
   </trkpt>
   <trkpt lat="53.0122280" lon="-6.2641220">
    <ele>178.1</ele>
    <time>2025-11-02T15:27:38Z</time>
   </trkpt>
   <trkpt lat="53.0122120" lon="-6.2641940">
    <ele>177.9</ele>
    <time>2025-11-02T15:27:43Z</time>
   </trkpt>
   <trkpt lat="53.0121860" lon="-6.2642610">
    <ele>177.5</ele>
    <time>2025-11-02T15:27:48Z</time>
   </trkpt>
   <trkpt lat="53.0121590" lon="-6.2643380">
    <ele>177.2</ele>
    <time>2025-11-02T15:27:53Z</time>
   </trkpt>
   <trkpt lat="53.0121320" lon="-6.2644010">
    <ele>177.0</ele>
    <time>2025-11-02T15:27:58Z</time>
   </trkpt>
   <trkpt lat="53.0120970" lon="-6.2644790">
    <ele>176.8</ele>
    <time>2025-11-02T15:28:03Z</time>
   </trkpt>
   <trkpt lat="53.0120740" lon="-6.2645530">
    <ele>176.4</ele>
    <time>2025-11-02T15:28:08Z</time>
   </trkpt>
   <trkpt lat="53.0120280" lon="-6.2646300">
    <ele>175.9</ele>
    <time>2025-11-02T15:28:14Z</time>
   </trkpt>
   <trkpt lat="53.0119900" lon="-6.2647070">
    <ele>175.7</ele>
    <time>2025-11-02T15:28:20Z</time>
   </trkpt>
   <trkpt lat="53.0119700" lon="-6.2647800">
    <ele>175.3</ele>
    <time>2025-11-02T15:28:25Z</time>
   </trkpt>
   <trkpt lat="53.0119310" lon="-6.2648520">
    <ele>175.1</ele>
    <time>2025-11-02T15:28:31Z</time>
   </trkpt>
   <trkpt lat="53.0118870" lon="-6.2649100">
    <ele>175.2</ele>
    <time>2025-11-02T15:28:36Z</time>
   </trkpt>
   <trkpt lat="53.0118420" lon="-6.2649670">
    <ele>175.4</ele>
    <time>2025-11-02T15:28:42Z</time>
   </trkpt>
   <trkpt lat="53.0118180" lon="-6.2650540">
    <ele>175.5</ele>
    <time>2025-11-02T15:28:47Z</time>
   </trkpt>
   <trkpt lat="53.0118080" lon="-6.2651430">
    <ele>175.5</ele>
    <time>2025-11-02T15:28:52Z</time>
   </trkpt>
   <trkpt lat="53.0117830" lon="-6.2652180">
    <ele>175.4</ele>
    <time>2025-11-02T15:28:57Z</time>
   </trkpt>
   <trkpt lat="53.0117360" lon="-6.2652860">
    <ele>175.5</ele>
    <time>2025-11-02T15:29:03Z</time>
   </trkpt>
   <trkpt lat="53.0117110" lon="-6.2653580">
    <ele>175.8</ele>
    <time>2025-11-02T15:29:08Z</time>
   </trkpt>
   <trkpt lat="53.0116770" lon="-6.2654320">
    <ele>175.9</ele>
    <time>2025-11-02T15:29:14Z</time>
   </trkpt>
   <trkpt lat="53.0116660" lon="-6.2655160">
    <ele>176.0</ele>
    <time>2025-11-02T15:29:19Z</time>
   </trkpt>
   <trkpt lat="53.0116490" lon="-6.2655920">
    <ele>176.1</ele>
    <time>2025-11-02T15:29:24Z</time>
   </trkpt>
   <trkpt lat="53.0116560" lon="-6.2656770">
    <ele>176.2</ele>
    <time>2025-11-02T15:29:30Z</time>
   </trkpt>
   <trkpt lat="53.0116710" lon="-6.2657710">
    <ele>176.3</ele>
    <time>2025-11-02T15:29:35Z</time>
   </trkpt>
   <trkpt lat="53.0117070" lon="-6.2658620">
    <ele>176.5</ele>
    <time>2025-11-02T15:29:40Z</time>
   </trkpt>
   <trkpt lat="53.0117260" lon="-6.2659460">
    <ele>176.6</ele>
    <time>2025-11-02T15:29:45Z</time>
   </trkpt>
   <trkpt lat="53.0117370" lon="-6.2660460">
    <ele>176.8</ele>
    <time>2025-11-02T15:29:51Z</time>
   </trkpt>
   <trkpt lat="53.0117560" lon="-6.2661380">
    <ele>176.9</ele>
    <time>2025-11-02T15:29:56Z</time>
   </trkpt>
   <trkpt lat="53.0117810" lon="-6.2662090">
    <ele>176.7</ele>
    <time>2025-11-02T15:30:01Z</time>
   </trkpt>
   <trkpt lat="53.0118070" lon="-6.2662940">
    <ele>176.6</ele>
    <time>2025-11-02T15:30:06Z</time>
   </trkpt>
   <trkpt lat="53.0118090" lon="-6.2664010">
    <ele>176.7</ele>
    <time>2025-11-02T15:30:12Z</time>
   </trkpt>
   <trkpt lat="53.0118220" lon="-6.2664870">
    <ele>176.8</ele>
    <time>2025-11-02T15:30:17Z</time>
   </trkpt>
   <trkpt lat="53.0118380" lon="-6.2665770">
    <ele>176.5</ele>
    <time>2025-11-02T15:30:22Z</time>
   </trkpt>
   <trkpt lat="53.0118580" lon="-6.2666620">
    <ele>176.3</ele>
    <time>2025-11-02T15:30:27Z</time>
   </trkpt>
   <trkpt lat="53.0118750" lon="-6.2667420">
    <ele>176.2</ele>
    <time>2025-11-02T15:30:32Z</time>
   </trkpt>
   <trkpt lat="53.0118910" lon="-6.2668140">
    <ele>176.1</ele>
    <time>2025-11-02T15:30:38Z</time>
   </trkpt>
   <trkpt lat="53.0119010" lon="-6.2669060">
    <ele>176.0</ele>
    <time>2025-11-02T15:30:44Z</time>
   </trkpt>
   <trkpt lat="53.0119110" lon="-6.2669980">
    <ele>175.9</ele>
    <time>2025-11-02T15:30:49Z</time>
   </trkpt>
   <trkpt lat="53.0119210" lon="-6.2671050">
    <ele>175.6</ele>
    <time>2025-11-02T15:30:54Z</time>
   </trkpt>
   <trkpt lat="53.0119450" lon="-6.2671930">
    <ele>175.2</ele>
    <time>2025-11-02T15:30:59Z</time>
   </trkpt>
   <trkpt lat="53.0119520" lon="-6.2672790">
    <ele>175.2</ele>
    <time>2025-11-02T15:31:04Z</time>
   </trkpt>
   <trkpt lat="53.0119670" lon="-6.2673490">
    <ele>175.1</ele>
    <time>2025-11-02T15:31:09Z</time>
   </trkpt>
   <trkpt lat="53.0119900" lon="-6.2674240">
    <ele>175.0</ele>
    <time>2025-11-02T15:31:15Z</time>
   </trkpt>
   <trkpt lat="53.0119910" lon="-6.2675360">
    <ele>174.4</ele>
    <time>2025-11-02T15:31:20Z</time>
   </trkpt>
   <trkpt lat="53.0120040" lon="-6.2676200">
    <ele>174.2</ele>
    <time>2025-11-02T15:31:26Z</time>
   </trkpt>
   <trkpt lat="53.0120110" lon="-6.2676940">
    <ele>173.8</ele>
    <time>2025-11-02T15:31:32Z</time>
   </trkpt>
   <trkpt lat="53.0120170" lon="-6.2677890">
    <ele>173.4</ele>
    <time>2025-11-02T15:31:37Z</time>
   </trkpt>
   <trkpt lat="53.0120430" lon="-6.2678690">
    <ele>172.8</ele>
    <time>2025-11-02T15:31:42Z</time>
   </trkpt>
   <trkpt lat="53.0120090" lon="-6.2679550">
    <ele>172.3</ele>
    <time>2025-11-02T15:31:47Z</time>
   </trkpt>
   <trkpt lat="53.0120100" lon="-6.2678770">
    <ele>171.6</ele>
    <time>2025-11-02T15:31:56Z</time>
   </trkpt>
   <trkpt lat="53.0120730" lon="-6.2678520">
    <ele>171.6</ele>
    <time>2025-11-02T15:32:02Z</time>
   </trkpt>
   <trkpt lat="53.0121390" lon="-6.2678670">
    <ele>171.5</ele>
    <time>2025-11-02T15:32:07Z</time>
   </trkpt>
   <trkpt lat="53.0121870" lon="-6.2678660">
    <ele>171.0</ele>
    <time>2025-11-02T15:32:30Z</time>
   </trkpt>
   <trkpt lat="53.0121410" lon="-6.2678570">
    <ele>170.9</ele>
    <time>2025-11-02T15:33:09Z</time>
   </trkpt>
   <trkpt lat="53.0120810" lon="-6.2678090">
    <ele>170.7</ele>
    <time>2025-11-02T15:33:14Z</time>
   </trkpt>
   <trkpt lat="53.0120300" lon="-6.2678280">
    <ele>170.4</ele>
    <time>2025-11-02T15:33:20Z</time>
   </trkpt>
   <trkpt lat="53.0120250" lon="-6.2679770">
    <ele>170.1</ele>
    <time>2025-11-02T15:33:25Z</time>
   </trkpt>
   <trkpt lat="53.0120000" lon="-6.2680930">
    <ele>170.1</ele>
    <time>2025-11-02T15:33:30Z</time>
   </trkpt>
   <trkpt lat="53.0119700" lon="-6.2681580">
    <ele>170.0</ele>
    <time>2025-11-02T15:33:35Z</time>
   </trkpt>
   <trkpt lat="53.0119220" lon="-6.2682270">
    <ele>170.5</ele>
    <time>2025-11-02T15:33:41Z</time>
   </trkpt>
   <trkpt lat="53.0118690" lon="-6.2682850">
    <ele>170.5</ele>
    <time>2025-11-02T15:33:46Z</time>
   </trkpt>
   <trkpt lat="53.0118250" lon="-6.2683480">
    <ele>170.0</ele>
    <time>2025-11-02T15:33:52Z</time>
   </trkpt>
   <trkpt lat="53.0117820" lon="-6.2683930">
    <ele>169.0</ele>
    <time>2025-11-02T15:33:57Z</time>
   </trkpt>
   <trkpt lat="53.0117410" lon="-6.2684280">
    <ele>168.2</ele>
    <time>2025-11-02T15:34:02Z</time>
   </trkpt>
   <trkpt lat="53.0116920" lon="-6.2684510">
    <ele>167.5</ele>
    <time>2025-11-02T15:34:07Z</time>
   </trkpt>
   <trkpt lat="53.0116490" lon="-6.2685040">
    <ele>166.9</ele>
    <time>2025-11-02T15:34:12Z</time>
   </trkpt>
   <trkpt lat="53.0116210" lon="-6.2686150">
    <ele>166.2</ele>
    <time>2025-11-02T15:34:18Z</time>
   </trkpt>
   <trkpt lat="53.0116060" lon="-6.2687240">
    <ele>165.5</ele>
    <time>2025-11-02T15:34:24Z</time>
   </trkpt>
   <trkpt lat="53.0115910" lon="-6.2688280">
    <ele>164.9</ele>
    <time>2025-11-02T15:34:29Z</time>
   </trkpt>
   <trkpt lat="53.0115870" lon="-6.2689290">
    <ele>164.4</ele>
    <time>2025-11-02T15:34:34Z</time>
   </trkpt>
   <trkpt lat="53.0115930" lon="-6.2690160">
    <ele>163.9</ele>
    <time>2025-11-02T15:34:39Z</time>
   </trkpt>
   <trkpt lat="53.0116080" lon="-6.2691120">
    <ele>163.5</ele>
    <time>2025-11-02T15:34:45Z</time>
   </trkpt>
   <trkpt lat="53.0116400" lon="-6.2692000">
    <ele>162.8</ele>
    <time>2025-11-02T15:34:50Z</time>
   </trkpt>
   <trkpt lat="53.0116580" lon="-6.2693010">
    <ele>162.3</ele>
    <time>2025-11-02T15:34:55Z</time>
   </trkpt>
   <trkpt lat="53.0116530" lon="-6.2693900">
    <ele>161.9</ele>
    <time>2025-11-02T15:35:00Z</time>
   </trkpt>
   <trkpt lat="53.0116450" lon="-6.2694810">
    <ele>161.4</ele>
    <time>2025-11-02T15:35:06Z</time>
   </trkpt>
   <trkpt lat="53.0116290" lon="-6.2695810">
    <ele>161.1</ele>
    <time>2025-11-02T15:35:11Z</time>
   </trkpt>
   <trkpt lat="53.0115980" lon="-6.2696600">
    <ele>161.0</ele>
    <time>2025-11-02T15:35:16Z</time>
   </trkpt>
   <trkpt lat="53.0115510" lon="-6.2697220">
    <ele>161.0</ele>
    <time>2025-11-02T15:35:22Z</time>
   </trkpt>
   <trkpt lat="53.0114990" lon="-6.2697520">
    <ele>160.7</ele>
    <time>2025-11-02T15:35:28Z</time>
   </trkpt>
   <trkpt lat="53.0114500" lon="-6.2697930">
    <ele>160.6</ele>
    <time>2025-11-02T15:35:34Z</time>
   </trkpt>
   <trkpt lat="53.0114010" lon="-6.2698360">
    <ele>161.0</ele>
    <time>2025-11-02T15:35:40Z</time>
   </trkpt>
   <trkpt lat="53.0113590" lon="-6.2698830">
    <ele>161.0</ele>
    <time>2025-11-02T15:35:45Z</time>
   </trkpt>
   <trkpt lat="53.0113160" lon="-6.2699350">
    <ele>161.3</ele>
    <time>2025-11-02T15:35:51Z</time>
   </trkpt>
   <trkpt lat="53.0112760" lon="-6.2699760">
    <ele>161.5</ele>
    <time>2025-11-02T15:35:57Z</time>
   </trkpt>
   <trkpt lat="53.0112290" lon="-6.2700290">
    <ele>161.6</ele>
    <time>2025-11-02T15:36:02Z</time>
   </trkpt>
   <trkpt lat="53.0111830" lon="-6.2700850">
    <ele>162.0</ele>
    <time>2025-11-02T15:36:07Z</time>
   </trkpt>
   <trkpt lat="53.0111410" lon="-6.2701420">
    <ele>162.3</ele>
    <time>2025-11-02T15:36:12Z</time>
   </trkpt>
   <trkpt lat="53.0110880" lon="-6.2702000">
    <ele>162.7</ele>
    <time>2025-11-02T15:36:18Z</time>
   </trkpt>
   <trkpt lat="53.0110400" lon="-6.2702550">
    <ele>163.1</ele>
    <time>2025-11-02T15:36:23Z</time>
   </trkpt>
   <trkpt lat="53.0109970" lon="-6.2703120">
    <ele>163.3</ele>
    <time>2025-11-02T15:36:29Z</time>
   </trkpt>
   <trkpt lat="53.0109540" lon="-6.2703760">
    <ele>163.4</ele>
    <time>2025-11-02T15:36:34Z</time>
   </trkpt>
   <trkpt lat="53.0109160" lon="-6.2704310">
    <ele>163.6</ele>
    <time>2025-11-02T15:36:40Z</time>
   </trkpt>
   <trkpt lat="53.0108780" lon="-6.2704770">
    <ele>164.0</ele>
    <time>2025-11-02T15:36:45Z</time>
   </trkpt>
   <trkpt lat="53.0108390" lon="-6.2705440">
    <ele>164.4</ele>
    <time>2025-11-02T15:36:50Z</time>
   </trkpt>
   <trkpt lat="53.0108040" lon="-6.2706040">
    <ele>164.7</ele>
    <time>2025-11-02T15:36:57Z</time>
   </trkpt>
   <trkpt lat="53.0107620" lon="-6.2706580">
    <ele>165.1</ele>
    <time>2025-11-02T15:37:02Z</time>
   </trkpt>
   <trkpt lat="53.0107230" lon="-6.2707090">
    <ele>165.2</ele>
    <time>2025-11-02T15:37:07Z</time>
   </trkpt>
   <trkpt lat="53.0106880" lon="-6.2707670">
    <ele>165.2</ele>
    <time>2025-11-02T15:37:12Z</time>
   </trkpt>
   <trkpt lat="53.0106480" lon="-6.2708190">
    <ele>165.1</ele>
    <time>2025-11-02T15:37:17Z</time>
   </trkpt>
   <trkpt lat="53.0106070" lon="-6.2708650">
    <ele>165.3</ele>
    <time>2025-11-02T15:37:23Z</time>
   </trkpt>
   <trkpt lat="53.0105700" lon="-6.2709120">
    <ele>165.1</ele>
    <time>2025-11-02T15:37:28Z</time>
   </trkpt>
   <trkpt lat="53.0105350" lon="-6.2709790">
    <ele>165.7</ele>
    <time>2025-11-02T15:37:34Z</time>
   </trkpt>
   <trkpt lat="53.0105010" lon="-6.2710470">
    <ele>166.0</ele>
    <time>2025-11-02T15:37:39Z</time>
   </trkpt>
   <trkpt lat="53.0104690" lon="-6.2711050">
    <ele>166.1</ele>
    <time>2025-11-02T15:37:44Z</time>
   </trkpt>
   <trkpt lat="53.0104220" lon="-6.2711250">
    <ele>166.0</ele>
    <time>2025-11-02T15:37:51Z</time>
   </trkpt>
   <trkpt lat="53.0103870" lon="-6.2712270">
    <ele>166.3</ele>
    <time>2025-11-02T15:37:56Z</time>
   </trkpt>
   <trkpt lat="53.0103430" lon="-6.2712950">
    <ele>166.4</ele>
    <time>2025-11-02T15:38:01Z</time>
   </trkpt>
   <trkpt lat="53.0103000" lon="-6.2713480">
    <ele>166.5</ele>
    <time>2025-11-02T15:38:07Z</time>
   </trkpt>
   <trkpt lat="53.0102610" lon="-6.2714130">
    <ele>166.3</ele>
    <time>2025-11-02T15:38:12Z</time>
   </trkpt>
   <trkpt lat="53.0102220" lon="-6.2714900">
    <ele>166.0</ele>
    <time>2025-11-02T15:38:17Z</time>
   </trkpt>
   <trkpt lat="53.0101830" lon="-6.2715480">
    <ele>165.9</ele>
    <time>2025-11-02T15:38:22Z</time>
   </trkpt>
   <trkpt lat="53.0101500" lon="-6.2716240">
    <ele>166.0</ele>
    <time>2025-11-02T15:38:28Z</time>
   </trkpt>
   <trkpt lat="53.0101230" lon="-6.2717030">
    <ele>166.3</ele>
    <time>2025-11-02T15:38:33Z</time>
   </trkpt>
   <trkpt lat="53.0101100" lon="-6.2717840">
    <ele>166.4</ele>
    <time>2025-11-02T15:38:39Z</time>
   </trkpt>
   <trkpt lat="53.0100870" lon="-6.2718520">
    <ele>166.5</ele>
    <time>2025-11-02T15:38:44Z</time>
   </trkpt>
   <trkpt lat="53.0100480" lon="-6.2719220">
    <ele>166.6</ele>
    <time>2025-11-02T15:38:49Z</time>
   </trkpt>
   <trkpt lat="53.0100100" lon="-6.2719770">
    <ele>166.5</ele>
    <time>2025-11-02T15:38:54Z</time>
   </trkpt>
   <trkpt lat="53.0099770" lon="-6.2720400">
    <ele>166.5</ele>
    <time>2025-11-02T15:38:59Z</time>
   </trkpt>
   <trkpt lat="53.0099530" lon="-6.2721210">
    <ele>166.5</ele>
    <time>2025-11-02T15:39:04Z</time>
   </trkpt>
   <trkpt lat="53.0099260" lon="-6.2721920">
    <ele>166.4</ele>
    <time>2025-11-02T15:39:09Z</time>
   </trkpt>
   <trkpt lat="53.0098950" lon="-6.2722620">
    <ele>166.9</ele>
    <time>2025-11-02T15:39:15Z</time>
   </trkpt>
   <trkpt lat="53.0098740" lon="-6.2723450">
    <ele>167.1</ele>
    <time>2025-11-02T15:39:20Z</time>
   </trkpt>
   <trkpt lat="53.0098320" lon="-6.2724210">
    <ele>167.1</ele>
    <time>2025-11-02T15:39:25Z</time>
   </trkpt>
   <trkpt lat="53.0098030" lon="-6.2724830">
    <ele>167.0</ele>
    <time>2025-11-02T15:39:30Z</time>
   </trkpt>
   <trkpt lat="53.0097750" lon="-6.2725530">
    <ele>166.9</ele>
    <time>2025-11-02T15:39:35Z</time>
   </trkpt>
   <trkpt lat="53.0097740" lon="-6.2726330">
    <ele>167.0</ele>
    <time>2025-11-02T15:39:44Z</time>
   </trkpt>
   <trkpt lat="53.0097390" lon="-6.2726930">
    <ele>166.7</ele>
    <time>2025-11-02T15:39:50Z</time>
   </trkpt>
   <trkpt lat="53.0097420" lon="-6.2727740">
    <ele>165.8</ele>
    <time>2025-11-02T15:40:23Z</time>
   </trkpt>
   <trkpt lat="53.0097380" lon="-6.2728970">
    <ele>165.2</ele>
    <time>2025-11-02T15:40:29Z</time>
   </trkpt>
   <trkpt lat="53.0097240" lon="-6.2729700">
    <ele>164.4</ele>
    <time>2025-11-02T15:40:43Z</time>
   </trkpt>
   <trkpt lat="53.0097170" lon="-6.2730810">
    <ele>164.1</ele>
    <time>2025-11-02T15:40:49Z</time>
   </trkpt>
   <trkpt lat="53.0096800" lon="-6.2731770">
    <ele>163.8</ele>
    <time>2025-11-02T15:40:54Z</time>
   </trkpt>
   <trkpt lat="53.0096690" lon="-6.2732660">
    <ele>163.0</ele>
    <time>2025-11-02T15:40:59Z</time>
   </trkpt>
   <trkpt lat="53.0096770" lon="-6.2733530">
    <ele>162.1</ele>
    <time>2025-11-02T15:41:05Z</time>
   </trkpt>
   <trkpt lat="53.0096450" lon="-6.2734200">
    <ele>161.0</ele>
    <time>2025-11-02T15:41:18Z</time>
   </trkpt>
   <trkpt lat="53.0096380" lon="-6.2735280">
    <ele>160.7</ele>
    <time>2025-11-02T15:41:23Z</time>
   </trkpt>
   <trkpt lat="53.0096380" lon="-6.2736190">
    <ele>160.3</ele>
    <time>2025-11-02T15:41:28Z</time>
   </trkpt>
   <trkpt lat="53.0096600" lon="-6.2736840">
    <ele>159.0</ele>
    <time>2025-11-02T15:42:37Z</time>
   </trkpt>
   <trkpt lat="53.0096920" lon="-6.2737450">
    <ele>155.8</ele>
    <time>2025-11-02T15:47:45Z</time>
   </trkpt>
   <trkpt lat="53.0097290" lon="-6.2737870">
    <ele>156.5</ele>
    <time>2025-11-02T15:47:56Z</time>
   </trkpt>
   <trkpt lat="53.0097560" lon="-6.2738480">
    <ele>156.9</ele>
    <time>2025-11-02T15:48:02Z</time>
   </trkpt>
   <trkpt lat="53.0098060" lon="-6.2738660">
    <ele>156.9</ele>
    <time>2025-11-02T15:48:08Z</time>
   </trkpt>
   <trkpt lat="53.0098460" lon="-6.2739060">
    <ele>156.5</ele>
    <time>2025-11-02T15:48:18Z</time>
   </trkpt>
   <trkpt lat="53.0098970" lon="-6.2739420">
    <ele>156.1</ele>
    <time>2025-11-02T15:48:23Z</time>
   </trkpt>
   <trkpt lat="53.0099570" lon="-6.2739710">
    <ele>155.7</ele>
    <time>2025-11-02T15:48:29Z</time>
   </trkpt>
   <trkpt lat="53.0100260" lon="-6.2739980">
    <ele>155.0</ele>
    <time>2025-11-02T15:48:34Z</time>
   </trkpt>
   <trkpt lat="53.0100810" lon="-6.2740380">
    <ele>154.7</ele>
    <time>2025-11-02T15:48:39Z</time>
   </trkpt>
   <trkpt lat="53.0101310" lon="-6.2740770">
    <ele>154.5</ele>
    <time>2025-11-02T15:48:45Z</time>
   </trkpt>
   <trkpt lat="53.0101830" lon="-6.2741030">
    <ele>154.6</ele>
    <time>2025-11-02T15:48:50Z</time>
   </trkpt>
   <trkpt lat="53.0102340" lon="-6.2741290">
    <ele>154.8</ele>
    <time>2025-11-02T15:48:55Z</time>
   </trkpt>
   <trkpt lat="53.0102820" lon="-6.2741670">
    <ele>154.5</ele>
    <time>2025-11-02T15:49:00Z</time>
   </trkpt>
   <trkpt lat="53.0103320" lon="-6.2742010">
    <ele>154.1</ele>
    <time>2025-11-02T15:49:05Z</time>
   </trkpt>
   <trkpt lat="53.0103790" lon="-6.2742530">
    <ele>154.2</ele>
    <time>2025-11-02T15:49:10Z</time>
   </trkpt>
   <trkpt lat="53.0104210" lon="-6.2743020">
    <ele>154.3</ele>
    <time>2025-11-02T15:49:15Z</time>
   </trkpt>
   <trkpt lat="53.0104630" lon="-6.2743480">
    <ele>154.6</ele>
    <time>2025-11-02T15:49:20Z</time>
   </trkpt>
   <trkpt lat="53.0105100" lon="-6.2743860">
    <ele>154.7</ele>
    <time>2025-11-02T15:49:25Z</time>
   </trkpt>
   <trkpt lat="53.0105570" lon="-6.2743950">
    <ele>154.9</ele>
    <time>2025-11-02T15:49:31Z</time>
   </trkpt>
   <trkpt lat="53.0106130" lon="-6.2743620">
    <ele>154.0</ele>
    <time>2025-11-02T15:50:10Z</time>
   </trkpt>
   <trkpt lat="53.0106310" lon="-6.2744320">
    <ele>154.3</ele>
    <time>2025-11-02T15:50:32Z</time>
   </trkpt>
   <trkpt lat="53.0106750" lon="-6.2744790">
    <ele>154.1</ele>
    <time>2025-11-02T15:50:38Z</time>
   </trkpt>
   <trkpt lat="53.0107390" lon="-6.2745520">
    <ele>154.0</ele>
    <time>2025-11-02T15:50:44Z</time>
   </trkpt>
   <trkpt lat="53.0108150" lon="-6.2745700">
    <ele>153.8</ele>
    <time>2025-11-02T15:50:49Z</time>
   </trkpt>
   <trkpt lat="53.0108550" lon="-6.2746580">
    <ele>153.9</ele>
    <time>2025-11-02T15:50:55Z</time>
   </trkpt>
   <trkpt lat="53.0109030" lon="-6.2746180">
    <ele>153.1</ele>
    <time>2025-11-02T15:51:34Z</time>
   </trkpt>
   <trkpt lat="53.0109430" lon="-6.2745730">
    <ele>152.7</ele>
    <time>2025-11-02T15:51:40Z</time>
   </trkpt>
   <trkpt lat="53.0109750" lon="-6.2745200">
    <ele>152.1</ele>
    <time>2025-11-02T15:51:51Z</time>
   </trkpt>
   <trkpt lat="53.0110380" lon="-6.2744470">
    <ele>152.0</ele>
    <time>2025-11-02T15:51:57Z</time>
   </trkpt>
   <trkpt lat="53.0110600" lon="-6.2743640">
    <ele>151.8</ele>
    <time>2025-11-02T15:52:02Z</time>
   </trkpt>
   <trkpt lat="53.0111060" lon="-6.2743120">
    <ele>152.1</ele>
    <time>2025-11-02T15:52:07Z</time>
   </trkpt>
   <trkpt lat="53.0111400" lon="-6.2742580">
    <ele>152.1</ele>
    <time>2025-11-02T15:52:13Z</time>
   </trkpt>
   <trkpt lat="53.0111770" lon="-6.2741910">
    <ele>151.7</ele>
    <time>2025-11-02T15:52:18Z</time>
   </trkpt>
   <trkpt lat="53.0112040" lon="-6.2741180">
    <ele>151.6</ele>
    <time>2025-11-02T15:52:23Z</time>
   </trkpt>
  </trkseg>
 </trk>
</gpx>
